<?xml version="1.0" encoding="UTF-8" standalone="no" ?>
<gpx xmlns="http://www.topografix.com/GPX/1/1" xmlns:xsi="http://www.w3.org/2001/XMLSchema-instance" xsi:schemaLocation="http://www.topografix.com/GPX/1/1 http://www.topografix.com/GPX/1/1/gpx.xsd" version="1.1" creator="VisuGPX - https://www.visugpx.com">
  <metadata>
    <name>160330ROBBenjaminsEdge1000</name>
    <desc><![CDATA[excellente sortie]]></desc>
  </metadata>
  <trk>
    <name><![CDATA[160330ROBBenjaminsEdge1000]]></name>
    <trkseg>
      <trkpt lat="43.41576" lon="6.0704">
        <ele>210.39999389648</ele>
        <time>2016-03-30T12:07:19Z</time>
      </trkpt>
      <trkpt lat="43.41577" lon="6.0704">
        <ele>210.39999389648</ele>
        <time>2016-03-30T12:07:20Z</time>
      </trkpt>
      <trkpt lat="43.41577" lon="6.0704">
        <ele>210.39999389648</ele>
        <time>2016-03-30T12:07:32Z</time>
      </trkpt>
      <trkpt lat="43.41578" lon="6.0704">
        <ele>210.39999389648</ele>
        <time>2016-03-30T12:07:42Z</time>
      </trkpt>
      <trkpt lat="43.41579" lon="6.07041">
        <ele>210.39999389648</ele>
        <time>2016-03-30T12:07:43Z</time>
      </trkpt>
      <trkpt lat="43.4158" lon="6.07049">
        <ele>210.60000610352</ele>
        <time>2016-03-30T12:07:46Z</time>
      </trkpt>
      <trkpt lat="43.41581" lon="6.07057">
        <ele>210.39999389648</ele>
        <time>2016-03-30T12:07:48Z</time>
      </trkpt>
      <trkpt lat="43.41582" lon="6.07079">
        <ele>210.39999389648</ele>
        <time>2016-03-30T12:07:52Z</time>
      </trkpt>
      <trkpt lat="43.41581" lon="6.07103">
        <ele>210.80000305176</ele>
        <time>2016-03-30T12:07:57Z</time>
      </trkpt>
      <trkpt lat="43.41579" lon="6.07105">
        <ele>210.80000305176</ele>
        <time>2016-03-30T12:07:58Z</time>
      </trkpt>
      <trkpt lat="43.41572" lon="6.0711">
        <ele>209.80000305176</ele>
        <time>2016-03-30T12:08:01Z</time>
      </trkpt>
      <trkpt lat="43.41559" lon="6.07114">
        <ele>209.80000305176</ele>
        <time>2016-03-30T12:08:07Z</time>
      </trkpt>
      <trkpt lat="43.41549" lon="6.0711">
        <ele>209.80000305176</ele>
        <time>2016-03-30T12:08:12Z</time>
      </trkpt>
      <trkpt lat="43.41547" lon="6.07108">
        <ele>209.80000305176</ele>
        <time>2016-03-30T12:08:13Z</time>
      </trkpt>
      <trkpt lat="43.41546" lon="6.07097">
        <ele>209.80000305176</ele>
        <time>2016-03-30T12:08:16Z</time>
      </trkpt>
      <trkpt lat="43.41545" lon="6.07094">
        <ele>209.60000610352</ele>
        <time>2016-03-30T12:08:17Z</time>
      </trkpt>
      <trkpt lat="43.41537" lon="6.07077">
        <ele>209.60000610352</ele>
        <time>2016-03-30T12:08:22Z</time>
      </trkpt>
      <trkpt lat="43.41521" lon="6.07077">
        <ele>209</ele>
        <time>2016-03-30T12:08:26Z</time>
      </trkpt>
      <trkpt lat="43.41517" lon="6.07078">
        <ele>208.80000305176</ele>
        <time>2016-03-30T12:08:27Z</time>
      </trkpt>
      <trkpt lat="43.41495" lon="6.07082">
        <ele>208.39999389648</ele>
        <time>2016-03-30T12:08:33Z</time>
      </trkpt>
      <trkpt lat="43.41476" lon="6.07076">
        <ele>208</ele>
        <time>2016-03-30T12:08:39Z</time>
      </trkpt>
      <trkpt lat="43.41474" lon="6.07076">
        <ele>207.80000305176</ele>
        <time>2016-03-30T12:08:40Z</time>
      </trkpt>
      <trkpt lat="43.41469" lon="6.07074">
        <ele>207.60000610352</ele>
        <time>2016-03-30T12:08:44Z</time>
      </trkpt>
      <trkpt lat="43.41467" lon="6.07074">
        <ele>207.39999389648</ele>
        <time>2016-03-30T12:08:49Z</time>
      </trkpt>
      <trkpt lat="43.41466" lon="6.07074">
        <ele>206.80000305176</ele>
        <time>2016-03-30T12:09:00Z</time>
      </trkpt>
      <trkpt lat="43.41463" lon="6.07074">
        <ele>206.60000610352</ele>
        <time>2016-03-30T12:09:01Z</time>
      </trkpt>
      <trkpt lat="43.41462" lon="6.07075">
        <ele>206.80000305176</ele>
        <time>2016-03-30T12:09:02Z</time>
      </trkpt>
      <trkpt lat="43.41457" lon="6.07084">
        <ele>207</ele>
        <time>2016-03-30T12:09:05Z</time>
      </trkpt>
      <trkpt lat="43.41446" lon="6.0711">
        <ele>207</ele>
        <time>2016-03-30T12:09:10Z</time>
      </trkpt>
      <trkpt lat="43.41439" lon="6.07131">
        <ele>207.19999694824</ele>
        <time>2016-03-30T12:09:13Z</time>
      </trkpt>
      <trkpt lat="43.41425" lon="6.07171">
        <ele>207.19999694824</ele>
        <time>2016-03-30T12:09:19Z</time>
      </trkpt>
      <trkpt lat="43.41409" lon="6.0722">
        <ele>206.60000610352</ele>
        <time>2016-03-30T12:09:27Z</time>
      </trkpt>
      <trkpt lat="43.41399" lon="6.07253">
        <ele>206.60000610352</ele>
        <time>2016-03-30T12:09:33Z</time>
      </trkpt>
      <trkpt lat="43.41393" lon="6.0727">
        <ele>206.19999694824</ele>
        <time>2016-03-30T12:09:36Z</time>
      </trkpt>
      <trkpt lat="43.41388" lon="6.07287">
        <ele>205.80000305176</ele>
        <time>2016-03-30T12:09:39Z</time>
      </trkpt>
      <trkpt lat="43.41381" lon="6.07315">
        <ele>205.80000305176</ele>
        <time>2016-03-30T12:09:44Z</time>
      </trkpt>
      <trkpt lat="43.4138" lon="6.07326">
        <ele>205.60000610352</ele>
        <time>2016-03-30T12:09:46Z</time>
      </trkpt>
      <trkpt lat="43.41383" lon="6.07336">
        <ele>205.19999694824</ele>
        <time>2016-03-30T12:09:48Z</time>
      </trkpt>
      <trkpt lat="43.41394" lon="6.07339">
        <ele>205.80000305176</ele>
        <time>2016-03-30T12:09:51Z</time>
      </trkpt>
      <trkpt lat="43.41398" lon="6.07339">
        <ele>206.19999694824</ele>
        <time>2016-03-30T12:09:52Z</time>
      </trkpt>
      <trkpt lat="43.41402" lon="6.07339">
        <ele>206.39999389648</ele>
        <time>2016-03-30T12:09:53Z</time>
      </trkpt>
      <trkpt lat="43.41419" lon="6.07338">
        <ele>207</ele>
        <time>2016-03-30T12:09:57Z</time>
      </trkpt>
      <trkpt lat="43.41428" lon="6.07338">
        <ele>207</ele>
        <time>2016-03-30T12:09:59Z</time>
      </trkpt>
      <trkpt lat="43.41441" lon="6.07338">
        <ele>207.39999389648</ele>
        <time>2016-03-30T12:10:02Z</time>
      </trkpt>
      <trkpt lat="43.41459" lon="6.07338">
        <ele>207.39999389648</ele>
        <time>2016-03-30T12:10:06Z</time>
      </trkpt>
      <trkpt lat="43.41482" lon="6.07349">
        <ele>207</ele>
        <time>2016-03-30T12:10:12Z</time>
      </trkpt>
      <trkpt lat="43.4149" lon="6.07357">
        <ele>207</ele>
        <time>2016-03-30T12:10:14Z</time>
      </trkpt>
      <trkpt lat="43.41505" lon="6.07375">
        <ele>206.39999389648</ele>
        <time>2016-03-30T12:10:18Z</time>
      </trkpt>
      <trkpt lat="43.41519" lon="6.07394">
        <ele>206.80000305176</ele>
        <time>2016-03-30T12:10:22Z</time>
      </trkpt>
      <trkpt lat="43.41528" lon="6.07409">
        <ele>206.60000610352</ele>
        <time>2016-03-30T12:10:25Z</time>
      </trkpt>
      <trkpt lat="43.41544" lon="6.07445">
        <ele>207.60000610352</ele>
        <time>2016-03-30T12:10:32Z</time>
      </trkpt>
      <trkpt lat="43.41555" lon="6.07446">
        <ele>208.19999694824</ele>
        <time>2016-03-30T12:10:35Z</time>
      </trkpt>
      <trkpt lat="43.4156" lon="6.07446">
        <ele>208.39999389648</ele>
        <time>2016-03-30T12:10:36Z</time>
      </trkpt>
      <trkpt lat="43.41568" lon="6.07444">
        <ele>208.60000610352</ele>
        <time>2016-03-30T12:10:38Z</time>
      </trkpt>
      <trkpt lat="43.41585" lon="6.07441">
        <ele>209.19999694824</ele>
        <time>2016-03-30T12:10:43Z</time>
      </trkpt>
      <trkpt lat="43.41598" lon="6.07438">
        <ele>210.19999694824</ele>
        <time>2016-03-30T12:10:47Z</time>
      </trkpt>
      <trkpt lat="43.41601" lon="6.07437">
        <ele>210.60000610352</ele>
        <time>2016-03-30T12:10:48Z</time>
      </trkpt>
      <trkpt lat="43.41612" lon="6.07436">
        <ele>210.60000610352</ele>
        <time>2016-03-30T12:10:51Z</time>
      </trkpt>
      <trkpt lat="43.41641" lon="6.07432">
        <ele>211</ele>
        <time>2016-03-30T12:10:58Z</time>
      </trkpt>
      <trkpt lat="43.41652" lon="6.07432">
        <ele>211.80000305176</ele>
        <time>2016-03-30T12:11:01Z</time>
      </trkpt>
      <trkpt lat="43.41664" lon="6.07431">
        <ele>212</ele>
        <time>2016-03-30T12:11:04Z</time>
      </trkpt>
      <trkpt lat="43.41682" lon="6.07429">
        <ele>213</ele>
        <time>2016-03-30T12:11:09Z</time>
      </trkpt>
      <trkpt lat="43.41687" lon="6.07429">
        <ele>213.39999389648</ele>
        <time>2016-03-30T12:11:10Z</time>
      </trkpt>
      <trkpt lat="43.41698" lon="6.07427">
        <ele>214.19999694824</ele>
        <time>2016-03-30T12:11:13Z</time>
      </trkpt>
      <trkpt lat="43.41711" lon="6.07424">
        <ele>215.60000610352</ele>
        <time>2016-03-30T12:11:17Z</time>
      </trkpt>
      <trkpt lat="43.41714" lon="6.07423">
        <ele>215.80000305176</ele>
        <time>2016-03-30T12:11:18Z</time>
      </trkpt>
      <trkpt lat="43.41721" lon="6.07421">
        <ele>216.60000610352</ele>
        <time>2016-03-30T12:11:21Z</time>
      </trkpt>
      <trkpt lat="43.41728" lon="6.0742">
        <ele>217</ele>
        <time>2016-03-30T12:11:24Z</time>
      </trkpt>
      <trkpt lat="43.41732" lon="6.07419">
        <ele>217.80000305176</ele>
        <time>2016-03-30T12:11:26Z</time>
      </trkpt>
      <trkpt lat="43.41741" lon="6.07417">
        <ele>218.39999389648</ele>
        <time>2016-03-30T12:11:30Z</time>
      </trkpt>
      <trkpt lat="43.41745" lon="6.07417">
        <ele>219.19999694824</ele>
        <time>2016-03-30T12:11:32Z</time>
      </trkpt>
      <trkpt lat="43.41753" lon="6.07415">
        <ele>220</ele>
        <time>2016-03-30T12:11:36Z</time>
      </trkpt>
      <trkpt lat="43.41755" lon="6.07415">
        <ele>220.19999694824</ele>
        <time>2016-03-30T12:11:37Z</time>
      </trkpt>
      <trkpt lat="43.41764" lon="6.07414">
        <ele>221.19999694824</ele>
        <time>2016-03-30T12:11:42Z</time>
      </trkpt>
      <trkpt lat="43.41766" lon="6.07413">
        <ele>221.60000610352</ele>
        <time>2016-03-30T12:11:43Z</time>
      </trkpt>
      <trkpt lat="43.41772" lon="6.07413">
        <ele>222</ele>
        <time>2016-03-30T12:11:46Z</time>
      </trkpt>
      <trkpt lat="43.41776" lon="6.07412">
        <ele>222.39999389648</ele>
        <time>2016-03-30T12:11:48Z</time>
      </trkpt>
      <trkpt lat="43.41777" lon="6.07412">
        <ele>222.80000305176</ele>
        <time>2016-03-30T12:11:49Z</time>
      </trkpt>
      <trkpt lat="43.41784" lon="6.07412">
        <ele>223.60000610352</ele>
        <time>2016-03-30T12:11:53Z</time>
      </trkpt>
      <trkpt lat="43.41785" lon="6.07412">
        <ele>223.80000305176</ele>
        <time>2016-03-30T12:11:54Z</time>
      </trkpt>
      <trkpt lat="43.41798" lon="6.07414">
        <ele>224.19999694824</ele>
        <time>2016-03-30T12:12:00Z</time>
      </trkpt>
      <trkpt lat="43.41801" lon="6.07417">
        <ele>224.80000305176</ele>
        <time>2016-03-30T12:12:02Z</time>
      </trkpt>
      <trkpt lat="43.41805" lon="6.07423">
        <ele>225.39999389648</ele>
        <time>2016-03-30T12:12:06Z</time>
      </trkpt>
      <trkpt lat="43.41808" lon="6.07429">
        <ele>226</ele>
        <time>2016-03-30T12:12:09Z</time>
      </trkpt>
      <trkpt lat="43.41811" lon="6.07435">
        <ele>226.39999389648</ele>
        <time>2016-03-30T12:12:12Z</time>
      </trkpt>
      <trkpt lat="43.41815" lon="6.07439">
        <ele>227</ele>
        <time>2016-03-30T12:12:15Z</time>
      </trkpt>
      <trkpt lat="43.41819" lon="6.0744">
        <ele>227.60000610352</ele>
        <time>2016-03-30T12:12:18Z</time>
      </trkpt>
      <trkpt lat="43.4183" lon="6.07445">
        <ele>227.39999389648</ele>
        <time>2016-03-30T12:12:25Z</time>
      </trkpt>
      <trkpt lat="43.41838" lon="6.07445">
        <ele>227.60000610352</ele>
        <time>2016-03-30T12:12:32Z</time>
      </trkpt>
      <trkpt lat="43.4184" lon="6.07445">
        <ele>228.60000610352</ele>
        <time>2016-03-30T12:12:34Z</time>
      </trkpt>
      <trkpt lat="43.41843" lon="6.07445">
        <ele>228</ele>
        <time>2016-03-30T12:12:37Z</time>
      </trkpt>
      <trkpt lat="43.41846" lon="6.07445">
        <ele>227.80000305176</ele>
        <time>2016-03-30T12:12:39Z</time>
      </trkpt>
      <trkpt lat="43.41848" lon="6.07444">
        <ele>227.60000610352</ele>
        <time>2016-03-30T12:12:40Z</time>
      </trkpt>
      <trkpt lat="43.41858" lon="6.07445">
        <ele>227.60000610352</ele>
        <time>2016-03-30T12:12:47Z</time>
      </trkpt>
      <trkpt lat="43.41859" lon="6.07445">
        <ele>227.80000305176</ele>
        <time>2016-03-30T12:12:48Z</time>
      </trkpt>
      <trkpt lat="43.41862" lon="6.07444">
        <ele>228</ele>
        <time>2016-03-30T12:12:52Z</time>
      </trkpt>
      <trkpt lat="43.41861" lon="6.07444">
        <ele>228</ele>
        <time>2016-03-30T12:13:00Z</time>
      </trkpt>
      <trkpt lat="43.41861" lon="6.07444">
        <ele>227.60000610352</ele>
        <time>2016-03-30T12:13:04Z</time>
      </trkpt>
      <trkpt lat="43.41861" lon="6.07444">
        <ele>227.60000610352</ele>
        <time>2016-03-30T12:13:07Z</time>
      </trkpt>
      <trkpt lat="43.41863" lon="6.07444">
        <ele>227.80000305176</ele>
        <time>2016-03-30T12:13:13Z</time>
      </trkpt>
      <trkpt lat="43.41866" lon="6.07444">
        <ele>227.80000305176</ele>
        <time>2016-03-30T12:13:15Z</time>
      </trkpt>
      <trkpt lat="43.41875" lon="6.07442">
        <ele>228.19999694824</ele>
        <time>2016-03-30T12:13:19Z</time>
      </trkpt>
      <trkpt lat="43.41879" lon="6.07442">
        <ele>228.60000610352</ele>
        <time>2016-03-30T12:13:21Z</time>
      </trkpt>
      <trkpt lat="43.41889" lon="6.07441">
        <ele>229.19999694824</ele>
        <time>2016-03-30T12:13:25Z</time>
      </trkpt>
      <trkpt lat="43.41896" lon="6.0744">
        <ele>229.80000305176</ele>
        <time>2016-03-30T12:13:28Z</time>
      </trkpt>
      <trkpt lat="43.41901" lon="6.07439">
        <ele>230.39999389648</ele>
        <time>2016-03-30T12:13:30Z</time>
      </trkpt>
      <trkpt lat="43.41909" lon="6.0744">
        <ele>231</ele>
        <time>2016-03-30T12:13:33Z</time>
      </trkpt>
      <trkpt lat="43.41918" lon="6.07441">
        <ele>231.60000610352</ele>
        <time>2016-03-30T12:13:36Z</time>
      </trkpt>
      <trkpt lat="43.41924" lon="6.07442">
        <ele>232.19999694824</ele>
        <time>2016-03-30T12:13:38Z</time>
      </trkpt>
      <trkpt lat="43.41934" lon="6.07443">
        <ele>233</ele>
        <time>2016-03-30T12:13:41Z</time>
      </trkpt>
      <trkpt lat="43.41937" lon="6.07442">
        <ele>233.19999694824</ele>
        <time>2016-03-30T12:13:42Z</time>
      </trkpt>
      <trkpt lat="43.41949" lon="6.07438">
        <ele>234.60000610352</ele>
        <time>2016-03-30T12:13:46Z</time>
      </trkpt>
      <trkpt lat="43.41969" lon="6.07433">
        <ele>235.60000610352</ele>
        <time>2016-03-30T12:13:53Z</time>
      </trkpt>
      <trkpt lat="43.41972" lon="6.07433">
        <ele>236</ele>
        <time>2016-03-30T12:13:54Z</time>
      </trkpt>
      <trkpt lat="43.41985" lon="6.07431">
        <ele>236.80000305176</ele>
        <time>2016-03-30T12:13:59Z</time>
      </trkpt>
      <trkpt lat="43.41992" lon="6.07431">
        <ele>237.19999694824</ele>
        <time>2016-03-30T12:14:02Z</time>
      </trkpt>
      <trkpt lat="43.41998" lon="6.07434">
        <ele>237.39999389648</ele>
        <time>2016-03-30T12:14:05Z</time>
      </trkpt>
      <trkpt lat="43.42" lon="6.0744">
        <ele>237.60000610352</ele>
        <time>2016-03-30T12:14:07Z</time>
      </trkpt>
      <trkpt lat="43.42001" lon="6.07447">
        <ele>237.80000305176</ele>
        <time>2016-03-30T12:14:09Z</time>
      </trkpt>
      <trkpt lat="43.42004" lon="6.07461">
        <ele>237.80000305176</ele>
        <time>2016-03-30T12:14:13Z</time>
      </trkpt>
      <trkpt lat="43.42005" lon="6.07468">
        <ele>237.80000305176</ele>
        <time>2016-03-30T12:14:15Z</time>
      </trkpt>
      <trkpt lat="43.42012" lon="6.07489">
        <ele>238.19999694824</ele>
        <time>2016-03-30T12:14:21Z</time>
      </trkpt>
      <trkpt lat="43.42022" lon="6.07502">
        <ele>238.19999694824</ele>
        <time>2016-03-30T12:14:25Z</time>
      </trkpt>
      <trkpt lat="43.42025" lon="6.07502">
        <ele>238.19999694824</ele>
        <time>2016-03-30T12:14:26Z</time>
      </trkpt>
      <trkpt lat="43.42036" lon="6.07503">
        <ele>238.80000305176</ele>
        <time>2016-03-30T12:14:29Z</time>
      </trkpt>
      <trkpt lat="43.42046" lon="6.07503">
        <ele>238.39999389648</ele>
        <time>2016-03-30T12:14:32Z</time>
      </trkpt>
      <trkpt lat="43.42062" lon="6.07502">
        <ele>238.39999389648</ele>
        <time>2016-03-30T12:14:36Z</time>
      </trkpt>
      <trkpt lat="43.42066" lon="6.07502">
        <ele>238.60000610352</ele>
        <time>2016-03-30T12:14:37Z</time>
      </trkpt>
      <trkpt lat="43.42078" lon="6.07501">
        <ele>238.60000610352</ele>
        <time>2016-03-30T12:14:40Z</time>
      </trkpt>
      <trkpt lat="43.42085" lon="6.075">
        <ele>238.80000305176</ele>
        <time>2016-03-30T12:14:42Z</time>
      </trkpt>
      <trkpt lat="43.42089" lon="6.075">
        <ele>238.80000305176</ele>
        <time>2016-03-30T12:14:43Z</time>
      </trkpt>
      <trkpt lat="43.42102" lon="6.07499">
        <ele>237.80000305176</ele>
        <time>2016-03-30T12:14:46Z</time>
      </trkpt>
      <trkpt lat="43.42117" lon="6.07495">
        <ele>236.80000305176</ele>
        <time>2016-03-30T12:14:49Z</time>
      </trkpt>
      <trkpt lat="43.42122" lon="6.07491">
        <ele>236.60000610352</ele>
        <time>2016-03-30T12:14:50Z</time>
      </trkpt>
      <trkpt lat="43.42127" lon="6.0748">
        <ele>235.60000610352</ele>
        <time>2016-03-30T12:14:52Z</time>
      </trkpt>
      <trkpt lat="43.42128" lon="6.07476">
        <ele>235.39999389648</ele>
        <time>2016-03-30T12:14:53Z</time>
      </trkpt>
      <trkpt lat="43.42129" lon="6.07474">
        <ele>235</ele>
        <time>2016-03-30T12:14:54Z</time>
      </trkpt>
      <trkpt lat="43.42129" lon="6.07472">
        <ele>235</ele>
        <time>2016-03-30T12:14:55Z</time>
      </trkpt>
      <trkpt lat="43.42129" lon="6.07469">
        <ele>234.80000305176</ele>
        <time>2016-03-30T12:14:57Z</time>
      </trkpt>
      <trkpt lat="43.42125" lon="6.07465">
        <ele>234.39999389648</ele>
        <time>2016-03-30T12:15:00Z</time>
      </trkpt>
      <trkpt lat="43.42122" lon="6.07464">
        <ele>234.80000305176</ele>
        <time>2016-03-30T12:15:01Z</time>
      </trkpt>
      <trkpt lat="43.42119" lon="6.07461">
        <ele>234.60000610352</ele>
        <time>2016-03-30T12:15:03Z</time>
      </trkpt>
      <trkpt lat="43.42118" lon="6.07455">
        <ele>234.60000610352</ele>
        <time>2016-03-30T12:15:05Z</time>
      </trkpt>
      <trkpt lat="43.42119" lon="6.07451">
        <ele>234.39999389648</ele>
        <time>2016-03-30T12:15:06Z</time>
      </trkpt>
      <trkpt lat="43.42122" lon="6.07442">
        <ele>234.19999694824</ele>
        <time>2016-03-30T12:15:08Z</time>
      </trkpt>
      <trkpt lat="43.42123" lon="6.07437">
        <ele>233.80000305176</ele>
        <time>2016-03-30T12:15:09Z</time>
      </trkpt>
      <trkpt lat="43.42122" lon="6.0743">
        <ele>233.39999389648</ele>
        <time>2016-03-30T12:15:10Z</time>
      </trkpt>
      <trkpt lat="43.42119" lon="6.0742">
        <ele>232.80000305176</ele>
        <time>2016-03-30T12:15:12Z</time>
      </trkpt>
      <trkpt lat="43.42115" lon="6.07411">
        <ele>232.39999389648</ele>
        <time>2016-03-30T12:15:14Z</time>
      </trkpt>
      <trkpt lat="43.42114" lon="6.07408">
        <ele>232.39999389648</ele>
        <time>2016-03-30T12:15:15Z</time>
      </trkpt>
      <trkpt lat="43.42113" lon="6.07402">
        <ele>232.19999694824</ele>
        <time>2016-03-30T12:15:17Z</time>
      </trkpt>
      <trkpt lat="43.42118" lon="6.07397">
        <ele>231.39999389648</ele>
        <time>2016-03-30T12:15:20Z</time>
      </trkpt>
      <trkpt lat="43.4212" lon="6.07396">
        <ele>231</ele>
        <time>2016-03-30T12:15:21Z</time>
      </trkpt>
      <trkpt lat="43.42126" lon="6.074">
        <ele>230.39999389648</ele>
        <time>2016-03-30T12:15:24Z</time>
      </trkpt>
      <trkpt lat="43.4213" lon="6.07402">
        <ele>230.39999389648</ele>
        <time>2016-03-30T12:15:27Z</time>
      </trkpt>
      <trkpt lat="43.42133" lon="6.07403">
        <ele>230.39999389648</ele>
        <time>2016-03-30T12:15:29Z</time>
      </trkpt>
      <trkpt lat="43.42134" lon="6.07403">
        <ele>230.60000610352</ele>
        <time>2016-03-30T12:15:30Z</time>
      </trkpt>
      <trkpt lat="43.42137" lon="6.07404">
        <ele>230.80000305176</ele>
        <time>2016-03-30T12:15:32Z</time>
      </trkpt>
      <trkpt lat="43.42138" lon="6.07404">
        <ele>231.19999694824</ele>
        <time>2016-03-30T12:15:33Z</time>
      </trkpt>
      <trkpt lat="43.42138" lon="6.07405">
        <ele>231.19999694824</ele>
        <time>2016-03-30T12:15:34Z</time>
      </trkpt>
      <trkpt lat="43.42138" lon="6.07406">
        <ele>231</ele>
        <time>2016-03-30T12:15:35Z</time>
      </trkpt>
      <trkpt lat="43.42139" lon="6.07408">
        <ele>231.19999694824</ele>
        <time>2016-03-30T12:15:38Z</time>
      </trkpt>
      <trkpt lat="43.42141" lon="6.07408">
        <ele>231.19999694824</ele>
        <time>2016-03-30T12:15:40Z</time>
      </trkpt>
      <trkpt lat="43.42145" lon="6.07407">
        <ele>231.60000610352</ele>
        <time>2016-03-30T12:15:45Z</time>
      </trkpt>
      <trkpt lat="43.42146" lon="6.07407">
        <ele>231.60000610352</ele>
        <time>2016-03-30T12:15:46Z</time>
      </trkpt>
      <trkpt lat="43.42145" lon="6.07401">
        <ele>231.19999694824</ele>
        <time>2016-03-30T12:15:52Z</time>
      </trkpt>
      <trkpt lat="43.42146" lon="6.07399">
        <ele>231.19999694824</ele>
        <time>2016-03-30T12:15:53Z</time>
      </trkpt>
      <trkpt lat="43.42144" lon="6.07395">
        <ele>232.19999694824</ele>
        <time>2016-03-30T12:15:57Z</time>
      </trkpt>
      <trkpt lat="43.42144" lon="6.0739">
        <ele>232</ele>
        <time>2016-03-30T12:16:00Z</time>
      </trkpt>
      <trkpt lat="43.42144" lon="6.07389">
        <ele>232.19999694824</ele>
        <time>2016-03-30T12:16:01Z</time>
      </trkpt>
      <trkpt lat="43.42145" lon="6.07383">
        <ele>232</ele>
        <time>2016-03-30T12:16:07Z</time>
      </trkpt>
      <trkpt lat="43.4215" lon="6.07385">
        <ele>232.80000305176</ele>
        <time>2016-03-30T12:16:15Z</time>
      </trkpt>
      <trkpt lat="43.42151" lon="6.07394">
        <ele>232.60000610352</ele>
        <time>2016-03-30T12:16:17Z</time>
      </trkpt>
      <trkpt lat="43.42155" lon="6.0741">
        <ele>233.19999694824</ele>
        <time>2016-03-30T12:16:20Z</time>
      </trkpt>
      <trkpt lat="43.42159" lon="6.07413">
        <ele>233</ele>
        <time>2016-03-30T12:16:25Z</time>
      </trkpt>
      <trkpt lat="43.42159" lon="6.07415">
        <ele>233.19999694824</ele>
        <time>2016-03-30T12:16:33Z</time>
      </trkpt>
      <trkpt lat="43.4216" lon="6.07418">
        <ele>233.80000305176</ele>
        <time>2016-03-30T12:16:36Z</time>
      </trkpt>
      <trkpt lat="43.42162" lon="6.07419">
        <ele>234.19999694824</ele>
        <time>2016-03-30T12:16:40Z</time>
      </trkpt>
      <trkpt lat="43.42165" lon="6.07422">
        <ele>234.60000610352</ele>
        <time>2016-03-30T12:16:46Z</time>
      </trkpt>
      <trkpt lat="43.42167" lon="6.07423">
        <ele>234.80000305176</ele>
        <time>2016-03-30T12:16:54Z</time>
      </trkpt>
      <trkpt lat="43.42167" lon="6.07423">
        <ele>235</ele>
        <time>2016-03-30T12:16:55Z</time>
      </trkpt>
      <trkpt lat="43.42167" lon="6.07423">
        <ele>234.80000305176</ele>
        <time>2016-03-30T12:17:01Z</time>
      </trkpt>
      <trkpt lat="43.42167" lon="6.07424">
        <ele>235</ele>
        <time>2016-03-30T12:17:11Z</time>
      </trkpt>
      <trkpt lat="43.42168" lon="6.07424">
        <ele>235</ele>
        <time>2016-03-30T12:17:14Z</time>
      </trkpt>
      <trkpt lat="43.42168" lon="6.07424">
        <ele>235.19999694824</ele>
        <time>2016-03-30T12:17:17Z</time>
      </trkpt>
      <trkpt lat="43.42168" lon="6.07424">
        <ele>235.19999694824</ele>
        <time>2016-03-30T12:17:22Z</time>
      </trkpt>
      <trkpt lat="43.42168" lon="6.07423">
        <ele>235.19999694824</ele>
        <time>2016-03-30T12:17:27Z</time>
      </trkpt>
      <trkpt lat="43.42168" lon="6.07423">
        <ele>235.19999694824</ele>
        <time>2016-03-30T12:17:33Z</time>
      </trkpt>
      <trkpt lat="43.42168" lon="6.07423">
        <ele>235.60000610352</ele>
        <time>2016-03-30T12:17:49Z</time>
      </trkpt>
      <trkpt lat="43.42168" lon="6.07424">
        <ele>235.39999389648</ele>
        <time>2016-03-30T12:17:55Z</time>
      </trkpt>
      <trkpt lat="43.42168" lon="6.07424">
        <ele>235.39999389648</ele>
        <time>2016-03-30T12:18:01Z</time>
      </trkpt>
      <trkpt lat="43.42168" lon="6.07425">
        <ele>235.39999389648</ele>
        <time>2016-03-30T12:18:17Z</time>
      </trkpt>
      <trkpt lat="43.42168" lon="6.07425">
        <ele>235.19999694824</ele>
        <time>2016-03-30T12:18:32Z</time>
      </trkpt>
      <trkpt lat="43.42168" lon="6.07425">
        <ele>235.19999694824</ele>
        <time>2016-03-30T12:18:36Z</time>
      </trkpt>
      <trkpt lat="43.42168" lon="6.07426">
        <ele>235.19999694824</ele>
        <time>2016-03-30T12:18:40Z</time>
      </trkpt>
      <trkpt lat="43.42168" lon="6.0743">
        <ele>235.19999694824</ele>
        <time>2016-03-30T12:18:42Z</time>
      </trkpt>
      <trkpt lat="43.4217" lon="6.07442">
        <ele>235.39999389648</ele>
        <time>2016-03-30T12:18:46Z</time>
      </trkpt>
      <trkpt lat="43.4217" lon="6.07445">
        <ele>235.60000610352</ele>
        <time>2016-03-30T12:18:47Z</time>
      </trkpt>
      <trkpt lat="43.42171" lon="6.07473">
        <ele>235.80000305176</ele>
        <time>2016-03-30T12:18:54Z</time>
      </trkpt>
      <trkpt lat="43.42173" lon="6.07501">
        <ele>236.19999694824</ele>
        <time>2016-03-30T12:19:02Z</time>
      </trkpt>
      <trkpt lat="43.42172" lon="6.07504">
        <ele>236.60000610352</ele>
        <time>2016-03-30T12:19:03Z</time>
      </trkpt>
      <trkpt lat="43.42173" lon="6.0752">
        <ele>236.80000305176</ele>
        <time>2016-03-30T12:19:08Z</time>
      </trkpt>
      <trkpt lat="43.42173" lon="6.07523">
        <ele>236.80000305176</ele>
        <time>2016-03-30T12:19:09Z</time>
      </trkpt>
      <trkpt lat="43.42171" lon="6.0754">
        <ele>236.19999694824</ele>
        <time>2016-03-30T12:19:13Z</time>
      </trkpt>
      <trkpt lat="43.42169" lon="6.07551">
        <ele>236.19999694824</ele>
        <time>2016-03-30T12:19:15Z</time>
      </trkpt>
      <trkpt lat="43.42166" lon="6.07569">
        <ele>236.80000305176</ele>
        <time>2016-03-30T12:19:18Z</time>
      </trkpt>
      <trkpt lat="43.42164" lon="6.07587">
        <ele>237.60000610352</ele>
        <time>2016-03-30T12:19:21Z</time>
      </trkpt>
      <trkpt lat="43.42162" lon="6.07599">
        <ele>237.60000610352</ele>
        <time>2016-03-30T12:19:23Z</time>
      </trkpt>
      <trkpt lat="43.42159" lon="6.0761">
        <ele>238</ele>
        <time>2016-03-30T12:19:25Z</time>
      </trkpt>
      <trkpt lat="43.42154" lon="6.07632">
        <ele>238.39999389648</ele>
        <time>2016-03-30T12:19:29Z</time>
      </trkpt>
      <trkpt lat="43.42153" lon="6.07638">
        <ele>238.39999389648</ele>
        <time>2016-03-30T12:19:30Z</time>
      </trkpt>
      <trkpt lat="43.42149" lon="6.07653">
        <ele>239</ele>
        <time>2016-03-30T12:19:33Z</time>
      </trkpt>
      <trkpt lat="43.42144" lon="6.07669">
        <ele>239.60000610352</ele>
        <time>2016-03-30T12:19:36Z</time>
      </trkpt>
      <trkpt lat="43.42141" lon="6.07679">
        <ele>240.19999694824</ele>
        <time>2016-03-30T12:19:38Z</time>
      </trkpt>
      <trkpt lat="43.42134" lon="6.07699">
        <ele>240.80000305176</ele>
        <time>2016-03-30T12:19:42Z</time>
      </trkpt>
      <trkpt lat="43.42131" lon="6.07714">
        <ele>241.19999694824</ele>
        <time>2016-03-30T12:19:45Z</time>
      </trkpt>
      <trkpt lat="43.42129" lon="6.07719">
        <ele>241.60000610352</ele>
        <time>2016-03-30T12:19:46Z</time>
      </trkpt>
      <trkpt lat="43.42123" lon="6.07737">
        <ele>242.39999389648</ele>
        <time>2016-03-30T12:19:50Z</time>
      </trkpt>
      <trkpt lat="43.42119" lon="6.07749">
        <ele>243.60000610352</ele>
        <time>2016-03-30T12:19:53Z</time>
      </trkpt>
      <trkpt lat="43.42113" lon="6.0777">
        <ele>244.60000610352</ele>
        <time>2016-03-30T12:19:58Z</time>
      </trkpt>
      <trkpt lat="43.42112" lon="6.07773">
        <ele>244.80000305176</ele>
        <time>2016-03-30T12:19:59Z</time>
      </trkpt>
      <trkpt lat="43.4211" lon="6.07781">
        <ele>245</ele>
        <time>2016-03-30T12:20:01Z</time>
      </trkpt>
      <trkpt lat="43.42107" lon="6.07792">
        <ele>246</ele>
        <time>2016-03-30T12:20:04Z</time>
      </trkpt>
      <trkpt lat="43.42102" lon="6.07807">
        <ele>246.39999389648</ele>
        <time>2016-03-30T12:20:08Z</time>
      </trkpt>
      <trkpt lat="43.42098" lon="6.07821">
        <ele>247</ele>
        <time>2016-03-30T12:20:12Z</time>
      </trkpt>
      <trkpt lat="43.42095" lon="6.07832">
        <ele>248.19999694824</ele>
        <time>2016-03-30T12:20:16Z</time>
      </trkpt>
      <trkpt lat="43.42093" lon="6.07844">
        <ele>249.19999694824</ele>
        <time>2016-03-30T12:20:22Z</time>
      </trkpt>
      <trkpt lat="43.42093" lon="6.07845">
        <ele>249.19999694824</ele>
        <time>2016-03-30T12:20:23Z</time>
      </trkpt>
      <trkpt lat="43.42094" lon="6.07849">
        <ele>249.19999694824</ele>
        <time>2016-03-30T12:20:26Z</time>
      </trkpt>
      <trkpt lat="43.42094" lon="6.07852">
        <ele>249.39999389648</ele>
        <time>2016-03-30T12:20:28Z</time>
      </trkpt>
      <trkpt lat="43.42093" lon="6.07858">
        <ele>249.39999389648</ele>
        <time>2016-03-30T12:20:33Z</time>
      </trkpt>
      <trkpt lat="43.42093" lon="6.07862">
        <ele>249.19999694824</ele>
        <time>2016-03-30T12:20:36Z</time>
      </trkpt>
      <trkpt lat="43.42093" lon="6.07865">
        <ele>249.19999694824</ele>
        <time>2016-03-30T12:20:42Z</time>
      </trkpt>
      <trkpt lat="43.42093" lon="6.07865">
        <ele>249.19999694824</ele>
        <time>2016-03-30T12:20:43Z</time>
      </trkpt>
      <trkpt lat="43.42093" lon="6.07865">
        <ele>249.19999694824</ele>
        <time>2016-03-30T12:20:46Z</time>
      </trkpt>
      <trkpt lat="43.42093" lon="6.07865">
        <ele>249.19999694824</ele>
        <time>2016-03-30T12:20:50Z</time>
      </trkpt>
      <trkpt lat="43.42093" lon="6.07865">
        <ele>249</ele>
        <time>2016-03-30T12:20:54Z</time>
      </trkpt>
      <trkpt lat="43.42093" lon="6.07865">
        <ele>249</ele>
        <time>2016-03-30T12:20:57Z</time>
      </trkpt>
      <trkpt lat="43.42093" lon="6.07865">
        <ele>249</ele>
        <time>2016-03-30T12:21:01Z</time>
      </trkpt>
      <trkpt lat="43.42093" lon="6.07865">
        <ele>249</ele>
        <time>2016-03-30T12:21:08Z</time>
      </trkpt>
      <trkpt lat="43.42093" lon="6.07865">
        <ele>249.19999694824</ele>
        <time>2016-03-30T12:21:11Z</time>
      </trkpt>
      <trkpt lat="43.42095" lon="6.0787">
        <ele>248.80000305176</ele>
        <time>2016-03-30T12:21:18Z</time>
      </trkpt>
      <trkpt lat="43.42098" lon="6.07879">
        <ele>248.60000610352</ele>
        <time>2016-03-30T12:21:21Z</time>
      </trkpt>
      <trkpt lat="43.421" lon="6.07883">
        <ele>248.60000610352</ele>
        <time>2016-03-30T12:21:22Z</time>
      </trkpt>
      <trkpt lat="43.42106" lon="6.0789">
        <ele>248</ele>
        <time>2016-03-30T12:21:24Z</time>
      </trkpt>
      <trkpt lat="43.42112" lon="6.07891">
        <ele>247.19999694824</ele>
        <time>2016-03-30T12:21:25Z</time>
      </trkpt>
      <trkpt lat="43.42117" lon="6.07891">
        <ele>246.39999389648</ele>
        <time>2016-03-30T12:21:26Z</time>
      </trkpt>
      <trkpt lat="43.42129" lon="6.07889">
        <ele>244.80000305176</ele>
        <time>2016-03-30T12:21:28Z</time>
      </trkpt>
      <trkpt lat="43.42135" lon="6.07888">
        <ele>244.60000610352</ele>
        <time>2016-03-30T12:21:29Z</time>
      </trkpt>
      <trkpt lat="43.42156" lon="6.07886">
        <ele>244.19999694824</ele>
        <time>2016-03-30T12:21:32Z</time>
      </trkpt>
      <trkpt lat="43.42164" lon="6.07884">
        <ele>243.80000305176</ele>
        <time>2016-03-30T12:21:33Z</time>
      </trkpt>
      <trkpt lat="43.4218" lon="6.07882">
        <ele>243</ele>
        <time>2016-03-30T12:21:35Z</time>
      </trkpt>
      <trkpt lat="43.42202" lon="6.07886">
        <ele>243</ele>
        <time>2016-03-30T12:21:38Z</time>
      </trkpt>
      <trkpt lat="43.42214" lon="6.0789">
        <ele>242.60000610352</ele>
        <time>2016-03-30T12:21:40Z</time>
      </trkpt>
      <trkpt lat="43.42223" lon="6.07892">
        <ele>243.60000610352</ele>
        <time>2016-03-30T12:21:42Z</time>
      </trkpt>
      <trkpt lat="43.42227" lon="6.07893">
        <ele>243.80000305176</ele>
        <time>2016-03-30T12:21:43Z</time>
      </trkpt>
      <trkpt lat="43.42232" lon="6.07898">
        <ele>244.19999694824</ele>
        <time>2016-03-30T12:21:45Z</time>
      </trkpt>
      <trkpt lat="43.42234" lon="6.07902">
        <ele>244.19999694824</ele>
        <time>2016-03-30T12:21:46Z</time>
      </trkpt>
      <trkpt lat="43.42234" lon="6.07907">
        <ele>244.19999694824</ele>
        <time>2016-03-30T12:21:47Z</time>
      </trkpt>
      <trkpt lat="43.42235" lon="6.07912">
        <ele>243.80000305176</ele>
        <time>2016-03-30T12:21:48Z</time>
      </trkpt>
      <trkpt lat="43.42238" lon="6.07922">
        <ele>244</ele>
        <time>2016-03-30T12:21:50Z</time>
      </trkpt>
      <trkpt lat="43.42241" lon="6.07933">
        <ele>244.39999389648</ele>
        <time>2016-03-30T12:21:52Z</time>
      </trkpt>
      <trkpt lat="43.42242" lon="6.07938">
        <ele>244.80000305176</ele>
        <time>2016-03-30T12:21:53Z</time>
      </trkpt>
      <trkpt lat="43.42244" lon="6.07944">
        <ele>245.19999694824</ele>
        <time>2016-03-30T12:21:54Z</time>
      </trkpt>
      <trkpt lat="43.42248" lon="6.07962">
        <ele>245</ele>
        <time>2016-03-30T12:21:57Z</time>
      </trkpt>
      <trkpt lat="43.42255" lon="6.07972">
        <ele>243</ele>
        <time>2016-03-30T12:21:59Z</time>
      </trkpt>
      <trkpt lat="43.42259" lon="6.07974">
        <ele>242.80000305176</ele>
        <time>2016-03-30T12:22:00Z</time>
      </trkpt>
      <trkpt lat="43.42276" lon="6.0797">
        <ele>242.80000305176</ele>
        <time>2016-03-30T12:22:04Z</time>
      </trkpt>
      <trkpt lat="43.42288" lon="6.07969">
        <ele>243.39999389648</ele>
        <time>2016-03-30T12:22:07Z</time>
      </trkpt>
      <trkpt lat="43.42292" lon="6.07971">
        <ele>243.80000305176</ele>
        <time>2016-03-30T12:22:08Z</time>
      </trkpt>
      <trkpt lat="43.42295" lon="6.07973">
        <ele>244</ele>
        <time>2016-03-30T12:22:09Z</time>
      </trkpt>
      <trkpt lat="43.42302" lon="6.07981">
        <ele>244</ele>
        <time>2016-03-30T12:22:11Z</time>
      </trkpt>
      <trkpt lat="43.42306" lon="6.07987">
        <ele>243.80000305176</ele>
        <time>2016-03-30T12:22:12Z</time>
      </trkpt>
      <trkpt lat="43.42317" lon="6.07998">
        <ele>244.19999694824</ele>
        <time>2016-03-30T12:22:16Z</time>
      </trkpt>
      <trkpt lat="43.42324" lon="6.08007">
        <ele>245</ele>
        <time>2016-03-30T12:22:21Z</time>
      </trkpt>
      <trkpt lat="43.42326" lon="6.08009">
        <ele>245</ele>
        <time>2016-03-30T12:22:22Z</time>
      </trkpt>
      <trkpt lat="43.42331" lon="6.08009">
        <ele>245.60000610352</ele>
        <time>2016-03-30T12:22:24Z</time>
      </trkpt>
      <trkpt lat="43.42334" lon="6.08007">
        <ele>246.19999694824</ele>
        <time>2016-03-30T12:22:26Z</time>
      </trkpt>
      <trkpt lat="43.42338" lon="6.08002">
        <ele>245.80000305176</ele>
        <time>2016-03-30T12:22:28Z</time>
      </trkpt>
      <trkpt lat="43.42342" lon="6.07993">
        <ele>247.19999694824</ele>
        <time>2016-03-30T12:22:31Z</time>
      </trkpt>
      <trkpt lat="43.42344" lon="6.07986">
        <ele>247.60000610352</ele>
        <time>2016-03-30T12:22:33Z</time>
      </trkpt>
      <trkpt lat="43.42346" lon="6.07983">
        <ele>248.39999389648</ele>
        <time>2016-03-30T12:22:34Z</time>
      </trkpt>
      <trkpt lat="43.42349" lon="6.07978">
        <ele>248.80000305176</ele>
        <time>2016-03-30T12:22:36Z</time>
      </trkpt>
      <trkpt lat="43.42352" lon="6.07976">
        <ele>248.60000610352</ele>
        <time>2016-03-30T12:22:37Z</time>
      </trkpt>
      <trkpt lat="43.42354" lon="6.07972">
        <ele>249.60000610352</ele>
        <time>2016-03-30T12:22:39Z</time>
      </trkpt>
      <trkpt lat="43.42359" lon="6.07968">
        <ele>249.80000305176</ele>
        <time>2016-03-30T12:22:42Z</time>
      </trkpt>
      <trkpt lat="43.42369" lon="6.07955">
        <ele>249.80000305176</ele>
        <time>2016-03-30T12:22:47Z</time>
      </trkpt>
      <trkpt lat="43.42386" lon="6.07936">
        <ele>250</ele>
        <time>2016-03-30T12:22:54Z</time>
      </trkpt>
      <trkpt lat="43.42398" lon="6.07926">
        <ele>250.19999694824</ele>
        <time>2016-03-30T12:22:59Z</time>
      </trkpt>
      <trkpt lat="43.42414" lon="6.07919">
        <ele>250.60000610352</ele>
        <time>2016-03-30T12:23:05Z</time>
      </trkpt>
      <trkpt lat="43.42432" lon="6.07919">
        <ele>250.19999694824</ele>
        <time>2016-03-30T12:23:10Z</time>
      </trkpt>
      <trkpt lat="43.42452" lon="6.07922">
        <ele>250.19999694824</ele>
        <time>2016-03-30T12:23:16Z</time>
      </trkpt>
      <trkpt lat="43.42463" lon="6.07918">
        <ele>250.39999389648</ele>
        <time>2016-03-30T12:23:20Z</time>
      </trkpt>
      <trkpt lat="43.4247" lon="6.07913">
        <ele>251.19999694824</ele>
        <time>2016-03-30T12:23:23Z</time>
      </trkpt>
      <trkpt lat="43.42472" lon="6.07911">
        <ele>251</ele>
        <time>2016-03-30T12:23:25Z</time>
      </trkpt>
      <trkpt lat="43.42473" lon="6.0791">
        <ele>251</ele>
        <time>2016-03-30T12:23:28Z</time>
      </trkpt>
      <trkpt lat="43.42473" lon="6.0791">
        <ele>251</ele>
        <time>2016-03-30T12:23:31Z</time>
      </trkpt>
      <trkpt lat="43.42473" lon="6.0791">
        <ele>251</ele>
        <time>2016-03-30T12:23:32Z</time>
      </trkpt>
      <trkpt lat="43.42473" lon="6.0791">
        <ele>251.19999694824</ele>
        <time>2016-03-30T12:23:35Z</time>
      </trkpt>
      <trkpt lat="43.42473" lon="6.0791">
        <ele>251.19999694824</ele>
        <time>2016-03-30T12:23:39Z</time>
      </trkpt>
      <trkpt lat="43.42473" lon="6.0791">
        <ele>251.19999694824</ele>
        <time>2016-03-30T12:23:42Z</time>
      </trkpt>
      <trkpt lat="43.42473" lon="6.0791">
        <ele>251.19999694824</ele>
        <time>2016-03-30T12:23:46Z</time>
      </trkpt>
      <trkpt lat="43.42474" lon="6.07909">
        <ele>250.80000305176</ele>
        <time>2016-03-30T12:23:51Z</time>
      </trkpt>
      <trkpt lat="43.42474" lon="6.07909">
        <ele>251</ele>
        <time>2016-03-30T12:23:54Z</time>
      </trkpt>
      <trkpt lat="43.42474" lon="6.07909">
        <ele>251</ele>
        <time>2016-03-30T12:24:01Z</time>
      </trkpt>
      <trkpt lat="43.42474" lon="6.07909">
        <ele>251.19999694824</ele>
        <time>2016-03-30T12:24:08Z</time>
      </trkpt>
      <trkpt lat="43.42474" lon="6.07909">
        <ele>251</ele>
        <time>2016-03-30T12:24:10Z</time>
      </trkpt>
      <trkpt lat="43.42474" lon="6.07909">
        <ele>251</ele>
        <time>2016-03-30T12:24:27Z</time>
      </trkpt>
      <trkpt lat="43.42474" lon="6.07909">
        <ele>251</ele>
        <time>2016-03-30T12:24:44Z</time>
      </trkpt>
      <trkpt lat="43.42475" lon="6.07909">
        <ele>251</ele>
        <time>2016-03-30T12:25:02Z</time>
      </trkpt>
      <trkpt lat="43.42475" lon="6.07909">
        <ele>251</ele>
        <time>2016-03-30T12:25:13Z</time>
      </trkpt>
      <trkpt lat="43.42475" lon="6.07909">
        <ele>251</ele>
        <time>2016-03-30T12:25:17Z</time>
      </trkpt>
      <trkpt lat="43.42475" lon="6.07909">
        <ele>251.19999694824</ele>
        <time>2016-03-30T12:25:31Z</time>
      </trkpt>
      <trkpt lat="43.42475" lon="6.07908">
        <ele>251.19999694824</ele>
        <time>2016-03-30T12:25:39Z</time>
      </trkpt>
      <trkpt lat="43.42475" lon="6.07908">
        <ele>251.19999694824</ele>
        <time>2016-03-30T12:25:41Z</time>
      </trkpt>
      <trkpt lat="43.42475" lon="6.07909">
        <ele>251.39999389648</ele>
        <time>2016-03-30T12:26:00Z</time>
      </trkpt>
      <trkpt lat="43.42475" lon="6.07909">
        <ele>251.39999389648</ele>
        <time>2016-03-30T12:26:01Z</time>
      </trkpt>
      <trkpt lat="43.42475" lon="6.07909">
        <ele>251</ele>
        <time>2016-03-30T12:26:27Z</time>
      </trkpt>
      <trkpt lat="43.42475" lon="6.07909">
        <ele>251.19999694824</ele>
        <time>2016-03-30T12:26:31Z</time>
      </trkpt>
      <trkpt lat="43.42475" lon="6.07909">
        <ele>251</ele>
        <time>2016-03-30T12:26:35Z</time>
      </trkpt>
      <trkpt lat="43.42475" lon="6.07908">
        <ele>251</ele>
        <time>2016-03-30T12:26:48Z</time>
      </trkpt>
      <trkpt lat="43.42475" lon="6.07908">
        <ele>251</ele>
        <time>2016-03-30T12:27:03Z</time>
      </trkpt>
      <trkpt lat="43.42475" lon="6.07908">
        <ele>251.19999694824</ele>
        <time>2016-03-30T12:27:31Z</time>
      </trkpt>
      <trkpt lat="43.42475" lon="6.07908">
        <ele>251.60000610352</ele>
        <time>2016-03-30T12:27:52Z</time>
      </trkpt>
      <trkpt lat="43.42475" lon="6.07908">
        <ele>251.39999389648</ele>
        <time>2016-03-30T12:28:14Z</time>
      </trkpt>
      <trkpt lat="43.42475" lon="6.07908">
        <ele>251.39999389648</ele>
        <time>2016-03-30T12:28:15Z</time>
      </trkpt>
      <trkpt lat="43.42475" lon="6.07909">
        <ele>251.39999389648</ele>
        <time>2016-03-30T12:28:21Z</time>
      </trkpt>
      <trkpt lat="43.42476" lon="6.07908">
        <ele>251.80000305176</ele>
        <time>2016-03-30T12:28:24Z</time>
      </trkpt>
      <trkpt lat="43.42477" lon="6.07905">
        <ele>252.39999389648</ele>
        <time>2016-03-30T12:28:29Z</time>
      </trkpt>
      <trkpt lat="43.42477" lon="6.07908">
        <ele>252</ele>
        <time>2016-03-30T12:28:32Z</time>
      </trkpt>
      <trkpt lat="43.42477" lon="6.07909">
        <ele>252.19999694824</ele>
        <time>2016-03-30T12:28:34Z</time>
      </trkpt>
      <trkpt lat="43.42476" lon="6.07908">
        <ele>251.60000610352</ele>
        <time>2016-03-30T12:28:39Z</time>
      </trkpt>
      <trkpt lat="43.42477" lon="6.07906">
        <ele>251.80000305176</ele>
        <time>2016-03-30T12:28:47Z</time>
      </trkpt>
      <trkpt lat="43.42477" lon="6.07902">
        <ele>252.19999694824</ele>
        <time>2016-03-30T12:28:53Z</time>
      </trkpt>
      <trkpt lat="43.42477" lon="6.07902">
        <ele>251.80000305176</ele>
        <time>2016-03-30T12:28:56Z</time>
      </trkpt>
      <trkpt lat="43.42477" lon="6.07901">
        <ele>252</ele>
        <time>2016-03-30T12:28:59Z</time>
      </trkpt>
      <trkpt lat="43.42477" lon="6.07901">
        <ele>252</ele>
        <time>2016-03-30T12:29:00Z</time>
      </trkpt>
      <trkpt lat="43.42477" lon="6.079">
        <ele>252.39999389648</ele>
        <time>2016-03-30T12:29:04Z</time>
      </trkpt>
      <trkpt lat="43.42477" lon="6.079">
        <ele>252.19999694824</ele>
        <time>2016-03-30T12:29:08Z</time>
      </trkpt>
      <trkpt lat="43.42478" lon="6.07899">
        <ele>252.60000610352</ele>
        <time>2016-03-30T12:29:10Z</time>
      </trkpt>
      <trkpt lat="43.4248" lon="6.07897">
        <ele>253</ele>
        <time>2016-03-30T12:29:12Z</time>
      </trkpt>
      <trkpt lat="43.4248" lon="6.07896">
        <ele>253.19999694824</ele>
        <time>2016-03-30T12:29:13Z</time>
      </trkpt>
      <trkpt lat="43.42483" lon="6.07893">
        <ele>253.80000305176</ele>
        <time>2016-03-30T12:29:20Z</time>
      </trkpt>
      <trkpt lat="43.42487" lon="6.0789">
        <ele>254</ele>
        <time>2016-03-30T12:29:27Z</time>
      </trkpt>
      <trkpt lat="43.42488" lon="6.0789">
        <ele>254</ele>
        <time>2016-03-30T12:29:28Z</time>
      </trkpt>
      <trkpt lat="43.42498" lon="6.07887">
        <ele>255.19999694824</ele>
        <time>2016-03-30T12:29:35Z</time>
      </trkpt>
      <trkpt lat="43.42502" lon="6.07885">
        <ele>255.39999389648</ele>
        <time>2016-03-30T12:29:38Z</time>
      </trkpt>
      <trkpt lat="43.42508" lon="6.07885">
        <ele>256</ele>
        <time>2016-03-30T12:29:42Z</time>
      </trkpt>
      <trkpt lat="43.4251" lon="6.07884">
        <ele>256.60000610352</ele>
        <time>2016-03-30T12:29:44Z</time>
      </trkpt>
      <trkpt lat="43.42514" lon="6.07884">
        <ele>257</ele>
        <time>2016-03-30T12:29:47Z</time>
      </trkpt>
      <trkpt lat="43.42518" lon="6.07883">
        <ele>257.60000610352</ele>
        <time>2016-03-30T12:29:50Z</time>
      </trkpt>
      <trkpt lat="43.42523" lon="6.0788">
        <ele>258</ele>
        <time>2016-03-30T12:29:54Z</time>
      </trkpt>
      <trkpt lat="43.42527" lon="6.07878">
        <ele>258.79998779297</ele>
        <time>2016-03-30T12:29:57Z</time>
      </trkpt>
      <trkpt lat="43.42532" lon="6.07877">
        <ele>259</ele>
        <time>2016-03-30T12:30:00Z</time>
      </trkpt>
      <trkpt lat="43.42536" lon="6.07876">
        <ele>259.79998779297</ele>
        <time>2016-03-30T12:30:04Z</time>
      </trkpt>
      <trkpt lat="43.42539" lon="6.07874">
        <ele>260.79998779297</ele>
        <time>2016-03-30T12:30:07Z</time>
      </trkpt>
      <trkpt lat="43.4254" lon="6.07875">
        <ele>261.20001220703</ele>
        <time>2016-03-30T12:30:08Z</time>
      </trkpt>
      <trkpt lat="43.42545" lon="6.07874">
        <ele>261.79998779297</ele>
        <time>2016-03-30T12:30:12Z</time>
      </trkpt>
      <trkpt lat="43.42546" lon="6.07874">
        <ele>262</ele>
        <time>2016-03-30T12:30:13Z</time>
      </trkpt>
      <trkpt lat="43.42548" lon="6.07874">
        <ele>262.79998779297</ele>
        <time>2016-03-30T12:30:15Z</time>
      </trkpt>
      <trkpt lat="43.42553" lon="6.07872">
        <ele>264</ele>
        <time>2016-03-30T12:30:19Z</time>
      </trkpt>
      <trkpt lat="43.42554" lon="6.07872">
        <ele>264.20001220703</ele>
        <time>2016-03-30T12:30:20Z</time>
      </trkpt>
      <trkpt lat="43.42555" lon="6.07871">
        <ele>264.39999389648</ele>
        <time>2016-03-30T12:30:21Z</time>
      </trkpt>
      <trkpt lat="43.42558" lon="6.07871">
        <ele>265.20001220703</ele>
        <time>2016-03-30T12:30:25Z</time>
      </trkpt>
      <trkpt lat="43.42559" lon="6.0787">
        <ele>265.20001220703</ele>
        <time>2016-03-30T12:30:26Z</time>
      </trkpt>
      <trkpt lat="43.4256" lon="6.0787">
        <ele>265.39999389648</ele>
        <time>2016-03-30T12:30:27Z</time>
      </trkpt>
      <trkpt lat="43.42566" lon="6.0787">
        <ele>266</ele>
        <time>2016-03-30T12:30:32Z</time>
      </trkpt>
      <trkpt lat="43.42567" lon="6.0787">
        <ele>266</ele>
        <time>2016-03-30T12:30:33Z</time>
      </trkpt>
      <trkpt lat="43.4257" lon="6.07869">
        <ele>266.20001220703</ele>
        <time>2016-03-30T12:30:35Z</time>
      </trkpt>
      <trkpt lat="43.42576" lon="6.0787">
        <ele>266.39999389648</ele>
        <time>2016-03-30T12:30:40Z</time>
      </trkpt>
      <trkpt lat="43.42583" lon="6.07871">
        <ele>266.79998779297</ele>
        <time>2016-03-30T12:30:45Z</time>
      </trkpt>
      <trkpt lat="43.42586" lon="6.07874">
        <ele>267</ele>
        <time>2016-03-30T12:30:48Z</time>
      </trkpt>
      <trkpt lat="43.42588" lon="6.07876">
        <ele>267.20001220703</ele>
        <time>2016-03-30T12:30:50Z</time>
      </trkpt>
      <trkpt lat="43.42596" lon="6.07881">
        <ele>268</ele>
        <time>2016-03-30T12:30:56Z</time>
      </trkpt>
      <trkpt lat="43.42599" lon="6.07882">
        <ele>268.39999389648</ele>
        <time>2016-03-30T12:30:59Z</time>
      </trkpt>
      <trkpt lat="43.42605" lon="6.07887">
        <ele>269.39999389648</ele>
        <time>2016-03-30T12:31:05Z</time>
      </trkpt>
      <trkpt lat="43.42608" lon="6.07889">
        <ele>270.60000610352</ele>
        <time>2016-03-30T12:31:08Z</time>
      </trkpt>
      <trkpt lat="43.42611" lon="6.0789">
        <ele>271.60000610352</ele>
        <time>2016-03-30T12:31:11Z</time>
      </trkpt>
      <trkpt lat="43.42612" lon="6.0789">
        <ele>271.60000610352</ele>
        <time>2016-03-30T12:31:12Z</time>
      </trkpt>
      <trkpt lat="43.42617" lon="6.07894">
        <ele>272.60000610352</ele>
        <time>2016-03-30T12:31:18Z</time>
      </trkpt>
      <trkpt lat="43.42618" lon="6.07894">
        <ele>272.79998779297</ele>
        <time>2016-03-30T12:31:19Z</time>
      </trkpt>
      <trkpt lat="43.42617" lon="6.07894">
        <ele>272.60000610352</ele>
        <time>2016-03-30T12:31:25Z</time>
      </trkpt>
      <trkpt lat="43.42618" lon="6.07895">
        <ele>272.60000610352</ele>
        <time>2016-03-30T12:31:27Z</time>
      </trkpt>
      <trkpt lat="43.42621" lon="6.07896">
        <ele>273</ele>
        <time>2016-03-30T12:31:32Z</time>
      </trkpt>
      <trkpt lat="43.42622" lon="6.07898">
        <ele>273.39999389648</ele>
        <time>2016-03-30T12:31:38Z</time>
      </trkpt>
      <trkpt lat="43.42624" lon="6.07899">
        <ele>273.60000610352</ele>
        <time>2016-03-30T12:31:43Z</time>
      </trkpt>
      <trkpt lat="43.42625" lon="6.07899">
        <ele>274.20001220703</ele>
        <time>2016-03-30T12:31:46Z</time>
      </trkpt>
      <trkpt lat="43.42628" lon="6.079">
        <ele>274.60000610352</ele>
        <time>2016-03-30T12:31:50Z</time>
      </trkpt>
      <trkpt lat="43.42629" lon="6.07901">
        <ele>275.20001220703</ele>
        <time>2016-03-30T12:31:53Z</time>
      </trkpt>
      <trkpt lat="43.42631" lon="6.07904">
        <ele>275.79998779297</ele>
        <time>2016-03-30T12:31:58Z</time>
      </trkpt>
      <trkpt lat="43.42632" lon="6.07905">
        <ele>276</ele>
        <time>2016-03-30T12:32:00Z</time>
      </trkpt>
      <trkpt lat="43.42635" lon="6.07909">
        <ele>276.79998779297</ele>
        <time>2016-03-30T12:32:07Z</time>
      </trkpt>
      <trkpt lat="43.42636" lon="6.0791">
        <ele>276.79998779297</ele>
        <time>2016-03-30T12:32:08Z</time>
      </trkpt>
      <trkpt lat="43.42636" lon="6.07912">
        <ele>276.60000610352</ele>
        <time>2016-03-30T12:32:14Z</time>
      </trkpt>
      <trkpt lat="43.42643" lon="6.07925">
        <ele>277.20001220703</ele>
        <time>2016-03-30T12:32:21Z</time>
      </trkpt>
      <trkpt lat="43.42649" lon="6.07932">
        <ele>277.79998779297</ele>
        <time>2016-03-30T12:32:26Z</time>
      </trkpt>
      <trkpt lat="43.42654" lon="6.07937">
        <ele>278.20001220703</ele>
        <time>2016-03-30T12:32:30Z</time>
      </trkpt>
      <trkpt lat="43.42659" lon="6.07941">
        <ele>279</ele>
        <time>2016-03-30T12:32:33Z</time>
      </trkpt>
      <trkpt lat="43.42666" lon="6.07946">
        <ele>279.60000610352</ele>
        <time>2016-03-30T12:32:38Z</time>
      </trkpt>
      <trkpt lat="43.42671" lon="6.07948">
        <ele>280</ele>
        <time>2016-03-30T12:32:41Z</time>
      </trkpt>
      <trkpt lat="43.42675" lon="6.07948">
        <ele>280.20001220703</ele>
        <time>2016-03-30T12:32:44Z</time>
      </trkpt>
      <trkpt lat="43.4268" lon="6.07948">
        <ele>281</ele>
        <time>2016-03-30T12:32:47Z</time>
      </trkpt>
      <trkpt lat="43.42686" lon="6.07948">
        <ele>281.79998779297</ele>
        <time>2016-03-30T12:32:52Z</time>
      </trkpt>
      <trkpt lat="43.42691" lon="6.07947">
        <ele>282.20001220703</ele>
        <time>2016-03-30T12:32:55Z</time>
      </trkpt>
      <trkpt lat="43.42696" lon="6.07948">
        <ele>282.60000610352</ele>
        <time>2016-03-30T12:32:59Z</time>
      </trkpt>
      <trkpt lat="43.42704" lon="6.07947">
        <ele>283.39999389648</ele>
        <time>2016-03-30T12:33:05Z</time>
      </trkpt>
      <trkpt lat="43.42707" lon="6.07947">
        <ele>283.60000610352</ele>
        <time>2016-03-30T12:33:07Z</time>
      </trkpt>
      <trkpt lat="43.42715" lon="6.07947">
        <ele>284.20001220703</ele>
        <time>2016-03-30T12:33:13Z</time>
      </trkpt>
      <trkpt lat="43.42716" lon="6.07947">
        <ele>284.39999389648</ele>
        <time>2016-03-30T12:33:14Z</time>
      </trkpt>
      <trkpt lat="43.42727" lon="6.07945">
        <ele>285</ele>
        <time>2016-03-30T12:33:22Z</time>
      </trkpt>
      <trkpt lat="43.42732" lon="6.07943">
        <ele>285.60000610352</ele>
        <time>2016-03-30T12:33:25Z</time>
      </trkpt>
      <trkpt lat="43.42739" lon="6.07937">
        <ele>285.79998779297</ele>
        <time>2016-03-30T12:33:31Z</time>
      </trkpt>
      <trkpt lat="43.42749" lon="6.07931">
        <ele>286.60000610352</ele>
        <time>2016-03-30T12:33:38Z</time>
      </trkpt>
      <trkpt lat="43.42757" lon="6.07921">
        <ele>287.20001220703</ele>
        <time>2016-03-30T12:33:46Z</time>
      </trkpt>
      <trkpt lat="43.42764" lon="6.07911">
        <ele>287.79998779297</ele>
        <time>2016-03-30T12:33:52Z</time>
      </trkpt>
      <trkpt lat="43.42766" lon="6.07909">
        <ele>288.39999389648</ele>
        <time>2016-03-30T12:33:54Z</time>
      </trkpt>
      <trkpt lat="43.42773" lon="6.07897">
        <ele>288.60000610352</ele>
        <time>2016-03-30T12:34:01Z</time>
      </trkpt>
      <trkpt lat="43.42774" lon="6.07895">
        <ele>288.60000610352</ele>
        <time>2016-03-30T12:34:02Z</time>
      </trkpt>
      <trkpt lat="43.42776" lon="6.07891">
        <ele>289.20001220703</ele>
        <time>2016-03-30T12:34:04Z</time>
      </trkpt>
      <trkpt lat="43.42779" lon="6.07887">
        <ele>290.20001220703</ele>
        <time>2016-03-30T12:34:06Z</time>
      </trkpt>
      <trkpt lat="43.42781" lon="6.07884">
        <ele>290.60000610352</ele>
        <time>2016-03-30T12:34:08Z</time>
      </trkpt>
      <trkpt lat="43.42786" lon="6.07877">
        <ele>290.79998779297</ele>
        <time>2016-03-30T12:34:13Z</time>
      </trkpt>
      <trkpt lat="43.42786" lon="6.07874">
        <ele>291.39999389648</ele>
        <time>2016-03-30T12:34:15Z</time>
      </trkpt>
      <trkpt lat="43.42787" lon="6.07873">
        <ele>291.60000610352</ele>
        <time>2016-03-30T12:34:16Z</time>
      </trkpt>
      <trkpt lat="43.42789" lon="6.07867">
        <ele>291.39999389648</ele>
        <time>2016-03-30T12:34:19Z</time>
      </trkpt>
      <trkpt lat="43.42793" lon="6.0786">
        <ele>292</ele>
        <time>2016-03-30T12:34:24Z</time>
      </trkpt>
      <trkpt lat="43.42798" lon="6.07858">
        <ele>292.20001220703</ele>
        <time>2016-03-30T12:34:29Z</time>
      </trkpt>
      <trkpt lat="43.428" lon="6.07858">
        <ele>292.20001220703</ele>
        <time>2016-03-30T12:34:31Z</time>
      </trkpt>
      <trkpt lat="43.42806" lon="6.07857">
        <ele>292.39999389648</ele>
        <time>2016-03-30T12:34:36Z</time>
      </trkpt>
      <trkpt lat="43.42808" lon="6.07857">
        <ele>292.79998779297</ele>
        <time>2016-03-30T12:34:38Z</time>
      </trkpt>
      <trkpt lat="43.42814" lon="6.07854">
        <ele>293</ele>
        <time>2016-03-30T12:34:43Z</time>
      </trkpt>
      <trkpt lat="43.42817" lon="6.07854">
        <ele>293</ele>
        <time>2016-03-30T12:34:46Z</time>
      </trkpt>
      <trkpt lat="43.42818" lon="6.07854">
        <ele>293.20001220703</ele>
        <time>2016-03-30T12:34:51Z</time>
      </trkpt>
      <trkpt lat="43.42818" lon="6.07854">
        <ele>293.20001220703</ele>
        <time>2016-03-30T12:34:52Z</time>
      </trkpt>
      <trkpt lat="43.42818" lon="6.07854">
        <ele>293.39999389648</ele>
        <time>2016-03-30T12:34:57Z</time>
      </trkpt>
      <trkpt lat="43.42818" lon="6.07854">
        <ele>293.39999389648</ele>
        <time>2016-03-30T12:35:05Z</time>
      </trkpt>
      <trkpt lat="43.42818" lon="6.07853">
        <ele>293.20001220703</ele>
        <time>2016-03-30T12:35:10Z</time>
      </trkpt>
      <trkpt lat="43.42818" lon="6.07853">
        <ele>293</ele>
        <time>2016-03-30T12:35:12Z</time>
      </trkpt>
      <trkpt lat="43.42818" lon="6.07853">
        <ele>293.39999389648</ele>
        <time>2016-03-30T12:35:14Z</time>
      </trkpt>
      <trkpt lat="43.42818" lon="6.07853">
        <ele>293.39999389648</ele>
        <time>2016-03-30T12:35:16Z</time>
      </trkpt>
      <trkpt lat="43.42818" lon="6.07853">
        <ele>293.39999389648</ele>
        <time>2016-03-30T12:35:19Z</time>
      </trkpt>
      <trkpt lat="43.42818" lon="6.07853">
        <ele>293.39999389648</ele>
        <time>2016-03-30T12:35:23Z</time>
      </trkpt>
      <trkpt lat="43.42818" lon="6.07853">
        <ele>293.39999389648</ele>
        <time>2016-03-30T12:35:31Z</time>
      </trkpt>
      <trkpt lat="43.42818" lon="6.07853">
        <ele>293.60000610352</ele>
        <time>2016-03-30T12:35:37Z</time>
      </trkpt>
      <trkpt lat="43.42818" lon="6.07853">
        <ele>293.39999389648</ele>
        <time>2016-03-30T12:35:45Z</time>
      </trkpt>
      <trkpt lat="43.42818" lon="6.07853">
        <ele>293.39999389648</ele>
        <time>2016-03-30T12:35:52Z</time>
      </trkpt>
      <trkpt lat="43.42818" lon="6.07853">
        <ele>293.79998779297</ele>
        <time>2016-03-30T12:36:09Z</time>
      </trkpt>
      <trkpt lat="43.42818" lon="6.07853">
        <ele>293.60000610352</ele>
        <time>2016-03-30T12:36:15Z</time>
      </trkpt>
      <trkpt lat="43.42818" lon="6.07853">
        <ele>293.60000610352</ele>
        <time>2016-03-30T12:36:24Z</time>
      </trkpt>
      <trkpt lat="43.42818" lon="6.07853">
        <ele>293.39999389648</ele>
        <time>2016-03-30T12:36:29Z</time>
      </trkpt>
      <trkpt lat="43.42818" lon="6.07853">
        <ele>293.79998779297</ele>
        <time>2016-03-30T12:36:36Z</time>
      </trkpt>
      <trkpt lat="43.42818" lon="6.07853">
        <ele>293.79998779297</ele>
        <time>2016-03-30T12:36:50Z</time>
      </trkpt>
      <trkpt lat="43.4282" lon="6.07853">
        <ele>294</ele>
        <time>2016-03-30T12:36:51Z</time>
      </trkpt>
      <trkpt lat="43.42833" lon="6.07853">
        <ele>294.39999389648</ele>
        <time>2016-03-30T12:36:58Z</time>
      </trkpt>
      <trkpt lat="43.42839" lon="6.07849">
        <ele>295.20001220703</ele>
        <time>2016-03-30T12:37:02Z</time>
      </trkpt>
      <trkpt lat="43.4284" lon="6.07848">
        <ele>295.20001220703</ele>
        <time>2016-03-30T12:37:03Z</time>
      </trkpt>
      <trkpt lat="43.42844" lon="6.07844">
        <ele>295.39999389648</ele>
        <time>2016-03-30T12:37:06Z</time>
      </trkpt>
      <trkpt lat="43.42847" lon="6.0784">
        <ele>296.20001220703</ele>
        <time>2016-03-30T12:37:09Z</time>
      </trkpt>
      <trkpt lat="43.4285" lon="6.07836">
        <ele>296.60000610352</ele>
        <time>2016-03-30T12:37:11Z</time>
      </trkpt>
      <trkpt lat="43.42854" lon="6.07829">
        <ele>297.39999389648</ele>
        <time>2016-03-30T12:37:15Z</time>
      </trkpt>
      <trkpt lat="43.42855" lon="6.07827">
        <ele>297.39999389648</ele>
        <time>2016-03-30T12:37:16Z</time>
      </trkpt>
      <trkpt lat="43.42857" lon="6.07824">
        <ele>298</ele>
        <time>2016-03-30T12:37:18Z</time>
      </trkpt>
      <trkpt lat="43.42863" lon="6.0782">
        <ele>298.39999389648</ele>
        <time>2016-03-30T12:37:22Z</time>
      </trkpt>
      <trkpt lat="43.42865" lon="6.07817">
        <ele>299</ele>
        <time>2016-03-30T12:37:24Z</time>
      </trkpt>
      <trkpt lat="43.42868" lon="6.07812">
        <ele>299.79998779297</ele>
        <time>2016-03-30T12:37:27Z</time>
      </trkpt>
      <trkpt lat="43.42869" lon="6.0781">
        <ele>300.20001220703</ele>
        <time>2016-03-30T12:37:28Z</time>
      </trkpt>
      <trkpt lat="43.42871" lon="6.07802">
        <ele>300.79998779297</ele>
        <time>2016-03-30T12:37:32Z</time>
      </trkpt>
      <trkpt lat="43.42871" lon="6.07798">
        <ele>301.39999389648</ele>
        <time>2016-03-30T12:37:34Z</time>
      </trkpt>
      <trkpt lat="43.42871" lon="6.07796">
        <ele>301.20001220703</ele>
        <time>2016-03-30T12:37:35Z</time>
      </trkpt>
      <trkpt lat="43.42871" lon="6.07792">
        <ele>301.60000610352</ele>
        <time>2016-03-30T12:37:37Z</time>
      </trkpt>
      <trkpt lat="43.42874" lon="6.07783">
        <ele>301.60000610352</ele>
        <time>2016-03-30T12:37:41Z</time>
      </trkpt>
      <trkpt lat="43.42877" lon="6.07772">
        <ele>302.39999389648</ele>
        <time>2016-03-30T12:37:47Z</time>
      </trkpt>
      <trkpt lat="43.4288" lon="6.07759">
        <ele>303.20001220703</ele>
        <time>2016-03-30T12:37:54Z</time>
      </trkpt>
      <trkpt lat="43.42882" lon="6.07756">
        <ele>303.60000610352</ele>
        <time>2016-03-30T12:37:56Z</time>
      </trkpt>
      <trkpt lat="43.42887" lon="6.07752">
        <ele>304.20001220703</ele>
        <time>2016-03-30T12:38:01Z</time>
      </trkpt>
      <trkpt lat="43.42896" lon="6.07747">
        <ele>304.79998779297</ele>
        <time>2016-03-30T12:38:09Z</time>
      </trkpt>
      <trkpt lat="43.42897" lon="6.07747">
        <ele>304.79998779297</ele>
        <time>2016-03-30T12:38:11Z</time>
      </trkpt>
      <trkpt lat="43.42899" lon="6.07747">
        <ele>304.79998779297</ele>
        <time>2016-03-30T12:38:12Z</time>
      </trkpt>
      <trkpt lat="43.42902" lon="6.07749">
        <ele>304.79998779297</ele>
        <time>2016-03-30T12:38:15Z</time>
      </trkpt>
      <trkpt lat="43.42903" lon="6.07749">
        <ele>304.79998779297</ele>
        <time>2016-03-30T12:38:16Z</time>
      </trkpt>
      <trkpt lat="43.42905" lon="6.0775">
        <ele>305</ele>
        <time>2016-03-30T12:38:21Z</time>
      </trkpt>
      <trkpt lat="43.42905" lon="6.0775">
        <ele>304.79998779297</ele>
        <time>2016-03-30T12:38:27Z</time>
      </trkpt>
      <trkpt lat="43.42905" lon="6.0775">
        <ele>304.60000610352</ele>
        <time>2016-03-30T12:38:33Z</time>
      </trkpt>
      <trkpt lat="43.42905" lon="6.0775">
        <ele>304.60000610352</ele>
        <time>2016-03-30T12:38:37Z</time>
      </trkpt>
      <trkpt lat="43.42905" lon="6.0775">
        <ele>304.79998779297</ele>
        <time>2016-03-30T12:38:41Z</time>
      </trkpt>
      <trkpt lat="43.42905" lon="6.0775">
        <ele>305</ele>
        <time>2016-03-30T12:38:45Z</time>
      </trkpt>
      <trkpt lat="43.42905" lon="6.0775">
        <ele>305.20001220703</ele>
        <time>2016-03-30T12:38:51Z</time>
      </trkpt>
      <trkpt lat="43.42905" lon="6.0775">
        <ele>305.20001220703</ele>
        <time>2016-03-30T12:38:56Z</time>
      </trkpt>
      <trkpt lat="43.42905" lon="6.0775">
        <ele>305.20001220703</ele>
        <time>2016-03-30T12:39:02Z</time>
      </trkpt>
      <trkpt lat="43.42905" lon="6.0775">
        <ele>305.20001220703</ele>
        <time>2016-03-30T12:39:08Z</time>
      </trkpt>
      <trkpt lat="43.42905" lon="6.0775">
        <ele>305.20001220703</ele>
        <time>2016-03-30T12:39:15Z</time>
      </trkpt>
      <trkpt lat="43.42905" lon="6.0775">
        <ele>305</ele>
        <time>2016-03-30T12:39:26Z</time>
      </trkpt>
      <trkpt lat="43.42905" lon="6.0775">
        <ele>305.39999389648</ele>
        <time>2016-03-30T12:39:40Z</time>
      </trkpt>
      <trkpt lat="43.42905" lon="6.0775">
        <ele>305.39999389648</ele>
        <time>2016-03-30T12:39:47Z</time>
      </trkpt>
      <trkpt lat="43.42905" lon="6.07751">
        <ele>305.20001220703</ele>
        <time>2016-03-30T12:40:02Z</time>
      </trkpt>
      <trkpt lat="43.42905" lon="6.07751">
        <ele>305.39999389648</ele>
        <time>2016-03-30T12:40:07Z</time>
      </trkpt>
      <trkpt lat="43.42905" lon="6.07751">
        <ele>304.79998779297</ele>
        <time>2016-03-30T12:40:15Z</time>
      </trkpt>
      <trkpt lat="43.42905" lon="6.07752">
        <ele>304.79998779297</ele>
        <time>2016-03-30T12:40:16Z</time>
      </trkpt>
      <trkpt lat="43.42906" lon="6.07753">
        <ele>304.79998779297</ele>
        <time>2016-03-30T12:40:17Z</time>
      </trkpt>
      <trkpt lat="43.42908" lon="6.07766">
        <ele>304.79998779297</ele>
        <time>2016-03-30T12:40:22Z</time>
      </trkpt>
      <trkpt lat="43.42912" lon="6.07781">
        <ele>305</ele>
        <time>2016-03-30T12:40:26Z</time>
      </trkpt>
      <trkpt lat="43.42914" lon="6.07792">
        <ele>304.60000610352</ele>
        <time>2016-03-30T12:40:28Z</time>
      </trkpt>
      <trkpt lat="43.42917" lon="6.07805">
        <ele>303.60000610352</ele>
        <time>2016-03-30T12:40:30Z</time>
      </trkpt>
      <trkpt lat="43.4292" lon="6.07821">
        <ele>302.39999389648</ele>
        <time>2016-03-30T12:40:32Z</time>
      </trkpt>
      <trkpt lat="43.42922" lon="6.07829">
        <ele>301.60000610352</ele>
        <time>2016-03-30T12:40:33Z</time>
      </trkpt>
      <trkpt lat="43.42924" lon="6.07837">
        <ele>301.39999389648</ele>
        <time>2016-03-30T12:40:34Z</time>
      </trkpt>
      <trkpt lat="43.42932" lon="6.07865">
        <ele>301</ele>
        <time>2016-03-30T12:40:38Z</time>
      </trkpt>
      <trkpt lat="43.42937" lon="6.07891">
        <ele>302.39999389648</ele>
        <time>2016-03-30T12:40:43Z</time>
      </trkpt>
      <trkpt lat="43.42939" lon="6.07896">
        <ele>302.60000610352</ele>
        <time>2016-03-30T12:40:44Z</time>
      </trkpt>
      <trkpt lat="43.42942" lon="6.07908">
        <ele>301.79998779297</ele>
        <time>2016-03-30T12:40:47Z</time>
      </trkpt>
      <trkpt lat="43.42945" lon="6.0792">
        <ele>302.60000610352</ele>
        <time>2016-03-30T12:40:50Z</time>
      </trkpt>
      <trkpt lat="43.42946" lon="6.07924">
        <ele>302.79998779297</ele>
        <time>2016-03-30T12:40:51Z</time>
      </trkpt>
      <trkpt lat="43.42949" lon="6.07937">
        <ele>303.79998779297</ele>
        <time>2016-03-30T12:40:54Z</time>
      </trkpt>
      <trkpt lat="43.42953" lon="6.07955">
        <ele>303.39999389648</ele>
        <time>2016-03-30T12:40:58Z</time>
      </trkpt>
      <trkpt lat="43.42966" lon="6.07998">
        <ele>303</ele>
        <time>2016-03-30T12:41:07Z</time>
      </trkpt>
      <trkpt lat="43.42967" lon="6.08002">
        <ele>302.79998779297</ele>
        <time>2016-03-30T12:41:08Z</time>
      </trkpt>
      <trkpt lat="43.42976" lon="6.08034">
        <ele>303.60000610352</ele>
        <time>2016-03-30T12:41:16Z</time>
      </trkpt>
      <trkpt lat="43.42981" lon="6.08051">
        <ele>303.79998779297</ele>
        <time>2016-03-30T12:41:22Z</time>
      </trkpt>
      <trkpt lat="43.42982" lon="6.08055">
        <ele>304.39999389648</ele>
        <time>2016-03-30T12:41:24Z</time>
      </trkpt>
      <trkpt lat="43.42985" lon="6.08068">
        <ele>305.20001220703</ele>
        <time>2016-03-30T12:41:30Z</time>
      </trkpt>
      <trkpt lat="43.42986" lon="6.08073">
        <ele>306.20001220703</ele>
        <time>2016-03-30T12:41:32Z</time>
      </trkpt>
      <trkpt lat="43.42988" lon="6.08081">
        <ele>306.79998779297</ele>
        <time>2016-03-30T12:41:36Z</time>
      </trkpt>
      <trkpt lat="43.42989" lon="6.08085">
        <ele>307.39999389648</ele>
        <time>2016-03-30T12:41:38Z</time>
      </trkpt>
      <trkpt lat="43.4299" lon="6.08089">
        <ele>308.79998779297</ele>
        <time>2016-03-30T12:41:41Z</time>
      </trkpt>
      <trkpt lat="43.42992" lon="6.08093">
        <ele>310</ele>
        <time>2016-03-30T12:41:43Z</time>
      </trkpt>
      <trkpt lat="43.42994" lon="6.08099">
        <ele>310.20001220703</ele>
        <time>2016-03-30T12:41:47Z</time>
      </trkpt>
      <trkpt lat="43.42995" lon="6.08103">
        <ele>311</ele>
        <time>2016-03-30T12:41:49Z</time>
      </trkpt>
      <trkpt lat="43.42996" lon="6.08106">
        <ele>311.60000610352</ele>
        <time>2016-03-30T12:41:51Z</time>
      </trkpt>
      <trkpt lat="43.42997" lon="6.08109">
        <ele>312</ele>
        <time>2016-03-30T12:41:53Z</time>
      </trkpt>
      <trkpt lat="43.42997" lon="6.0811">
        <ele>312.20001220703</ele>
        <time>2016-03-30T12:41:54Z</time>
      </trkpt>
      <trkpt lat="43.42999" lon="6.08118">
        <ele>313.39999389648</ele>
        <time>2016-03-30T12:41:59Z</time>
      </trkpt>
      <trkpt lat="43.42999" lon="6.08119">
        <ele>313.79998779297</ele>
        <time>2016-03-30T12:42:00Z</time>
      </trkpt>
      <trkpt lat="43.43" lon="6.08122">
        <ele>314.39999389648</ele>
        <time>2016-03-30T12:42:03Z</time>
      </trkpt>
      <trkpt lat="43.43002" lon="6.08126">
        <ele>315</ele>
        <time>2016-03-30T12:42:06Z</time>
      </trkpt>
      <trkpt lat="43.43002" lon="6.08129">
        <ele>315.60000610352</ele>
        <time>2016-03-30T12:42:09Z</time>
      </trkpt>
      <trkpt lat="43.43004" lon="6.08134">
        <ele>316.39999389648</ele>
        <time>2016-03-30T12:42:14Z</time>
      </trkpt>
      <trkpt lat="43.43006" lon="6.08136">
        <ele>316.60000610352</ele>
        <time>2016-03-30T12:42:17Z</time>
      </trkpt>
      <trkpt lat="43.43008" lon="6.08139">
        <ele>317</ele>
        <time>2016-03-30T12:42:20Z</time>
      </trkpt>
      <trkpt lat="43.43008" lon="6.0814">
        <ele>317.20001220703</ele>
        <time>2016-03-30T12:42:21Z</time>
      </trkpt>
      <trkpt lat="43.43009" lon="6.08143">
        <ele>317.79998779297</ele>
        <time>2016-03-30T12:42:24Z</time>
      </trkpt>
      <trkpt lat="43.43011" lon="6.08147">
        <ele>318.60000610352</ele>
        <time>2016-03-30T12:42:28Z</time>
      </trkpt>
      <trkpt lat="43.43012" lon="6.08148">
        <ele>318.79998779297</ele>
        <time>2016-03-30T12:42:30Z</time>
      </trkpt>
      <trkpt lat="43.43015" lon="6.08154">
        <ele>319.39999389648</ele>
        <time>2016-03-30T12:42:35Z</time>
      </trkpt>
      <trkpt lat="43.43016" lon="6.08156">
        <ele>319.60000610352</ele>
        <time>2016-03-30T12:42:37Z</time>
      </trkpt>
      <trkpt lat="43.43016" lon="6.08158">
        <ele>320.20001220703</ele>
        <time>2016-03-30T12:42:39Z</time>
      </trkpt>
      <trkpt lat="43.43019" lon="6.08163">
        <ele>320.79998779297</ele>
        <time>2016-03-30T12:42:44Z</time>
      </trkpt>
      <trkpt lat="43.4302" lon="6.08165">
        <ele>321.39999389648</ele>
        <time>2016-03-30T12:42:46Z</time>
      </trkpt>
      <trkpt lat="43.43023" lon="6.08172">
        <ele>321.79998779297</ele>
        <time>2016-03-30T12:42:52Z</time>
      </trkpt>
      <trkpt lat="43.43024" lon="6.08178">
        <ele>322.39999389648</ele>
        <time>2016-03-30T12:42:57Z</time>
      </trkpt>
      <trkpt lat="43.43025" lon="6.0818">
        <ele>322.79998779297</ele>
        <time>2016-03-30T12:43:00Z</time>
      </trkpt>
      <trkpt lat="43.43026" lon="6.08184">
        <ele>323</ele>
        <time>2016-03-30T12:43:03Z</time>
      </trkpt>
      <trkpt lat="43.43027" lon="6.08185">
        <ele>322.79998779297</ele>
        <time>2016-03-30T12:43:04Z</time>
      </trkpt>
      <trkpt lat="43.43027" lon="6.08188">
        <ele>322.60000610352</ele>
        <time>2016-03-30T12:43:07Z</time>
      </trkpt>
      <trkpt lat="43.43027" lon="6.08187">
        <ele>323</ele>
        <time>2016-03-30T12:43:14Z</time>
      </trkpt>
      <trkpt lat="43.43027" lon="6.08187">
        <ele>322.79998779297</ele>
        <time>2016-03-30T12:43:19Z</time>
      </trkpt>
      <trkpt lat="43.43027" lon="6.08187">
        <ele>323</ele>
        <time>2016-03-30T12:43:26Z</time>
      </trkpt>
      <trkpt lat="43.43027" lon="6.08187">
        <ele>323.20001220703</ele>
        <time>2016-03-30T12:43:32Z</time>
      </trkpt>
      <trkpt lat="43.43027" lon="6.08187">
        <ele>323</ele>
        <time>2016-03-30T12:43:34Z</time>
      </trkpt>
      <trkpt lat="43.43027" lon="6.08187">
        <ele>322.79998779297</ele>
        <time>2016-03-30T12:43:38Z</time>
      </trkpt>
      <trkpt lat="43.43027" lon="6.08187">
        <ele>322.79998779297</ele>
        <time>2016-03-30T12:43:42Z</time>
      </trkpt>
      <trkpt lat="43.43027" lon="6.08187">
        <ele>322.79998779297</ele>
        <time>2016-03-30T12:43:45Z</time>
      </trkpt>
      <trkpt lat="43.43027" lon="6.08187">
        <ele>323</ele>
        <time>2016-03-30T12:43:47Z</time>
      </trkpt>
      <trkpt lat="43.43027" lon="6.08187">
        <ele>323</ele>
        <time>2016-03-30T12:43:50Z</time>
      </trkpt>
      <trkpt lat="43.43027" lon="6.08187">
        <ele>323</ele>
        <time>2016-03-30T12:43:54Z</time>
      </trkpt>
      <trkpt lat="43.43027" lon="6.08187">
        <ele>322.79998779297</ele>
        <time>2016-03-30T12:44:02Z</time>
      </trkpt>
      <trkpt lat="43.43027" lon="6.08187">
        <ele>322.79998779297</ele>
        <time>2016-03-30T12:44:06Z</time>
      </trkpt>
      <trkpt lat="43.43027" lon="6.08187">
        <ele>322.79998779297</ele>
        <time>2016-03-30T12:44:13Z</time>
      </trkpt>
      <trkpt lat="43.43027" lon="6.08187">
        <ele>323</ele>
        <time>2016-03-30T12:44:22Z</time>
      </trkpt>
      <trkpt lat="43.43027" lon="6.08187">
        <ele>323</ele>
        <time>2016-03-30T12:44:25Z</time>
      </trkpt>
      <trkpt lat="43.43027" lon="6.08187">
        <ele>323.20001220703</ele>
        <time>2016-03-30T12:44:29Z</time>
      </trkpt>
      <trkpt lat="43.43027" lon="6.08188">
        <ele>323.20001220703</ele>
        <time>2016-03-30T12:44:35Z</time>
      </trkpt>
      <trkpt lat="43.43027" lon="6.08188">
        <ele>323.20001220703</ele>
        <time>2016-03-30T12:44:46Z</time>
      </trkpt>
      <trkpt lat="43.43027" lon="6.08188">
        <ele>322.79998779297</ele>
        <time>2016-03-30T12:45:00Z</time>
      </trkpt>
      <trkpt lat="43.43027" lon="6.08188">
        <ele>322.60000610352</ele>
        <time>2016-03-30T12:45:12Z</time>
      </trkpt>
      <trkpt lat="43.43028" lon="6.08189">
        <ele>322.60000610352</ele>
        <time>2016-03-30T12:45:23Z</time>
      </trkpt>
      <trkpt lat="43.43028" lon="6.08189">
        <ele>322.60000610352</ele>
        <time>2016-03-30T12:45:45Z</time>
      </trkpt>
      <trkpt lat="43.43028" lon="6.08188">
        <ele>322.60000610352</ele>
        <time>2016-03-30T12:45:49Z</time>
      </trkpt>
      <trkpt lat="43.43028" lon="6.08188">
        <ele>322.60000610352</ele>
        <time>2016-03-30T12:45:51Z</time>
      </trkpt>
      <trkpt lat="43.43028" lon="6.08189">
        <ele>322.39999389648</ele>
        <time>2016-03-30T12:45:56Z</time>
      </trkpt>
      <trkpt lat="43.43028" lon="6.08188">
        <ele>322.60000610352</ele>
        <time>2016-03-30T12:46:17Z</time>
      </trkpt>
      <trkpt lat="43.43028" lon="6.08188">
        <ele>322.39999389648</ele>
        <time>2016-03-30T12:46:25Z</time>
      </trkpt>
      <trkpt lat="43.4303" lon="6.08194">
        <ele>323</ele>
        <time>2016-03-30T12:46:35Z</time>
      </trkpt>
      <trkpt lat="43.43034" lon="6.08211">
        <ele>322.20001220703</ele>
        <time>2016-03-30T12:46:42Z</time>
      </trkpt>
      <trkpt lat="43.43038" lon="6.08231">
        <ele>320.20001220703</ele>
        <time>2016-03-30T12:46:47Z</time>
      </trkpt>
      <trkpt lat="43.4304" lon="6.0824">
        <ele>319.20001220703</ele>
        <time>2016-03-30T12:46:49Z</time>
      </trkpt>
      <trkpt lat="43.43043" lon="6.08253">
        <ele>318</ele>
        <time>2016-03-30T12:46:52Z</time>
      </trkpt>
      <trkpt lat="43.43044" lon="6.08263">
        <ele>317.39999389648</ele>
        <time>2016-03-30T12:46:54Z</time>
      </trkpt>
      <trkpt lat="43.43044" lon="6.08268">
        <ele>316.79998779297</ele>
        <time>2016-03-30T12:46:55Z</time>
      </trkpt>
      <trkpt lat="43.43047" lon="6.08281">
        <ele>315.60000610352</ele>
        <time>2016-03-30T12:46:58Z</time>
      </trkpt>
      <trkpt lat="43.43049" lon="6.08286">
        <ele>314.60000610352</ele>
        <time>2016-03-30T12:46:59Z</time>
      </trkpt>
      <trkpt lat="43.43051" lon="6.0829">
        <ele>313.39999389648</ele>
        <time>2016-03-30T12:47:00Z</time>
      </trkpt>
      <trkpt lat="43.43056" lon="6.08309">
        <ele>313</ele>
        <time>2016-03-30T12:47:03Z</time>
      </trkpt>
      <trkpt lat="43.43058" lon="6.08316">
        <ele>311.79998779297</ele>
        <time>2016-03-30T12:47:04Z</time>
      </trkpt>
      <trkpt lat="43.4306" lon="6.08325">
        <ele>310.39999389648</ele>
        <time>2016-03-30T12:47:05Z</time>
      </trkpt>
      <trkpt lat="43.43063" lon="6.08332">
        <ele>309.39999389648</ele>
        <time>2016-03-30T12:47:06Z</time>
      </trkpt>
      <trkpt lat="43.43066" lon="6.08339">
        <ele>308.39999389648</ele>
        <time>2016-03-30T12:47:07Z</time>
      </trkpt>
      <trkpt lat="43.43073" lon="6.08351">
        <ele>307.60000610352</ele>
        <time>2016-03-30T12:47:09Z</time>
      </trkpt>
      <trkpt lat="43.43085" lon="6.08376">
        <ele>308</ele>
        <time>2016-03-30T12:47:14Z</time>
      </trkpt>
      <trkpt lat="43.43087" lon="6.08382">
        <ele>308.20001220703</ele>
        <time>2016-03-30T12:47:15Z</time>
      </trkpt>
      <trkpt lat="43.4309" lon="6.08404">
        <ele>306.60000610352</ele>
        <time>2016-03-30T12:47:18Z</time>
      </trkpt>
      <trkpt lat="43.43092" lon="6.08421">
        <ele>307.60000610352</ele>
        <time>2016-03-30T12:47:20Z</time>
      </trkpt>
      <trkpt lat="43.43093" lon="6.08428">
        <ele>308</ele>
        <time>2016-03-30T12:47:21Z</time>
      </trkpt>
      <trkpt lat="43.43095" lon="6.08444">
        <ele>308.39999389648</ele>
        <time>2016-03-30T12:47:24Z</time>
      </trkpt>
      <trkpt lat="43.431" lon="6.08465">
        <ele>309.20001220703</ele>
        <time>2016-03-30T12:47:28Z</time>
      </trkpt>
      <trkpt lat="43.43102" lon="6.08474">
        <ele>308.60000610352</ele>
        <time>2016-03-30T12:47:30Z</time>
      </trkpt>
      <trkpt lat="43.43106" lon="6.08485">
        <ele>309.60000610352</ele>
        <time>2016-03-30T12:47:33Z</time>
      </trkpt>
      <trkpt lat="43.43106" lon="6.08488">
        <ele>310.20001220703</ele>
        <time>2016-03-30T12:47:34Z</time>
      </trkpt>
      <trkpt lat="43.4311" lon="6.08497">
        <ele>311.20001220703</ele>
        <time>2016-03-30T12:47:37Z</time>
      </trkpt>
      <trkpt lat="43.43111" lon="6.085">
        <ele>311.39999389648</ele>
        <time>2016-03-30T12:47:38Z</time>
      </trkpt>
      <trkpt lat="43.43114" lon="6.08508">
        <ele>312</ele>
        <time>2016-03-30T12:47:41Z</time>
      </trkpt>
      <trkpt lat="43.43116" lon="6.08513">
        <ele>313</ele>
        <time>2016-03-30T12:47:43Z</time>
      </trkpt>
      <trkpt lat="43.43118" lon="6.08517">
        <ele>313.60000610352</ele>
        <time>2016-03-30T12:47:45Z</time>
      </trkpt>
      <trkpt lat="43.43121" lon="6.08522">
        <ele>314.20001220703</ele>
        <time>2016-03-30T12:47:48Z</time>
      </trkpt>
      <trkpt lat="43.43125" lon="6.08528">
        <ele>315.20001220703</ele>
        <time>2016-03-30T12:47:52Z</time>
      </trkpt>
      <trkpt lat="43.43126" lon="6.08529">
        <ele>315.39999389648</ele>
        <time>2016-03-30T12:47:53Z</time>
      </trkpt>
      <trkpt lat="43.43133" lon="6.08537">
        <ele>316.20001220703</ele>
        <time>2016-03-30T12:47:59Z</time>
      </trkpt>
      <trkpt lat="43.43133" lon="6.08539">
        <ele>316.39999389648</ele>
        <time>2016-03-30T12:48:00Z</time>
      </trkpt>
      <trkpt lat="43.43134" lon="6.0854">
        <ele>316.60000610352</ele>
        <time>2016-03-30T12:48:01Z</time>
      </trkpt>
      <trkpt lat="43.4314" lon="6.0855">
        <ele>316.79998779297</ele>
        <time>2016-03-30T12:48:08Z</time>
      </trkpt>
      <trkpt lat="43.43142" lon="6.08552">
        <ele>317</ele>
        <time>2016-03-30T12:48:14Z</time>
      </trkpt>
      <trkpt lat="43.43142" lon="6.08552">
        <ele>316.79998779297</ele>
        <time>2016-03-30T12:48:27Z</time>
      </trkpt>
      <trkpt lat="43.43142" lon="6.08552">
        <ele>316.60000610352</ele>
        <time>2016-03-30T12:48:30Z</time>
      </trkpt>
      <trkpt lat="43.43142" lon="6.08552">
        <ele>317</ele>
        <time>2016-03-30T12:48:34Z</time>
      </trkpt>
      <trkpt lat="43.43142" lon="6.08552">
        <ele>317</ele>
        <time>2016-03-30T12:48:39Z</time>
      </trkpt>
      <trkpt lat="43.43142" lon="6.08552">
        <ele>316.79998779297</ele>
        <time>2016-03-30T12:48:44Z</time>
      </trkpt>
      <trkpt lat="43.43142" lon="6.08552">
        <ele>316.60000610352</ele>
        <time>2016-03-30T12:48:50Z</time>
      </trkpt>
      <trkpt lat="43.43142" lon="6.08552">
        <ele>316.79998779297</ele>
        <time>2016-03-30T12:48:53Z</time>
      </trkpt>
      <trkpt lat="43.43142" lon="6.08552">
        <ele>316.60000610352</ele>
        <time>2016-03-30T12:48:57Z</time>
      </trkpt>
      <trkpt lat="43.43142" lon="6.08552">
        <ele>316.60000610352</ele>
        <time>2016-03-30T12:48:59Z</time>
      </trkpt>
      <trkpt lat="43.43142" lon="6.08552">
        <ele>316.79998779297</ele>
        <time>2016-03-30T12:49:02Z</time>
      </trkpt>
      <trkpt lat="43.43142" lon="6.08552">
        <ele>316.79998779297</ele>
        <time>2016-03-30T12:49:07Z</time>
      </trkpt>
      <trkpt lat="43.43142" lon="6.08552">
        <ele>316.60000610352</ele>
        <time>2016-03-30T12:49:12Z</time>
      </trkpt>
      <trkpt lat="43.43142" lon="6.08552">
        <ele>316.79998779297</ele>
        <time>2016-03-30T12:49:16Z</time>
      </trkpt>
      <trkpt lat="43.43142" lon="6.08552">
        <ele>316.60000610352</ele>
        <time>2016-03-30T12:49:24Z</time>
      </trkpt>
      <trkpt lat="43.43142" lon="6.08552">
        <ele>316.39999389648</ele>
        <time>2016-03-30T12:49:55Z</time>
      </trkpt>
      <trkpt lat="43.43142" lon="6.08553">
        <ele>316.39999389648</ele>
        <time>2016-03-30T12:50:18Z</time>
      </trkpt>
      <trkpt lat="43.43142" lon="6.08553">
        <ele>316.60000610352</ele>
        <time>2016-03-30T12:50:30Z</time>
      </trkpt>
      <trkpt lat="43.43142" lon="6.08553">
        <ele>316.60000610352</ele>
        <time>2016-03-30T12:50:36Z</time>
      </trkpt>
      <trkpt lat="43.43143" lon="6.08554">
        <ele>316.60000610352</ele>
        <time>2016-03-30T12:50:38Z</time>
      </trkpt>
      <trkpt lat="43.43145" lon="6.0856">
        <ele>316.79998779297</ele>
        <time>2016-03-30T12:50:41Z</time>
      </trkpt>
      <trkpt lat="43.43156" lon="6.08579">
        <ele>317</ele>
        <time>2016-03-30T12:50:49Z</time>
      </trkpt>
      <trkpt lat="43.4316" lon="6.08589">
        <ele>317.79998779297</ele>
        <time>2016-03-30T12:50:52Z</time>
      </trkpt>
      <trkpt lat="43.43163" lon="6.08601">
        <ele>317.79998779297</ele>
        <time>2016-03-30T12:50:55Z</time>
      </trkpt>
      <trkpt lat="43.43166" lon="6.08611">
        <ele>316.60000610352</ele>
        <time>2016-03-30T12:50:57Z</time>
      </trkpt>
      <trkpt lat="43.43169" lon="6.08623">
        <ele>316.39999389648</ele>
        <time>2016-03-30T12:50:59Z</time>
      </trkpt>
      <trkpt lat="43.43172" lon="6.08635">
        <ele>316.20001220703</ele>
        <time>2016-03-30T12:51:01Z</time>
      </trkpt>
      <trkpt lat="43.43177" lon="6.08654">
        <ele>315.79998779297</ele>
        <time>2016-03-30T12:51:04Z</time>
      </trkpt>
      <trkpt lat="43.43181" lon="6.08674">
        <ele>315.39999389648</ele>
        <time>2016-03-30T12:51:07Z</time>
      </trkpt>
      <trkpt lat="43.43187" lon="6.087">
        <ele>316</ele>
        <time>2016-03-30T12:51:11Z</time>
      </trkpt>
      <trkpt lat="43.43193" lon="6.08717">
        <ele>316.20001220703</ele>
        <time>2016-03-30T12:51:14Z</time>
      </trkpt>
      <trkpt lat="43.43195" lon="6.08727">
        <ele>316.20001220703</ele>
        <time>2016-03-30T12:51:16Z</time>
      </trkpt>
      <trkpt lat="43.43197" lon="6.08732">
        <ele>317</ele>
        <time>2016-03-30T12:51:17Z</time>
      </trkpt>
      <trkpt lat="43.43201" lon="6.08746">
        <ele>316.79998779297</ele>
        <time>2016-03-30T12:51:20Z</time>
      </trkpt>
      <trkpt lat="43.43203" lon="6.08753">
        <ele>318.20001220703</ele>
        <time>2016-03-30T12:51:22Z</time>
      </trkpt>
      <trkpt lat="43.43204" lon="6.08759">
        <ele>319.60000610352</ele>
        <time>2016-03-30T12:51:24Z</time>
      </trkpt>
      <trkpt lat="43.43206" lon="6.08768">
        <ele>320.39999389648</ele>
        <time>2016-03-30T12:51:27Z</time>
      </trkpt>
      <trkpt lat="43.43207" lon="6.08771">
        <ele>320.79998779297</ele>
        <time>2016-03-30T12:51:28Z</time>
      </trkpt>
      <trkpt lat="43.43208" lon="6.08774">
        <ele>321</ele>
        <time>2016-03-30T12:51:29Z</time>
      </trkpt>
      <trkpt lat="43.4321" lon="6.08782">
        <ele>321.60000610352</ele>
        <time>2016-03-30T12:51:32Z</time>
      </trkpt>
      <trkpt lat="43.43213" lon="6.08789">
        <ele>322</ele>
        <time>2016-03-30T12:51:35Z</time>
      </trkpt>
      <trkpt lat="43.43214" lon="6.08794">
        <ele>322.39999389648</ele>
        <time>2016-03-30T12:51:37Z</time>
      </trkpt>
      <trkpt lat="43.43215" lon="6.088">
        <ele>323.20001220703</ele>
        <time>2016-03-30T12:51:40Z</time>
      </trkpt>
      <trkpt lat="43.43217" lon="6.08807">
        <ele>324.39999389648</ele>
        <time>2016-03-30T12:51:44Z</time>
      </trkpt>
      <trkpt lat="43.4322" lon="6.08818">
        <ele>325.39999389648</ele>
        <time>2016-03-30T12:51:51Z</time>
      </trkpt>
      <trkpt lat="43.43221" lon="6.08819">
        <ele>326</ele>
        <time>2016-03-30T12:51:52Z</time>
      </trkpt>
      <trkpt lat="43.43223" lon="6.08832">
        <ele>327</ele>
        <time>2016-03-30T12:52:00Z</time>
      </trkpt>
      <trkpt lat="43.43224" lon="6.08833">
        <ele>327.20001220703</ele>
        <time>2016-03-30T12:52:01Z</time>
      </trkpt>
      <trkpt lat="43.43225" lon="6.08839">
        <ele>327.20001220703</ele>
        <time>2016-03-30T12:52:05Z</time>
      </trkpt>
      <trkpt lat="43.43226" lon="6.08845">
        <ele>327.60000610352</ele>
        <time>2016-03-30T12:52:09Z</time>
      </trkpt>
      <trkpt lat="43.43229" lon="6.08851">
        <ele>327.79998779297</ele>
        <time>2016-03-30T12:52:15Z</time>
      </trkpt>
      <trkpt lat="43.43229" lon="6.08851">
        <ele>327.60000610352</ele>
        <time>2016-03-30T12:52:35Z</time>
      </trkpt>
      <trkpt lat="43.43229" lon="6.08851">
        <ele>327.60000610352</ele>
        <time>2016-03-30T12:52:43Z</time>
      </trkpt>
      <trkpt lat="43.43229" lon="6.08851">
        <ele>327.60000610352</ele>
        <time>2016-03-30T12:52:48Z</time>
      </trkpt>
      <trkpt lat="43.43229" lon="6.08851">
        <ele>327.60000610352</ele>
        <time>2016-03-30T12:52:52Z</time>
      </trkpt>
      <trkpt lat="43.43229" lon="6.08851">
        <ele>327.60000610352</ele>
        <time>2016-03-30T12:52:55Z</time>
      </trkpt>
      <trkpt lat="43.43229" lon="6.08851">
        <ele>327.39999389648</ele>
        <time>2016-03-30T12:52:58Z</time>
      </trkpt>
      <trkpt lat="43.43229" lon="6.08851">
        <ele>327.79998779297</ele>
        <time>2016-03-30T12:53:02Z</time>
      </trkpt>
      <trkpt lat="43.43229" lon="6.08851">
        <ele>327.60000610352</ele>
        <time>2016-03-30T12:53:09Z</time>
      </trkpt>
      <trkpt lat="43.43229" lon="6.08851">
        <ele>327.39999389648</ele>
        <time>2016-03-30T12:53:12Z</time>
      </trkpt>
      <trkpt lat="43.43229" lon="6.08851">
        <ele>327.79998779297</ele>
        <time>2016-03-30T12:53:19Z</time>
      </trkpt>
      <trkpt lat="43.43229" lon="6.08851">
        <ele>327.39999389648</ele>
        <time>2016-03-30T12:53:27Z</time>
      </trkpt>
      <trkpt lat="43.43229" lon="6.0885">
        <ele>327.79998779297</ele>
        <time>2016-03-30T12:53:33Z</time>
      </trkpt>
      <trkpt lat="43.43229" lon="6.0885">
        <ele>328</ele>
        <time>2016-03-30T12:53:36Z</time>
      </trkpt>
      <trkpt lat="43.43229" lon="6.08851">
        <ele>327.60000610352</ele>
        <time>2016-03-30T12:53:52Z</time>
      </trkpt>
      <trkpt lat="43.43229" lon="6.08851">
        <ele>328</ele>
        <time>2016-03-30T12:53:57Z</time>
      </trkpt>
      <trkpt lat="43.43229" lon="6.08851">
        <ele>327.79998779297</ele>
        <time>2016-03-30T12:54:07Z</time>
      </trkpt>
      <trkpt lat="43.43228" lon="6.08851">
        <ele>327.79998779297</ele>
        <time>2016-03-30T12:54:21Z</time>
      </trkpt>
      <trkpt lat="43.43229" lon="6.08851">
        <ele>328</ele>
        <time>2016-03-30T12:54:26Z</time>
      </trkpt>
      <trkpt lat="43.43229" lon="6.08852">
        <ele>328</ele>
        <time>2016-03-30T12:54:31Z</time>
      </trkpt>
      <trkpt lat="43.43229" lon="6.08851">
        <ele>327.79998779297</ele>
        <time>2016-03-30T12:54:35Z</time>
      </trkpt>
      <trkpt lat="43.43229" lon="6.08852">
        <ele>327.79998779297</ele>
        <time>2016-03-30T12:54:37Z</time>
      </trkpt>
      <trkpt lat="43.4323" lon="6.08856">
        <ele>328</ele>
        <time>2016-03-30T12:54:39Z</time>
      </trkpt>
      <trkpt lat="43.4323" lon="6.08859">
        <ele>328</ele>
        <time>2016-03-30T12:54:40Z</time>
      </trkpt>
      <trkpt lat="43.4323" lon="6.08862">
        <ele>328</ele>
        <time>2016-03-30T12:54:41Z</time>
      </trkpt>
      <trkpt lat="43.43234" lon="6.08879">
        <ele>328.20001220703</ele>
        <time>2016-03-30T12:54:46Z</time>
      </trkpt>
      <trkpt lat="43.43239" lon="6.08905">
        <ele>328.20001220703</ele>
        <time>2016-03-30T12:54:52Z</time>
      </trkpt>
      <trkpt lat="43.4324" lon="6.08909">
        <ele>328.39999389648</ele>
        <time>2016-03-30T12:54:53Z</time>
      </trkpt>
      <trkpt lat="43.43248" lon="6.08947">
        <ele>328.39999389648</ele>
        <time>2016-03-30T12:55:01Z</time>
      </trkpt>
      <trkpt lat="43.43251" lon="6.08977">
        <ele>328.39999389648</ele>
        <time>2016-03-30T12:55:07Z</time>
      </trkpt>
      <trkpt lat="43.43252" lon="6.08983">
        <ele>328</ele>
        <time>2016-03-30T12:55:08Z</time>
      </trkpt>
      <trkpt lat="43.43253" lon="6.09002">
        <ele>327.20001220703</ele>
        <time>2016-03-30T12:55:11Z</time>
      </trkpt>
      <trkpt lat="43.43253" lon="6.09008">
        <ele>327</ele>
        <time>2016-03-30T12:55:12Z</time>
      </trkpt>
      <trkpt lat="43.43255" lon="6.09021">
        <ele>325.60000610352</ele>
        <time>2016-03-30T12:55:14Z</time>
      </trkpt>
      <trkpt lat="43.43256" lon="6.09032">
        <ele>324.60000610352</ele>
        <time>2016-03-30T12:55:16Z</time>
      </trkpt>
      <trkpt lat="43.43256" lon="6.09036">
        <ele>324.39999389648</ele>
        <time>2016-03-30T12:55:17Z</time>
      </trkpt>
      <trkpt lat="43.43256" lon="6.09039">
        <ele>324</ele>
        <time>2016-03-30T12:55:18Z</time>
      </trkpt>
      <trkpt lat="43.43256" lon="6.09043">
        <ele>323.39999389648</ele>
        <time>2016-03-30T12:55:19Z</time>
      </trkpt>
      <trkpt lat="43.43253" lon="6.0905">
        <ele>322.20001220703</ele>
        <time>2016-03-30T12:55:21Z</time>
      </trkpt>
      <trkpt lat="43.43252" lon="6.09053">
        <ele>321</ele>
        <time>2016-03-30T12:55:22Z</time>
      </trkpt>
      <trkpt lat="43.4325" lon="6.09059">
        <ele>319.60000610352</ele>
        <time>2016-03-30T12:55:24Z</time>
      </trkpt>
      <trkpt lat="43.43247" lon="6.09066">
        <ele>317.79998779297</ele>
        <time>2016-03-30T12:55:26Z</time>
      </trkpt>
      <trkpt lat="43.43244" lon="6.09069">
        <ele>316</ele>
        <time>2016-03-30T12:55:27Z</time>
      </trkpt>
      <trkpt lat="43.43237" lon="6.09076">
        <ele>316.60000610352</ele>
        <time>2016-03-30T12:55:29Z</time>
      </trkpt>
      <trkpt lat="43.43228" lon="6.09084">
        <ele>315.60000610352</ele>
        <time>2016-03-30T12:55:31Z</time>
      </trkpt>
      <trkpt lat="43.4322" lon="6.09093">
        <ele>315</ele>
        <time>2016-03-30T12:55:33Z</time>
      </trkpt>
      <trkpt lat="43.43212" lon="6.09101">
        <ele>315.60000610352</ele>
        <time>2016-03-30T12:55:36Z</time>
      </trkpt>
      <trkpt lat="43.43212" lon="6.09103">
        <ele>315.60000610352</ele>
        <time>2016-03-30T12:55:37Z</time>
      </trkpt>
      <trkpt lat="43.43212" lon="6.09104">
        <ele>315.39999389648</ele>
        <time>2016-03-30T12:55:39Z</time>
      </trkpt>
      <trkpt lat="43.43212" lon="6.09105">
        <ele>315.20001220703</ele>
        <time>2016-03-30T12:55:53Z</time>
      </trkpt>
      <trkpt lat="43.43213" lon="6.09107">
        <ele>315.60000610352</ele>
        <time>2016-03-30T12:56:10Z</time>
      </trkpt>
      <trkpt lat="43.43214" lon="6.0911">
        <ele>315.39999389648</ele>
        <time>2016-03-30T12:56:11Z</time>
      </trkpt>
      <trkpt lat="43.43221" lon="6.09126">
        <ele>315.60000610352</ele>
        <time>2016-03-30T12:56:16Z</time>
      </trkpt>
      <trkpt lat="43.43243" lon="6.09151">
        <ele>314.79998779297</ele>
        <time>2016-03-30T12:56:23Z</time>
      </trkpt>
      <trkpt lat="43.43252" lon="6.09152">
        <ele>314</ele>
        <time>2016-03-30T12:56:25Z</time>
      </trkpt>
      <trkpt lat="43.43261" lon="6.09153">
        <ele>314.60000610352</ele>
        <time>2016-03-30T12:56:27Z</time>
      </trkpt>
      <trkpt lat="43.43271" lon="6.09154">
        <ele>314.20001220703</ele>
        <time>2016-03-30T12:56:29Z</time>
      </trkpt>
      <trkpt lat="43.43286" lon="6.09156">
        <ele>313.20001220703</ele>
        <time>2016-03-30T12:56:32Z</time>
      </trkpt>
      <trkpt lat="43.4329" lon="6.09158">
        <ele>313.79998779297</ele>
        <time>2016-03-30T12:56:33Z</time>
      </trkpt>
      <trkpt lat="43.43298" lon="6.09166">
        <ele>313.20001220703</ele>
        <time>2016-03-30T12:56:35Z</time>
      </trkpt>
      <trkpt lat="43.43301" lon="6.0917">
        <ele>312.79998779297</ele>
        <time>2016-03-30T12:56:36Z</time>
      </trkpt>
      <trkpt lat="43.43303" lon="6.09176">
        <ele>311.39999389648</ele>
        <time>2016-03-30T12:56:37Z</time>
      </trkpt>
      <trkpt lat="43.43305" lon="6.09183">
        <ele>309.79998779297</ele>
        <time>2016-03-30T12:56:38Z</time>
      </trkpt>
      <trkpt lat="43.43306" lon="6.0919">
        <ele>309</ele>
        <time>2016-03-30T12:56:39Z</time>
      </trkpt>
      <trkpt lat="43.43308" lon="6.09198">
        <ele>308.79998779297</ele>
        <time>2016-03-30T12:56:40Z</time>
      </trkpt>
      <trkpt lat="43.43309" lon="6.09207">
        <ele>308.79998779297</ele>
        <time>2016-03-30T12:56:41Z</time>
      </trkpt>
      <trkpt lat="43.43312" lon="6.09233">
        <ele>306.79998779297</ele>
        <time>2016-03-30T12:56:44Z</time>
      </trkpt>
      <trkpt lat="43.43312" lon="6.09241">
        <ele>305.79998779297</ele>
        <time>2016-03-30T12:56:45Z</time>
      </trkpt>
      <trkpt lat="43.43307" lon="6.09248">
        <ele>304.79998779297</ele>
        <time>2016-03-30T12:56:47Z</time>
      </trkpt>
      <trkpt lat="43.43305" lon="6.09249">
        <ele>304.60000610352</ele>
        <time>2016-03-30T12:56:48Z</time>
      </trkpt>
      <trkpt lat="43.43295" lon="6.09252">
        <ele>304.79998779297</ele>
        <time>2016-03-30T12:56:51Z</time>
      </trkpt>
      <trkpt lat="43.43285" lon="6.09257">
        <ele>302.39999389648</ele>
        <time>2016-03-30T12:56:54Z</time>
      </trkpt>
      <trkpt lat="43.43281" lon="6.09259">
        <ele>301.20001220703</ele>
        <time>2016-03-30T12:56:55Z</time>
      </trkpt>
      <trkpt lat="43.43278" lon="6.09261">
        <ele>300.39999389648</ele>
        <time>2016-03-30T12:56:56Z</time>
      </trkpt>
      <trkpt lat="43.43275" lon="6.09264">
        <ele>300</ele>
        <time>2016-03-30T12:56:57Z</time>
      </trkpt>
      <trkpt lat="43.43268" lon="6.0927">
        <ele>299</ele>
        <time>2016-03-30T12:56:59Z</time>
      </trkpt>
      <trkpt lat="43.43265" lon="6.09275">
        <ele>298</ele>
        <time>2016-03-30T12:57:00Z</time>
      </trkpt>
      <trkpt lat="43.43262" lon="6.0929">
        <ele>296.79998779297</ele>
        <time>2016-03-30T12:57:02Z</time>
      </trkpt>
      <trkpt lat="43.43261" lon="6.093">
        <ele>296.39999389648</ele>
        <time>2016-03-30T12:57:03Z</time>
      </trkpt>
      <trkpt lat="43.4326" lon="6.09308">
        <ele>295.60000610352</ele>
        <time>2016-03-30T12:57:04Z</time>
      </trkpt>
      <trkpt lat="43.43258" lon="6.09317">
        <ele>294.60000610352</ele>
        <time>2016-03-30T12:57:05Z</time>
      </trkpt>
      <trkpt lat="43.43256" lon="6.09324">
        <ele>294.20001220703</ele>
        <time>2016-03-30T12:57:06Z</time>
      </trkpt>
      <trkpt lat="43.43251" lon="6.0934">
        <ele>293.20001220703</ele>
        <time>2016-03-30T12:57:08Z</time>
      </trkpt>
      <trkpt lat="43.43249" lon="6.09357">
        <ele>292.20001220703</ele>
        <time>2016-03-30T12:57:10Z</time>
      </trkpt>
      <trkpt lat="43.43249" lon="6.0937">
        <ele>291.20001220703</ele>
        <time>2016-03-30T12:57:12Z</time>
      </trkpt>
      <trkpt lat="43.43251" lon="6.09375">
        <ele>290.20001220703</ele>
        <time>2016-03-30T12:57:15Z</time>
      </trkpt>
      <trkpt lat="43.43252" lon="6.09376">
        <ele>290.20001220703</ele>
        <time>2016-03-30T12:57:20Z</time>
      </trkpt>
      <trkpt lat="43.43252" lon="6.09376">
        <ele>290.20001220703</ele>
        <time>2016-03-30T12:57:50Z</time>
      </trkpt>
      <trkpt lat="43.43253" lon="6.09376">
        <ele>290</ele>
        <time>2016-03-30T12:58:09Z</time>
      </trkpt>
      <trkpt lat="43.43253" lon="6.09376">
        <ele>290.20001220703</ele>
        <time>2016-03-30T12:58:13Z</time>
      </trkpt>
      <trkpt lat="43.43253" lon="6.09377">
        <ele>289.79998779297</ele>
        <time>2016-03-30T12:58:27Z</time>
      </trkpt>
      <trkpt lat="43.43255" lon="6.09377">
        <ele>289.60000610352</ele>
        <time>2016-03-30T12:58:29Z</time>
      </trkpt>
      <trkpt lat="43.4326" lon="6.09375">
        <ele>288.79998779297</ele>
        <time>2016-03-30T12:58:32Z</time>
      </trkpt>
      <trkpt lat="43.43263" lon="6.09373">
        <ele>288.39999389648</ele>
        <time>2016-03-30T12:58:33Z</time>
      </trkpt>
      <trkpt lat="43.43271" lon="6.09368">
        <ele>287.20001220703</ele>
        <time>2016-03-30T12:58:35Z</time>
      </trkpt>
      <trkpt lat="43.43275" lon="6.09366">
        <ele>287</ele>
        <time>2016-03-30T12:58:36Z</time>
      </trkpt>
      <trkpt lat="43.43286" lon="6.09362">
        <ele>286</ele>
        <time>2016-03-30T12:58:38Z</time>
      </trkpt>
      <trkpt lat="43.43296" lon="6.09358">
        <ele>286</ele>
        <time>2016-03-30T12:58:40Z</time>
      </trkpt>
      <trkpt lat="43.43306" lon="6.09356">
        <ele>284</ele>
        <time>2016-03-30T12:58:42Z</time>
      </trkpt>
      <trkpt lat="43.43315" lon="6.09355">
        <ele>283.20001220703</ele>
        <time>2016-03-30T12:58:44Z</time>
      </trkpt>
      <trkpt lat="43.4332" lon="6.09354">
        <ele>283</ele>
        <time>2016-03-30T12:58:45Z</time>
      </trkpt>
      <trkpt lat="43.43325" lon="6.09353">
        <ele>282.79998779297</ele>
        <time>2016-03-30T12:58:46Z</time>
      </trkpt>
      <trkpt lat="43.43336" lon="6.09351">
        <ele>281.20001220703</ele>
        <time>2016-03-30T12:58:48Z</time>
      </trkpt>
      <trkpt lat="43.43343" lon="6.09348">
        <ele>279.79998779297</ele>
        <time>2016-03-30T12:58:49Z</time>
      </trkpt>
      <trkpt lat="43.4335" lon="6.09346">
        <ele>278.79998779297</ele>
        <time>2016-03-30T12:58:50Z</time>
      </trkpt>
      <trkpt lat="43.43357" lon="6.09344">
        <ele>277.60000610352</ele>
        <time>2016-03-30T12:58:51Z</time>
      </trkpt>
      <trkpt lat="43.43362" lon="6.09342">
        <ele>275.79998779297</ele>
        <time>2016-03-30T12:58:52Z</time>
      </trkpt>
      <trkpt lat="43.43368" lon="6.09338">
        <ele>274.20001220703</ele>
        <time>2016-03-30T12:58:53Z</time>
      </trkpt>
      <trkpt lat="43.43374" lon="6.09337">
        <ele>273.20001220703</ele>
        <time>2016-03-30T12:58:54Z</time>
      </trkpt>
      <trkpt lat="43.43386" lon="6.09341">
        <ele>271.79998779297</ele>
        <time>2016-03-30T12:58:56Z</time>
      </trkpt>
      <trkpt lat="43.43412" lon="6.09352">
        <ele>272</ele>
        <time>2016-03-30T12:59:00Z</time>
      </trkpt>
      <trkpt lat="43.43418" lon="6.09356">
        <ele>270.79998779297</ele>
        <time>2016-03-30T12:59:01Z</time>
      </trkpt>
      <trkpt lat="43.43423" lon="6.09361">
        <ele>267.60000610352</ele>
        <time>2016-03-30T12:59:02Z</time>
      </trkpt>
      <trkpt lat="43.43428" lon="6.09366">
        <ele>266.39999389648</ele>
        <time>2016-03-30T12:59:03Z</time>
      </trkpt>
      <trkpt lat="43.43435" lon="6.09375">
        <ele>264.79998779297</ele>
        <time>2016-03-30T12:59:05Z</time>
      </trkpt>
      <trkpt lat="43.43438" lon="6.09378">
        <ele>264.60000610352</ele>
        <time>2016-03-30T12:59:06Z</time>
      </trkpt>
      <trkpt lat="43.43441" lon="6.09383">
        <ele>264.60000610352</ele>
        <time>2016-03-30T12:59:07Z</time>
      </trkpt>
      <trkpt lat="43.43447" lon="6.09393">
        <ele>262.20001220703</ele>
        <time>2016-03-30T12:59:09Z</time>
      </trkpt>
      <trkpt lat="43.43449" lon="6.09395">
        <ele>261</ele>
        <time>2016-03-30T12:59:10Z</time>
      </trkpt>
      <trkpt lat="43.43449" lon="6.09396">
        <ele>260.39999389648</ele>
        <time>2016-03-30T12:59:11Z</time>
      </trkpt>
      <trkpt lat="43.43447" lon="6.09395">
        <ele>260</ele>
        <time>2016-03-30T12:59:14Z</time>
      </trkpt>
      <trkpt lat="43.43448" lon="6.09392">
        <ele>260.20001220703</ele>
        <time>2016-03-30T12:59:21Z</time>
      </trkpt>
      <trkpt lat="43.43448" lon="6.09392">
        <ele>260</ele>
        <time>2016-03-30T12:59:22Z</time>
      </trkpt>
      <trkpt lat="43.43448" lon="6.09392">
        <ele>260.20001220703</ele>
        <time>2016-03-30T12:59:36Z</time>
      </trkpt>
      <trkpt lat="43.43449" lon="6.09392">
        <ele>260.20001220703</ele>
        <time>2016-03-30T12:59:47Z</time>
      </trkpt>
      <trkpt lat="43.43449" lon="6.09392">
        <ele>260</ele>
        <time>2016-03-30T13:00:02Z</time>
      </trkpt>
      <trkpt lat="43.43449" lon="6.09391">
        <ele>260</ele>
        <time>2016-03-30T13:00:04Z</time>
      </trkpt>
      <trkpt lat="43.43449" lon="6.0939">
        <ele>260</ele>
        <time>2016-03-30T13:00:10Z</time>
      </trkpt>
      <trkpt lat="43.43458" lon="6.09387">
        <ele>259.79998779297</ele>
        <time>2016-03-30T13:00:13Z</time>
      </trkpt>
      <trkpt lat="43.43468" lon="6.09388">
        <ele>258.79998779297</ele>
        <time>2016-03-30T13:00:15Z</time>
      </trkpt>
      <trkpt lat="43.43481" lon="6.09388">
        <ele>257</ele>
        <time>2016-03-30T13:00:17Z</time>
      </trkpt>
      <trkpt lat="43.43496" lon="6.09388">
        <ele>255.60000610352</ele>
        <time>2016-03-30T13:00:19Z</time>
      </trkpt>
      <trkpt lat="43.43512" lon="6.09387">
        <ele>254.39999389648</ele>
        <time>2016-03-30T13:00:21Z</time>
      </trkpt>
      <trkpt lat="43.43521" lon="6.09387">
        <ele>254</ele>
        <time>2016-03-30T13:00:22Z</time>
      </trkpt>
      <trkpt lat="43.43531" lon="6.09388">
        <ele>253.39999389648</ele>
        <time>2016-03-30T13:00:23Z</time>
      </trkpt>
      <trkpt lat="43.4354" lon="6.09389">
        <ele>252.80000305176</ele>
        <time>2016-03-30T13:00:24Z</time>
      </trkpt>
      <trkpt lat="43.4355" lon="6.0939">
        <ele>252.19999694824</ele>
        <time>2016-03-30T13:00:25Z</time>
      </trkpt>
      <trkpt lat="43.43568" lon="6.09391">
        <ele>251.39999389648</ele>
        <time>2016-03-30T13:00:27Z</time>
      </trkpt>
      <trkpt lat="43.43577" lon="6.09391">
        <ele>251.19999694824</ele>
        <time>2016-03-30T13:00:28Z</time>
      </trkpt>
      <trkpt lat="43.43606" lon="6.09387">
        <ele>249.60000610352</ele>
        <time>2016-03-30T13:00:31Z</time>
      </trkpt>
      <trkpt lat="43.43615" lon="6.09386">
        <ele>249.19999694824</ele>
        <time>2016-03-30T13:00:32Z</time>
      </trkpt>
      <trkpt lat="43.43621" lon="6.09386">
        <ele>248.80000305176</ele>
        <time>2016-03-30T13:00:33Z</time>
      </trkpt>
      <trkpt lat="43.43625" lon="6.09386">
        <ele>248.39999389648</ele>
        <time>2016-03-30T13:00:34Z</time>
      </trkpt>
      <trkpt lat="43.43628" lon="6.09386">
        <ele>248.19999694824</ele>
        <time>2016-03-30T13:00:35Z</time>
      </trkpt>
      <trkpt lat="43.43632" lon="6.09385">
        <ele>247.60000610352</ele>
        <time>2016-03-30T13:00:39Z</time>
      </trkpt>
      <trkpt lat="43.43632" lon="6.09384">
        <ele>247.80000305176</ele>
        <time>2016-03-30T13:00:46Z</time>
      </trkpt>
      <trkpt lat="43.43632" lon="6.09384">
        <ele>247.80000305176</ele>
        <time>2016-03-30T13:00:49Z</time>
      </trkpt>
      <trkpt lat="43.43632" lon="6.09384">
        <ele>247.60000610352</ele>
        <time>2016-03-30T13:00:54Z</time>
      </trkpt>
      <trkpt lat="43.43632" lon="6.09384">
        <ele>247.80000305176</ele>
        <time>2016-03-30T13:01:04Z</time>
      </trkpt>
      <trkpt lat="43.43632" lon="6.09384">
        <ele>247.60000610352</ele>
        <time>2016-03-30T13:01:21Z</time>
      </trkpt>
      <trkpt lat="43.43632" lon="6.09384">
        <ele>247.80000305176</ele>
        <time>2016-03-30T13:01:25Z</time>
      </trkpt>
      <trkpt lat="43.43633" lon="6.09384">
        <ele>247.19999694824</ele>
        <time>2016-03-30T13:01:37Z</time>
      </trkpt>
      <trkpt lat="43.43634" lon="6.09381">
        <ele>247.19999694824</ele>
        <time>2016-03-30T13:01:38Z</time>
      </trkpt>
      <trkpt lat="43.43635" lon="6.09374">
        <ele>247.19999694824</ele>
        <time>2016-03-30T13:01:40Z</time>
      </trkpt>
      <trkpt lat="43.43637" lon="6.09346">
        <ele>246.39999389648</ele>
        <time>2016-03-30T13:01:45Z</time>
      </trkpt>
      <trkpt lat="43.43638" lon="6.0934">
        <ele>246.19999694824</ele>
        <time>2016-03-30T13:01:46Z</time>
      </trkpt>
      <trkpt lat="43.43643" lon="6.09292">
        <ele>246.39999389648</ele>
        <time>2016-03-30T13:01:52Z</time>
      </trkpt>
      <trkpt lat="43.4365" lon="6.09253">
        <ele>245.39999389648</ele>
        <time>2016-03-30T13:01:56Z</time>
      </trkpt>
      <trkpt lat="43.43652" lon="6.09244">
        <ele>245.39999389648</ele>
        <time>2016-03-30T13:01:57Z</time>
      </trkpt>
      <trkpt lat="43.43663" lon="6.09217">
        <ele>245.19999694824</ele>
        <time>2016-03-30T13:02:00Z</time>
      </trkpt>
      <trkpt lat="43.4367" lon="6.09197">
        <ele>245</ele>
        <time>2016-03-30T13:02:02Z</time>
      </trkpt>
      <trkpt lat="43.43676" lon="6.09176">
        <ele>244.39999389648</ele>
        <time>2016-03-30T13:02:04Z</time>
      </trkpt>
      <trkpt lat="43.43685" lon="6.09141">
        <ele>243.39999389648</ele>
        <time>2016-03-30T13:02:07Z</time>
      </trkpt>
      <trkpt lat="43.43688" lon="6.0913">
        <ele>243</ele>
        <time>2016-03-30T13:02:08Z</time>
      </trkpt>
      <trkpt lat="43.43697" lon="6.09095">
        <ele>242</ele>
        <time>2016-03-30T13:02:11Z</time>
      </trkpt>
      <trkpt lat="43.43705" lon="6.09063">
        <ele>241.60000610352</ele>
        <time>2016-03-30T13:02:14Z</time>
      </trkpt>
      <trkpt lat="43.43715" lon="6.0902">
        <ele>240.80000305176</ele>
        <time>2016-03-30T13:02:18Z</time>
      </trkpt>
      <trkpt lat="43.43718" lon="6.08999">
        <ele>240.60000610352</ele>
        <time>2016-03-30T13:02:20Z</time>
      </trkpt>
      <trkpt lat="43.43719" lon="6.08979">
        <ele>241</ele>
        <time>2016-03-30T13:02:22Z</time>
      </trkpt>
      <trkpt lat="43.43718" lon="6.08948">
        <ele>240.60000610352</ele>
        <time>2016-03-30T13:02:25Z</time>
      </trkpt>
      <trkpt lat="43.43713" lon="6.0893">
        <ele>240.60000610352</ele>
        <time>2016-03-30T13:02:27Z</time>
      </trkpt>
      <trkpt lat="43.4371" lon="6.08919">
        <ele>240.60000610352</ele>
        <time>2016-03-30T13:02:29Z</time>
      </trkpt>
      <trkpt lat="43.4371" lon="6.08915">
        <ele>240.60000610352</ele>
        <time>2016-03-30T13:02:31Z</time>
      </trkpt>
      <trkpt lat="43.43711" lon="6.08914">
        <ele>240.60000610352</ele>
        <time>2016-03-30T13:02:32Z</time>
      </trkpt>
      <trkpt lat="43.43715" lon="6.08917">
        <ele>239.60000610352</ele>
        <time>2016-03-30T13:02:35Z</time>
      </trkpt>
      <trkpt lat="43.43717" lon="6.0892">
        <ele>239.19999694824</ele>
        <time>2016-03-30T13:02:36Z</time>
      </trkpt>
      <trkpt lat="43.43721" lon="6.0893">
        <ele>238.60000610352</ele>
        <time>2016-03-30T13:02:38Z</time>
      </trkpt>
      <trkpt lat="43.43727" lon="6.08939">
        <ele>238.39999389648</ele>
        <time>2016-03-30T13:02:40Z</time>
      </trkpt>
      <trkpt lat="43.4373" lon="6.08945">
        <ele>238.39999389648</ele>
        <time>2016-03-30T13:02:41Z</time>
      </trkpt>
      <trkpt lat="43.43737" lon="6.08956">
        <ele>237.80000305176</ele>
        <time>2016-03-30T13:02:43Z</time>
      </trkpt>
      <trkpt lat="43.43753" lon="6.08977">
        <ele>237</ele>
        <time>2016-03-30T13:02:47Z</time>
      </trkpt>
      <trkpt lat="43.43768" lon="6.08989">
        <ele>236.39999389648</ele>
        <time>2016-03-30T13:02:50Z</time>
      </trkpt>
      <trkpt lat="43.43781" lon="6.09">
        <ele>236</ele>
        <time>2016-03-30T13:02:53Z</time>
      </trkpt>
      <trkpt lat="43.43807" lon="6.09021">
        <ele>235.39999389648</ele>
        <time>2016-03-30T13:02:59Z</time>
      </trkpt>
      <trkpt lat="43.4381" lon="6.09024">
        <ele>235.60000610352</ele>
        <time>2016-03-30T13:03:00Z</time>
      </trkpt>
      <trkpt lat="43.43837" lon="6.09047">
        <ele>235</ele>
        <time>2016-03-30T13:03:07Z</time>
      </trkpt>
      <trkpt lat="43.4384" lon="6.09052">
        <ele>235</ele>
        <time>2016-03-30T13:03:08Z</time>
      </trkpt>
      <trkpt lat="43.43846" lon="6.09068">
        <ele>234.80000305176</ele>
        <time>2016-03-30T13:03:11Z</time>
      </trkpt>
      <trkpt lat="43.4385" lon="6.09081">
        <ele>234.39999389648</ele>
        <time>2016-03-30T13:03:13Z</time>
      </trkpt>
      <trkpt lat="43.43864" lon="6.09117">
        <ele>233.39999389648</ele>
        <time>2016-03-30T13:03:19Z</time>
      </trkpt>
      <trkpt lat="43.43877" lon="6.09141">
        <ele>233.19999694824</ele>
        <time>2016-03-30T13:03:24Z</time>
      </trkpt>
      <trkpt lat="43.4388" lon="6.09148">
        <ele>233</ele>
        <time>2016-03-30T13:03:25Z</time>
      </trkpt>
      <trkpt lat="43.43895" lon="6.09166">
        <ele>232.80000305176</ele>
        <time>2016-03-30T13:03:29Z</time>
      </trkpt>
      <trkpt lat="43.43899" lon="6.0917">
        <ele>232.80000305176</ele>
        <time>2016-03-30T13:03:30Z</time>
      </trkpt>
      <trkpt lat="43.43903" lon="6.09175">
        <ele>232.80000305176</ele>
        <time>2016-03-30T13:03:31Z</time>
      </trkpt>
      <trkpt lat="43.43911" lon="6.09186">
        <ele>232.39999389648</ele>
        <time>2016-03-30T13:03:33Z</time>
      </trkpt>
      <trkpt lat="43.43925" lon="6.09212">
        <ele>231.60000610352</ele>
        <time>2016-03-30T13:03:37Z</time>
      </trkpt>
      <trkpt lat="43.43929" lon="6.09218">
        <ele>231.19999694824</ele>
        <time>2016-03-30T13:03:38Z</time>
      </trkpt>
      <trkpt lat="43.43932" lon="6.09225">
        <ele>231.19999694824</ele>
        <time>2016-03-30T13:03:39Z</time>
      </trkpt>
      <trkpt lat="43.43942" lon="6.09246">
        <ele>231</ele>
        <time>2016-03-30T13:03:43Z</time>
      </trkpt>
      <trkpt lat="43.43945" lon="6.09251">
        <ele>231</ele>
        <time>2016-03-30T13:03:44Z</time>
      </trkpt>
      <trkpt lat="43.43957" lon="6.09277">
        <ele>230.19999694824</ele>
        <time>2016-03-30T13:03:48Z</time>
      </trkpt>
      <trkpt lat="43.43964" lon="6.09292">
        <ele>230.19999694824</ele>
        <time>2016-03-30T13:03:50Z</time>
      </trkpt>
      <trkpt lat="43.43981" lon="6.09332">
        <ele>229.80000305176</ele>
        <time>2016-03-30T13:03:55Z</time>
      </trkpt>
      <trkpt lat="43.43991" lon="6.09356">
        <ele>229.19999694824</ele>
        <time>2016-03-30T13:03:58Z</time>
      </trkpt>
      <trkpt lat="43.44007" lon="6.09396">
        <ele>228.39999389648</ele>
        <time>2016-03-30T13:04:03Z</time>
      </trkpt>
      <trkpt lat="43.44023" lon="6.09438">
        <ele>227.80000305176</ele>
        <time>2016-03-30T13:04:08Z</time>
      </trkpt>
      <trkpt lat="43.44029" lon="6.09455">
        <ele>227.39999389648</ele>
        <time>2016-03-30T13:04:10Z</time>
      </trkpt>
      <trkpt lat="43.44044" lon="6.09502">
        <ele>226.19999694824</ele>
        <time>2016-03-30T13:04:15Z</time>
      </trkpt>
      <trkpt lat="43.44048" lon="6.09511">
        <ele>226.19999694824</ele>
        <time>2016-03-30T13:04:16Z</time>
      </trkpt>
      <trkpt lat="43.44058" lon="6.09539">
        <ele>226.39999389648</ele>
        <time>2016-03-30T13:04:19Z</time>
      </trkpt>
      <trkpt lat="43.4407" lon="6.09577">
        <ele>226.19999694824</ele>
        <time>2016-03-30T13:04:23Z</time>
      </trkpt>
      <trkpt lat="43.44073" lon="6.09586">
        <ele>226.19999694824</ele>
        <time>2016-03-30T13:04:24Z</time>
      </trkpt>
      <trkpt lat="43.44088" lon="6.09624">
        <ele>226.19999694824</ele>
        <time>2016-03-30T13:04:29Z</time>
      </trkpt>
      <trkpt lat="43.44101" lon="6.09637">
        <ele>226.39999389648</ele>
        <time>2016-03-30T13:04:33Z</time>
      </trkpt>
      <trkpt lat="43.44125" lon="6.09656">
        <ele>226.60000610352</ele>
        <time>2016-03-30T13:04:40Z</time>
      </trkpt>
      <trkpt lat="43.44134" lon="6.09667">
        <ele>226.39999389648</ele>
        <time>2016-03-30T13:04:43Z</time>
      </trkpt>
      <trkpt lat="43.44136" lon="6.09673">
        <ele>226.39999389648</ele>
        <time>2016-03-30T13:04:44Z</time>
      </trkpt>
      <trkpt lat="43.44141" lon="6.09693">
        <ele>226</ele>
        <time>2016-03-30T13:04:47Z</time>
      </trkpt>
      <trkpt lat="43.44144" lon="6.097">
        <ele>226</ele>
        <time>2016-03-30T13:04:48Z</time>
      </trkpt>
      <trkpt lat="43.44147" lon="6.09708">
        <ele>225.80000305176</ele>
        <time>2016-03-30T13:04:49Z</time>
      </trkpt>
      <trkpt lat="43.44152" lon="6.09727">
        <ele>225.39999389648</ele>
        <time>2016-03-30T13:04:52Z</time>
      </trkpt>
      <trkpt lat="43.44156" lon="6.0974">
        <ele>225.19999694824</ele>
        <time>2016-03-30T13:04:54Z</time>
      </trkpt>
      <trkpt lat="43.44168" lon="6.09785">
        <ele>224.60000610352</ele>
        <time>2016-03-30T13:05:01Z</time>
      </trkpt>
      <trkpt lat="43.44171" lon="6.0979">
        <ele>224.19999694824</ele>
        <time>2016-03-30T13:05:02Z</time>
      </trkpt>
      <trkpt lat="43.4418" lon="6.09804">
        <ele>222.80000305176</ele>
        <time>2016-03-30T13:05:05Z</time>
      </trkpt>
      <trkpt lat="43.44183" lon="6.0981">
        <ele>222.39999389648</ele>
        <time>2016-03-30T13:05:06Z</time>
      </trkpt>
      <trkpt lat="43.44186" lon="6.09823">
        <ele>221.19999694824</ele>
        <time>2016-03-30T13:05:08Z</time>
      </trkpt>
      <trkpt lat="43.44188" lon="6.09831">
        <ele>220.39999389648</ele>
        <time>2016-03-30T13:05:09Z</time>
      </trkpt>
      <trkpt lat="43.4419" lon="6.09837">
        <ele>220</ele>
        <time>2016-03-30T13:05:10Z</time>
      </trkpt>
      <trkpt lat="43.44194" lon="6.09844">
        <ele>219.60000610352</ele>
        <time>2016-03-30T13:05:11Z</time>
      </trkpt>
      <trkpt lat="43.44201" lon="6.09858">
        <ele>218.80000305176</ele>
        <time>2016-03-30T13:05:13Z</time>
      </trkpt>
      <trkpt lat="43.44204" lon="6.09864">
        <ele>218.60000610352</ele>
        <time>2016-03-30T13:05:14Z</time>
      </trkpt>
      <trkpt lat="43.44217" lon="6.09881">
        <ele>217.80000305176</ele>
        <time>2016-03-30T13:05:17Z</time>
      </trkpt>
      <trkpt lat="43.44226" lon="6.09894">
        <ele>217.19999694824</ele>
        <time>2016-03-30T13:05:19Z</time>
      </trkpt>
      <trkpt lat="43.44234" lon="6.09907">
        <ele>216.80000305176</ele>
        <time>2016-03-30T13:05:21Z</time>
      </trkpt>
      <trkpt lat="43.44238" lon="6.09914">
        <ele>216.39999389648</ele>
        <time>2016-03-30T13:05:22Z</time>
      </trkpt>
      <trkpt lat="43.44243" lon="6.09926">
        <ele>215.19999694824</ele>
        <time>2016-03-30T13:05:24Z</time>
      </trkpt>
      <trkpt lat="43.44246" lon="6.09935">
        <ele>214.60000610352</ele>
        <time>2016-03-30T13:05:27Z</time>
      </trkpt>
      <trkpt lat="43.4425" lon="6.09947">
        <ele>214</ele>
        <time>2016-03-30T13:05:32Z</time>
      </trkpt>
      <trkpt lat="43.44252" lon="6.0995">
        <ele>214</ele>
        <time>2016-03-30T13:05:33Z</time>
      </trkpt>
      <trkpt lat="43.44255" lon="6.09958">
        <ele>212.80000305176</ele>
        <time>2016-03-30T13:05:35Z</time>
      </trkpt>
      <trkpt lat="43.44256" lon="6.09963">
        <ele>212.19999694824</ele>
        <time>2016-03-30T13:05:37Z</time>
      </trkpt>
      <trkpt lat="43.44262" lon="6.09977">
        <ele>212.19999694824</ele>
        <time>2016-03-30T13:05:44Z</time>
      </trkpt>
      <trkpt lat="43.44262" lon="6.09978">
        <ele>212</ele>
        <time>2016-03-30T13:05:45Z</time>
      </trkpt>
      <trkpt lat="43.44269" lon="6.09988">
        <ele>212.60000610352</ele>
        <time>2016-03-30T13:05:50Z</time>
      </trkpt>
      <trkpt lat="43.44273" lon="6.0999">
        <ele>212.60000610352</ele>
        <time>2016-03-30T13:05:51Z</time>
      </trkpt>
      <trkpt lat="43.4428" lon="6.09998">
        <ele>212.39999389648</ele>
        <time>2016-03-30T13:05:54Z</time>
      </trkpt>
      <trkpt lat="43.44286" lon="6.10013">
        <ele>212.80000305176</ele>
        <time>2016-03-30T13:05:58Z</time>
      </trkpt>
      <trkpt lat="43.44287" lon="6.10021">
        <ele>213.39999389648</ele>
        <time>2016-03-30T13:06:00Z</time>
      </trkpt>
      <trkpt lat="43.4429" lon="6.10033">
        <ele>214</ele>
        <time>2016-03-30T13:06:03Z</time>
      </trkpt>
      <trkpt lat="43.44299" lon="6.1005">
        <ele>213.80000305176</ele>
        <time>2016-03-30T13:06:08Z</time>
      </trkpt>
      <trkpt lat="43.44299" lon="6.10058">
        <ele>214.60000610352</ele>
        <time>2016-03-30T13:06:10Z</time>
      </trkpt>
      <trkpt lat="43.44297" lon="6.10063">
        <ele>215.19999694824</ele>
        <time>2016-03-30T13:06:12Z</time>
      </trkpt>
      <trkpt lat="43.44294" lon="6.10069">
        <ele>216</ele>
        <time>2016-03-30T13:06:14Z</time>
      </trkpt>
      <trkpt lat="43.44292" lon="6.10081">
        <ele>216.19999694824</ele>
        <time>2016-03-30T13:06:18Z</time>
      </trkpt>
      <trkpt lat="43.44291" lon="6.10096">
        <ele>216.60000610352</ele>
        <time>2016-03-30T13:06:23Z</time>
      </trkpt>
      <trkpt lat="43.44289" lon="6.10104">
        <ele>217.19999694824</ele>
        <time>2016-03-30T13:06:26Z</time>
      </trkpt>
      <trkpt lat="43.44286" lon="6.10112">
        <ele>218</ele>
        <time>2016-03-30T13:06:29Z</time>
      </trkpt>
      <trkpt lat="43.44287" lon="6.10115">
        <ele>218.19999694824</ele>
        <time>2016-03-30T13:06:30Z</time>
      </trkpt>
      <trkpt lat="43.44288" lon="6.10128">
        <ele>218.80000305176</ele>
        <time>2016-03-30T13:06:34Z</time>
      </trkpt>
      <trkpt lat="43.44289" lon="6.10144">
        <ele>219.39999389648</ele>
        <time>2016-03-30T13:06:40Z</time>
      </trkpt>
      <trkpt lat="43.44288" lon="6.10147">
        <ele>219.60000610352</ele>
        <time>2016-03-30T13:06:41Z</time>
      </trkpt>
      <trkpt lat="43.44287" lon="6.1016">
        <ele>220.60000610352</ele>
        <time>2016-03-30T13:06:47Z</time>
      </trkpt>
      <trkpt lat="43.44287" lon="6.10168">
        <ele>220.80000305176</ele>
        <time>2016-03-30T13:06:51Z</time>
      </trkpt>
      <trkpt lat="43.44286" lon="6.1017">
        <ele>220.80000305176</ele>
        <time>2016-03-30T13:06:53Z</time>
      </trkpt>
      <trkpt lat="43.44287" lon="6.1018">
        <ele>220.60000610352</ele>
        <time>2016-03-30T13:06:58Z</time>
      </trkpt>
      <trkpt lat="43.44287" lon="6.10186">
        <ele>221.39999389648</ele>
        <time>2016-03-30T13:07:01Z</time>
      </trkpt>
      <trkpt lat="43.44286" lon="6.10191">
        <ele>222</ele>
        <time>2016-03-30T13:07:04Z</time>
      </trkpt>
      <trkpt lat="43.44286" lon="6.10196">
        <ele>222</ele>
        <time>2016-03-30T13:07:06Z</time>
      </trkpt>
      <trkpt lat="43.44285" lon="6.10206">
        <ele>222.19999694824</ele>
        <time>2016-03-30T13:07:12Z</time>
      </trkpt>
      <trkpt lat="43.44287" lon="6.10219">
        <ele>222</ele>
        <time>2016-03-30T13:07:19Z</time>
      </trkpt>
      <trkpt lat="43.44287" lon="6.1022">
        <ele>222</ele>
        <time>2016-03-30T13:07:20Z</time>
      </trkpt>
      <trkpt lat="43.44291" lon="6.10226">
        <ele>222.80000305176</ele>
        <time>2016-03-30T13:07:26Z</time>
      </trkpt>
      <trkpt lat="43.44292" lon="6.10226">
        <ele>223</ele>
        <time>2016-03-30T13:07:27Z</time>
      </trkpt>
      <trkpt lat="43.44292" lon="6.10229">
        <ele>223</ele>
        <time>2016-03-30T13:07:32Z</time>
      </trkpt>
      <trkpt lat="43.44292" lon="6.10229">
        <ele>222.80000305176</ele>
        <time>2016-03-30T13:07:35Z</time>
      </trkpt>
      <trkpt lat="43.44291" lon="6.10231">
        <ele>222.60000610352</ele>
        <time>2016-03-30T13:07:40Z</time>
      </trkpt>
      <trkpt lat="43.44291" lon="6.10232">
        <ele>222.80000305176</ele>
        <time>2016-03-30T13:07:45Z</time>
      </trkpt>
      <trkpt lat="43.44291" lon="6.10234">
        <ele>222.60000610352</ele>
        <time>2016-03-30T13:07:46Z</time>
      </trkpt>
      <trkpt lat="43.4429" lon="6.10238">
        <ele>222.39999389648</ele>
        <time>2016-03-30T13:07:48Z</time>
      </trkpt>
      <trkpt lat="43.4429" lon="6.10244">
        <ele>222.19999694824</ele>
        <time>2016-03-30T13:07:52Z</time>
      </trkpt>
      <trkpt lat="43.44289" lon="6.10248">
        <ele>222.19999694824</ele>
        <time>2016-03-30T13:07:55Z</time>
      </trkpt>
      <trkpt lat="43.44287" lon="6.10253">
        <ele>222</ele>
        <time>2016-03-30T13:07:59Z</time>
      </trkpt>
      <trkpt lat="43.44285" lon="6.10258">
        <ele>221.80000305176</ele>
        <time>2016-03-30T13:08:01Z</time>
      </trkpt>
      <trkpt lat="43.44283" lon="6.10263">
        <ele>221.80000305176</ele>
        <time>2016-03-30T13:08:03Z</time>
      </trkpt>
      <trkpt lat="43.44279" lon="6.10268">
        <ele>222</ele>
        <time>2016-03-30T13:08:06Z</time>
      </trkpt>
      <trkpt lat="43.44275" lon="6.10274">
        <ele>221.80000305176</ele>
        <time>2016-03-30T13:08:09Z</time>
      </trkpt>
      <trkpt lat="43.44268" lon="6.10293">
        <ele>222</ele>
        <time>2016-03-30T13:08:15Z</time>
      </trkpt>
      <trkpt lat="43.44263" lon="6.10305">
        <ele>221.39999389648</ele>
        <time>2016-03-30T13:08:20Z</time>
      </trkpt>
      <trkpt lat="43.44257" lon="6.10318">
        <ele>222.39999389648</ele>
        <time>2016-03-30T13:08:26Z</time>
      </trkpt>
      <trkpt lat="43.44251" lon="6.10321">
        <ele>222.80000305176</ele>
        <time>2016-03-30T13:08:29Z</time>
      </trkpt>
      <trkpt lat="43.44246" lon="6.1032">
        <ele>222.80000305176</ele>
        <time>2016-03-30T13:08:31Z</time>
      </trkpt>
      <trkpt lat="43.44239" lon="6.10313">
        <ele>222.39999389648</ele>
        <time>2016-03-30T13:08:36Z</time>
      </trkpt>
      <trkpt lat="43.44237" lon="6.10311">
        <ele>222.39999389648</ele>
        <time>2016-03-30T13:08:37Z</time>
      </trkpt>
      <trkpt lat="43.44234" lon="6.10307">
        <ele>222.39999389648</ele>
        <time>2016-03-30T13:08:42Z</time>
      </trkpt>
      <trkpt lat="43.44231" lon="6.10305">
        <ele>222.19999694824</ele>
        <time>2016-03-30T13:08:54Z</time>
      </trkpt>
      <trkpt lat="43.44229" lon="6.10302">
        <ele>222.19999694824</ele>
        <time>2016-03-30T13:08:55Z</time>
      </trkpt>
      <trkpt lat="43.44213" lon="6.10288">
        <ele>221.39999389648</ele>
        <time>2016-03-30T13:09:01Z</time>
      </trkpt>
      <trkpt lat="43.44194" lon="6.10277">
        <ele>221</ele>
        <time>2016-03-30T13:09:07Z</time>
      </trkpt>
      <trkpt lat="43.44191" lon="6.10276">
        <ele>221.19999694824</ele>
        <time>2016-03-30T13:09:08Z</time>
      </trkpt>
      <trkpt lat="43.44181" lon="6.1028">
        <ele>220.60000610352</ele>
        <time>2016-03-30T13:09:12Z</time>
      </trkpt>
      <trkpt lat="43.44177" lon="6.10287">
        <ele>222.39999389648</ele>
        <time>2016-03-30T13:09:15Z</time>
      </trkpt>
      <trkpt lat="43.44175" lon="6.10292">
        <ele>222.60000610352</ele>
        <time>2016-03-30T13:09:17Z</time>
      </trkpt>
      <trkpt lat="43.44175" lon="6.10295">
        <ele>223.19999694824</ele>
        <time>2016-03-30T13:09:18Z</time>
      </trkpt>
      <trkpt lat="43.44173" lon="6.103">
        <ele>222.60000610352</ele>
        <time>2016-03-30T13:09:20Z</time>
      </trkpt>
      <trkpt lat="43.44172" lon="6.10306">
        <ele>223.19999694824</ele>
        <time>2016-03-30T13:09:23Z</time>
      </trkpt>
      <trkpt lat="43.44172" lon="6.10307">
        <ele>223.39999389648</ele>
        <time>2016-03-30T13:09:25Z</time>
      </trkpt>
      <trkpt lat="43.44171" lon="6.10306">
        <ele>223.39999389648</ele>
        <time>2016-03-30T13:09:26Z</time>
      </trkpt>
      <trkpt lat="43.44171" lon="6.10306">
        <ele>223.39999389648</ele>
        <time>2016-03-30T13:09:28Z</time>
      </trkpt>
      <trkpt lat="43.4417" lon="6.10309">
        <ele>223.80000305176</ele>
        <time>2016-03-30T13:09:32Z</time>
      </trkpt>
      <trkpt lat="43.44171" lon="6.10309">
        <ele>223.80000305176</ele>
        <time>2016-03-30T13:09:34Z</time>
      </trkpt>
      <trkpt lat="43.4417" lon="6.10314">
        <ele>223.80000305176</ele>
        <time>2016-03-30T13:09:42Z</time>
      </trkpt>
      <trkpt lat="43.44171" lon="6.10314">
        <ele>223.60000610352</ele>
        <time>2016-03-30T13:09:49Z</time>
      </trkpt>
      <trkpt lat="43.44171" lon="6.10314">
        <ele>223.60000610352</ele>
        <time>2016-03-30T13:09:52Z</time>
      </trkpt>
      <trkpt lat="43.4417" lon="6.10315">
        <ele>223.80000305176</ele>
        <time>2016-03-30T13:09:59Z</time>
      </trkpt>
      <trkpt lat="43.44169" lon="6.10319">
        <ele>223.39999389648</ele>
        <time>2016-03-30T13:10:01Z</time>
      </trkpt>
      <trkpt lat="43.44168" lon="6.10322">
        <ele>223.80000305176</ele>
        <time>2016-03-30T13:10:03Z</time>
      </trkpt>
      <trkpt lat="43.44168" lon="6.10322">
        <ele>223.80000305176</ele>
        <time>2016-03-30T13:10:06Z</time>
      </trkpt>
      <trkpt lat="43.44165" lon="6.10331">
        <ele>224.19999694824</ele>
        <time>2016-03-30T13:10:12Z</time>
      </trkpt>
      <trkpt lat="43.44162" lon="6.10347">
        <ele>224.80000305176</ele>
        <time>2016-03-30T13:10:18Z</time>
      </trkpt>
      <trkpt lat="43.44162" lon="6.10362">
        <ele>225.19999694824</ele>
        <time>2016-03-30T13:10:23Z</time>
      </trkpt>
      <trkpt lat="43.44162" lon="6.10367">
        <ele>225.19999694824</ele>
        <time>2016-03-30T13:10:25Z</time>
      </trkpt>
      <trkpt lat="43.44161" lon="6.1037">
        <ele>225.19999694824</ele>
        <time>2016-03-30T13:10:26Z</time>
      </trkpt>
      <trkpt lat="43.44157" lon="6.10391">
        <ele>226</ele>
        <time>2016-03-30T13:10:33Z</time>
      </trkpt>
      <trkpt lat="43.44155" lon="6.10403">
        <ele>226.19999694824</ele>
        <time>2016-03-30T13:10:38Z</time>
      </trkpt>
      <trkpt lat="43.44151" lon="6.10424">
        <ele>227.19999694824</ele>
        <time>2016-03-30T13:10:45Z</time>
      </trkpt>
      <trkpt lat="43.44151" lon="6.10427">
        <ele>227.39999389648</ele>
        <time>2016-03-30T13:10:46Z</time>
      </trkpt>
      <trkpt lat="43.44147" lon="6.10445">
        <ele>227.39999389648</ele>
        <time>2016-03-30T13:10:52Z</time>
      </trkpt>
      <trkpt lat="43.44144" lon="6.10472">
        <ele>227.19999694824</ele>
        <time>2016-03-30T13:11:00Z</time>
      </trkpt>
      <trkpt lat="43.44138" lon="6.10498">
        <ele>228.60000610352</ele>
        <time>2016-03-30T13:11:08Z</time>
      </trkpt>
      <trkpt lat="43.44137" lon="6.10502">
        <ele>229</ele>
        <time>2016-03-30T13:11:09Z</time>
      </trkpt>
      <trkpt lat="43.44132" lon="6.1051">
        <ele>229.19999694824</ele>
        <time>2016-03-30T13:11:13Z</time>
      </trkpt>
      <trkpt lat="43.44131" lon="6.10511">
        <ele>229.60000610352</ele>
        <time>2016-03-30T13:11:14Z</time>
      </trkpt>
      <trkpt lat="43.44128" lon="6.10514">
        <ele>229.80000305176</ele>
        <time>2016-03-30T13:11:16Z</time>
      </trkpt>
      <trkpt lat="43.44125" lon="6.10526">
        <ele>229.39999389648</ele>
        <time>2016-03-30T13:11:20Z</time>
      </trkpt>
      <trkpt lat="43.44118" lon="6.10546">
        <ele>229.80000305176</ele>
        <time>2016-03-30T13:11:26Z</time>
      </trkpt>
      <trkpt lat="43.44112" lon="6.10569">
        <ele>229.80000305176</ele>
        <time>2016-03-30T13:11:33Z</time>
      </trkpt>
      <trkpt lat="43.44106" lon="6.10585">
        <ele>230.39999389648</ele>
        <time>2016-03-30T13:11:39Z</time>
      </trkpt>
      <trkpt lat="43.44104" lon="6.10587">
        <ele>230.39999389648</ele>
        <time>2016-03-30T13:11:40Z</time>
      </trkpt>
      <trkpt lat="43.44097" lon="6.10597">
        <ele>230</ele>
        <time>2016-03-30T13:11:43Z</time>
      </trkpt>
      <trkpt lat="43.44095" lon="6.10601">
        <ele>230</ele>
        <time>2016-03-30T13:11:44Z</time>
      </trkpt>
      <trkpt lat="43.44082" lon="6.10622">
        <ele>229.80000305176</ele>
        <time>2016-03-30T13:11:51Z</time>
      </trkpt>
      <trkpt lat="43.44073" lon="6.1064">
        <ele>229.80000305176</ele>
        <time>2016-03-30T13:11:58Z</time>
      </trkpt>
      <trkpt lat="43.44069" lon="6.10651">
        <ele>230.19999694824</ele>
        <time>2016-03-30T13:12:02Z</time>
      </trkpt>
      <trkpt lat="43.44069" lon="6.10654">
        <ele>230.39999389648</ele>
        <time>2016-03-30T13:12:03Z</time>
      </trkpt>
      <trkpt lat="43.44068" lon="6.10677">
        <ele>230.80000305176</ele>
        <time>2016-03-30T13:12:10Z</time>
      </trkpt>
      <trkpt lat="43.44067" lon="6.10689">
        <ele>231.19999694824</ele>
        <time>2016-03-30T13:12:14Z</time>
      </trkpt>
      <trkpt lat="43.44067" lon="6.10697">
        <ele>231</ele>
        <time>2016-03-30T13:12:17Z</time>
      </trkpt>
      <trkpt lat="43.44069" lon="6.10718">
        <ele>232</ele>
        <time>2016-03-30T13:12:24Z</time>
      </trkpt>
      <trkpt lat="43.44069" lon="6.1072">
        <ele>232.19999694824</ele>
        <time>2016-03-30T13:12:25Z</time>
      </trkpt>
      <trkpt lat="43.44072" lon="6.10725">
        <ele>232.19999694824</ele>
        <time>2016-03-30T13:12:28Z</time>
      </trkpt>
      <trkpt lat="43.44073" lon="6.10726">
        <ele>231.80000305176</ele>
        <time>2016-03-30T13:12:31Z</time>
      </trkpt>
      <trkpt lat="43.44074" lon="6.10729">
        <ele>232</ele>
        <time>2016-03-30T13:12:34Z</time>
      </trkpt>
      <trkpt lat="43.44074" lon="6.10729">
        <ele>232.19999694824</ele>
        <time>2016-03-30T13:12:41Z</time>
      </trkpt>
      <trkpt lat="43.44074" lon="6.10729">
        <ele>232.19999694824</ele>
        <time>2016-03-30T13:12:43Z</time>
      </trkpt>
      <trkpt lat="43.44074" lon="6.10729">
        <ele>232.19999694824</ele>
        <time>2016-03-30T13:12:48Z</time>
      </trkpt>
      <trkpt lat="43.44074" lon="6.10729">
        <ele>232.19999694824</ele>
        <time>2016-03-30T13:12:49Z</time>
      </trkpt>
      <trkpt lat="43.44074" lon="6.10729">
        <ele>231.60000610352</ele>
        <time>2016-03-30T13:13:06Z</time>
      </trkpt>
      <trkpt lat="43.44074" lon="6.10729">
        <ele>232.39999389648</ele>
        <time>2016-03-30T13:13:13Z</time>
      </trkpt>
      <trkpt lat="43.44074" lon="6.10729">
        <ele>232.39999389648</ele>
        <time>2016-03-30T13:13:15Z</time>
      </trkpt>
      <trkpt lat="43.44073" lon="6.10731">
        <ele>232.39999389648</ele>
        <time>2016-03-30T13:13:19Z</time>
      </trkpt>
      <trkpt lat="43.44072" lon="6.10747">
        <ele>232.19999694824</ele>
        <time>2016-03-30T13:13:25Z</time>
      </trkpt>
      <trkpt lat="43.44072" lon="6.10756">
        <ele>232.19999694824</ele>
        <time>2016-03-30T13:13:29Z</time>
      </trkpt>
      <trkpt lat="43.44072" lon="6.1076">
        <ele>232.39999389648</ele>
        <time>2016-03-30T13:13:31Z</time>
      </trkpt>
      <trkpt lat="43.44068" lon="6.10769">
        <ele>232.39999389648</ele>
        <time>2016-03-30T13:13:35Z</time>
      </trkpt>
      <trkpt lat="43.44067" lon="6.10772">
        <ele>232.60000610352</ele>
        <time>2016-03-30T13:13:36Z</time>
      </trkpt>
      <trkpt lat="43.44065" lon="6.10777">
        <ele>233</ele>
        <time>2016-03-30T13:13:38Z</time>
      </trkpt>
      <trkpt lat="43.44065" lon="6.1078">
        <ele>233.39999389648</ele>
        <time>2016-03-30T13:13:39Z</time>
      </trkpt>
      <trkpt lat="43.44063" lon="6.10788">
        <ele>233.80000305176</ele>
        <time>2016-03-30T13:13:42Z</time>
      </trkpt>
      <trkpt lat="43.44061" lon="6.10797">
        <ele>233.80000305176</ele>
        <time>2016-03-30T13:13:45Z</time>
      </trkpt>
      <trkpt lat="43.44059" lon="6.10803">
        <ele>234.60000610352</ele>
        <time>2016-03-30T13:13:47Z</time>
      </trkpt>
      <trkpt lat="43.44057" lon="6.10809">
        <ele>235</ele>
        <time>2016-03-30T13:13:49Z</time>
      </trkpt>
      <trkpt lat="43.44055" lon="6.10825">
        <ele>235</ele>
        <time>2016-03-30T13:13:54Z</time>
      </trkpt>
      <trkpt lat="43.44054" lon="6.10838">
        <ele>235.19999694824</ele>
        <time>2016-03-30T13:14:01Z</time>
      </trkpt>
      <trkpt lat="43.44055" lon="6.10838">
        <ele>235.19999694824</ele>
        <time>2016-03-30T13:14:05Z</time>
      </trkpt>
      <trkpt lat="43.44055" lon="6.10838">
        <ele>235.19999694824</ele>
        <time>2016-03-30T13:14:16Z</time>
      </trkpt>
      <trkpt lat="43.44055" lon="6.10839">
        <ele>235</ele>
        <time>2016-03-30T13:14:22Z</time>
      </trkpt>
      <trkpt lat="43.44055" lon="6.10839">
        <ele>235.60000610352</ele>
        <time>2016-03-30T13:14:31Z</time>
      </trkpt>
      <trkpt lat="43.44055" lon="6.10839">
        <ele>235.60000610352</ele>
        <time>2016-03-30T13:14:36Z</time>
      </trkpt>
      <trkpt lat="43.44055" lon="6.10839">
        <ele>235.60000610352</ele>
        <time>2016-03-30T13:14:41Z</time>
      </trkpt>
      <trkpt lat="43.44055" lon="6.10839">
        <ele>235.39999389648</ele>
        <time>2016-03-30T13:14:46Z</time>
      </trkpt>
      <trkpt lat="43.44055" lon="6.10839">
        <ele>235.39999389648</ele>
        <time>2016-03-30T13:15:02Z</time>
      </trkpt>
      <trkpt lat="43.44055" lon="6.10839">
        <ele>235.19999694824</ele>
        <time>2016-03-30T13:15:25Z</time>
      </trkpt>
      <trkpt lat="43.44055" lon="6.10839">
        <ele>235.39999389648</ele>
        <time>2016-03-30T13:15:35Z</time>
      </trkpt>
      <trkpt lat="43.44055" lon="6.10839">
        <ele>235.39999389648</ele>
        <time>2016-03-30T13:16:00Z</time>
      </trkpt>
      <trkpt lat="43.44055" lon="6.10839">
        <ele>235.60000610352</ele>
        <time>2016-03-30T13:16:14Z</time>
      </trkpt>
      <trkpt lat="43.44055" lon="6.10839">
        <ele>235.39999389648</ele>
        <time>2016-03-30T13:16:32Z</time>
      </trkpt>
      <trkpt lat="43.44055" lon="6.10839">
        <ele>235.39999389648</ele>
        <time>2016-03-30T13:16:36Z</time>
      </trkpt>
      <trkpt lat="43.44055" lon="6.10839">
        <ele>235.60000610352</ele>
        <time>2016-03-30T13:17:00Z</time>
      </trkpt>
      <trkpt lat="43.44055" lon="6.10839">
        <ele>235.80000305176</ele>
        <time>2016-03-30T13:17:13Z</time>
      </trkpt>
      <trkpt lat="43.44055" lon="6.1084">
        <ele>235.80000305176</ele>
        <time>2016-03-30T13:17:40Z</time>
      </trkpt>
      <trkpt lat="43.44055" lon="6.1084">
        <ele>236</ele>
        <time>2016-03-30T13:17:55Z</time>
      </trkpt>
      <trkpt lat="43.44055" lon="6.1084">
        <ele>236.19999694824</ele>
        <time>2016-03-30T13:18:43Z</time>
      </trkpt>
      <trkpt lat="43.44055" lon="6.1084">
        <ele>236.39999389648</ele>
        <time>2016-03-30T13:19:10Z</time>
      </trkpt>
      <trkpt lat="43.44055" lon="6.1084">
        <ele>236.39999389648</ele>
        <time>2016-03-30T13:19:11Z</time>
      </trkpt>
      <trkpt lat="43.44055" lon="6.1084">
        <ele>236.19999694824</ele>
        <time>2016-03-30T13:19:22Z</time>
      </trkpt>
      <trkpt lat="43.44055" lon="6.1084">
        <ele>236.80000305176</ele>
        <time>2016-03-30T13:19:48Z</time>
      </trkpt>
      <trkpt lat="43.44055" lon="6.1084">
        <ele>236.80000305176</ele>
        <time>2016-03-30T13:20:12Z</time>
      </trkpt>
      <trkpt lat="43.44055" lon="6.1084">
        <ele>236.60000610352</ele>
        <time>2016-03-30T13:20:21Z</time>
      </trkpt>
      <trkpt lat="43.44055" lon="6.1084">
        <ele>236.80000305176</ele>
        <time>2016-03-30T13:20:31Z</time>
      </trkpt>
      <trkpt lat="43.44055" lon="6.1084">
        <ele>236.60000610352</ele>
        <time>2016-03-30T13:20:33Z</time>
      </trkpt>
      <trkpt lat="43.44055" lon="6.1084">
        <ele>236.80000305176</ele>
        <time>2016-03-30T13:20:37Z</time>
      </trkpt>
      <trkpt lat="43.44055" lon="6.1084">
        <ele>236.60000610352</ele>
        <time>2016-03-30T13:20:55Z</time>
      </trkpt>
      <trkpt lat="43.44055" lon="6.1084">
        <ele>236.80000305176</ele>
        <time>2016-03-30T13:21:02Z</time>
      </trkpt>
      <trkpt lat="43.44055" lon="6.1084">
        <ele>236.80000305176</ele>
        <time>2016-03-30T13:21:15Z</time>
      </trkpt>
      <trkpt lat="43.44055" lon="6.1084">
        <ele>236.60000610352</ele>
        <time>2016-03-30T13:21:23Z</time>
      </trkpt>
      <trkpt lat="43.44055" lon="6.1084">
        <ele>236.80000305176</ele>
        <time>2016-03-30T13:21:41Z</time>
      </trkpt>
      <trkpt lat="43.44055" lon="6.1084">
        <ele>236.39999389648</ele>
        <time>2016-03-30T13:22:08Z</time>
      </trkpt>
      <trkpt lat="43.44055" lon="6.1084">
        <ele>236.19999694824</ele>
        <time>2016-03-30T13:22:17Z</time>
      </trkpt>
      <trkpt lat="43.44056" lon="6.1084">
        <ele>236</ele>
        <time>2016-03-30T13:22:18Z</time>
      </trkpt>
      <trkpt lat="43.44056" lon="6.1084">
        <ele>236</ele>
        <time>2016-03-30T13:22:33Z</time>
      </trkpt>
      <trkpt lat="43.44056" lon="6.1084">
        <ele>236.60000610352</ele>
        <time>2016-03-30T13:22:43Z</time>
      </trkpt>
      <trkpt lat="43.44056" lon="6.1084">
        <ele>236.80000305176</ele>
        <time>2016-03-30T13:22:54Z</time>
      </trkpt>
      <trkpt lat="43.44054" lon="6.10845">
        <ele>236.80000305176</ele>
        <time>2016-03-30T13:23:05Z</time>
      </trkpt>
      <trkpt lat="43.44052" lon="6.10851">
        <ele>237</ele>
        <time>2016-03-30T13:23:08Z</time>
      </trkpt>
      <trkpt lat="43.44051" lon="6.10855">
        <ele>237.60000610352</ele>
        <time>2016-03-30T13:23:10Z</time>
      </trkpt>
      <trkpt lat="43.44052" lon="6.10859">
        <ele>238</ele>
        <time>2016-03-30T13:23:11Z</time>
      </trkpt>
      <trkpt lat="43.44051" lon="6.10874">
        <ele>237.60000610352</ele>
        <time>2016-03-30T13:23:16Z</time>
      </trkpt>
      <trkpt lat="43.44049" lon="6.10881">
        <ele>238</ele>
        <time>2016-03-30T13:23:18Z</time>
      </trkpt>
      <trkpt lat="43.44043" lon="6.10894">
        <ele>238.39999389648</ele>
        <time>2016-03-30T13:23:23Z</time>
      </trkpt>
      <trkpt lat="43.44042" lon="6.10897">
        <ele>238.60000610352</ele>
        <time>2016-03-30T13:23:24Z</time>
      </trkpt>
      <trkpt lat="43.4404" lon="6.109">
        <ele>238.80000305176</ele>
        <time>2016-03-30T13:23:25Z</time>
      </trkpt>
      <trkpt lat="43.44031" lon="6.10915">
        <ele>239.60000610352</ele>
        <time>2016-03-30T13:23:31Z</time>
      </trkpt>
      <trkpt lat="43.44029" lon="6.10918">
        <ele>239.60000610352</ele>
        <time>2016-03-30T13:23:32Z</time>
      </trkpt>
      <trkpt lat="43.44028" lon="6.1092">
        <ele>239.80000305176</ele>
        <time>2016-03-30T13:23:33Z</time>
      </trkpt>
      <trkpt lat="43.44018" lon="6.10934">
        <ele>240.19999694824</ele>
        <time>2016-03-30T13:23:39Z</time>
      </trkpt>
      <trkpt lat="43.44017" lon="6.10936">
        <ele>240.19999694824</ele>
        <time>2016-03-30T13:23:40Z</time>
      </trkpt>
      <trkpt lat="43.44013" lon="6.10945">
        <ele>240.80000305176</ele>
        <time>2016-03-30T13:23:44Z</time>
      </trkpt>
      <trkpt lat="43.44011" lon="6.10953">
        <ele>241.19999694824</ele>
        <time>2016-03-30T13:23:47Z</time>
      </trkpt>
      <trkpt lat="43.44011" lon="6.10955">
        <ele>241.60000610352</ele>
        <time>2016-03-30T13:23:48Z</time>
      </trkpt>
      <trkpt lat="43.44004" lon="6.10967">
        <ele>242</ele>
        <time>2016-03-30T13:23:55Z</time>
      </trkpt>
      <trkpt lat="43.44003" lon="6.10969">
        <ele>242.19999694824</ele>
        <time>2016-03-30T13:23:56Z</time>
      </trkpt>
      <trkpt lat="43.43996" lon="6.10977">
        <ele>243.19999694824</ele>
        <time>2016-03-30T13:24:02Z</time>
      </trkpt>
      <trkpt lat="43.43995" lon="6.10979">
        <ele>243.19999694824</ele>
        <time>2016-03-30T13:24:03Z</time>
      </trkpt>
      <trkpt lat="43.43991" lon="6.10989">
        <ele>243.80000305176</ele>
        <time>2016-03-30T13:24:09Z</time>
      </trkpt>
      <trkpt lat="43.43991" lon="6.10993">
        <ele>244.39999389648</ele>
        <time>2016-03-30T13:24:11Z</time>
      </trkpt>
      <trkpt lat="43.43988" lon="6.11">
        <ele>245.19999694824</ele>
        <time>2016-03-30T13:24:15Z</time>
      </trkpt>
      <trkpt lat="43.43985" lon="6.11008">
        <ele>245.19999694824</ele>
        <time>2016-03-30T13:24:20Z</time>
      </trkpt>
      <trkpt lat="43.43983" lon="6.11011">
        <ele>245.39999389648</ele>
        <time>2016-03-30T13:24:22Z</time>
      </trkpt>
      <trkpt lat="43.43981" lon="6.11014">
        <ele>245.80000305176</ele>
        <time>2016-03-30T13:24:24Z</time>
      </trkpt>
      <trkpt lat="43.43975" lon="6.11022">
        <ele>246.39999389648</ele>
        <time>2016-03-30T13:24:30Z</time>
      </trkpt>
      <trkpt lat="43.4397" lon="6.11029">
        <ele>247</ele>
        <time>2016-03-30T13:24:35Z</time>
      </trkpt>
      <trkpt lat="43.43967" lon="6.11031">
        <ele>247</ele>
        <time>2016-03-30T13:24:37Z</time>
      </trkpt>
      <trkpt lat="43.43958" lon="6.11039">
        <ele>248.19999694824</ele>
        <time>2016-03-30T13:24:44Z</time>
      </trkpt>
      <trkpt lat="43.43957" lon="6.1104">
        <ele>248.39999389648</ele>
        <time>2016-03-30T13:24:45Z</time>
      </trkpt>
      <trkpt lat="43.43951" lon="6.11044">
        <ele>249</ele>
        <time>2016-03-30T13:24:50Z</time>
      </trkpt>
      <trkpt lat="43.4395" lon="6.11047">
        <ele>249</ele>
        <time>2016-03-30T13:24:52Z</time>
      </trkpt>
      <trkpt lat="43.43948" lon="6.11048">
        <ele>249.39999389648</ele>
        <time>2016-03-30T13:24:53Z</time>
      </trkpt>
      <trkpt lat="43.43946" lon="6.11052">
        <ele>249.80000305176</ele>
        <time>2016-03-30T13:24:56Z</time>
      </trkpt>
      <trkpt lat="43.43942" lon="6.11055">
        <ele>249.80000305176</ele>
        <time>2016-03-30T13:24:59Z</time>
      </trkpt>
      <trkpt lat="43.43938" lon="6.11057">
        <ele>250.39999389648</ele>
        <time>2016-03-30T13:25:02Z</time>
      </trkpt>
      <trkpt lat="43.43935" lon="6.11062">
        <ele>251.19999694824</ele>
        <time>2016-03-30T13:25:06Z</time>
      </trkpt>
      <trkpt lat="43.43932" lon="6.11066">
        <ele>251.60000610352</ele>
        <time>2016-03-30T13:25:09Z</time>
      </trkpt>
      <trkpt lat="43.43929" lon="6.11073">
        <ele>252.60000610352</ele>
        <time>2016-03-30T13:25:14Z</time>
      </trkpt>
      <trkpt lat="43.43927" lon="6.11085">
        <ele>253.39999389648</ele>
        <time>2016-03-30T13:25:20Z</time>
      </trkpt>
      <trkpt lat="43.43926" lon="6.11086">
        <ele>253.60000610352</ele>
        <time>2016-03-30T13:25:21Z</time>
      </trkpt>
      <trkpt lat="43.43926" lon="6.11089">
        <ele>254</ele>
        <time>2016-03-30T13:25:23Z</time>
      </trkpt>
      <trkpt lat="43.43925" lon="6.11093">
        <ele>254.39999389648</ele>
        <time>2016-03-30T13:25:25Z</time>
      </trkpt>
      <trkpt lat="43.43923" lon="6.11097">
        <ele>254.80000305176</ele>
        <time>2016-03-30T13:25:28Z</time>
      </trkpt>
      <trkpt lat="43.43922" lon="6.11099">
        <ele>255</ele>
        <time>2016-03-30T13:25:29Z</time>
      </trkpt>
      <trkpt lat="43.43922" lon="6.11102">
        <ele>255.39999389648</ele>
        <time>2016-03-30T13:25:31Z</time>
      </trkpt>
      <trkpt lat="43.43921" lon="6.11107">
        <ele>255.39999389648</ele>
        <time>2016-03-30T13:25:34Z</time>
      </trkpt>
      <trkpt lat="43.43919" lon="6.11118">
        <ele>256.20001220703</ele>
        <time>2016-03-30T13:25:40Z</time>
      </trkpt>
      <trkpt lat="43.43917" lon="6.11121">
        <ele>256.39999389648</ele>
        <time>2016-03-30T13:25:42Z</time>
      </trkpt>
      <trkpt lat="43.43917" lon="6.11124">
        <ele>256.60000610352</ele>
        <time>2016-03-30T13:25:44Z</time>
      </trkpt>
      <trkpt lat="43.43916" lon="6.11127">
        <ele>256.79998779297</ele>
        <time>2016-03-30T13:25:46Z</time>
      </trkpt>
      <trkpt lat="43.43915" lon="6.1113">
        <ele>257.39999389648</ele>
        <time>2016-03-30T13:25:48Z</time>
      </trkpt>
      <trkpt lat="43.43911" lon="6.11138">
        <ele>258.20001220703</ele>
        <time>2016-03-30T13:25:53Z</time>
      </trkpt>
      <trkpt lat="43.43909" lon="6.11141">
        <ele>258.79998779297</ele>
        <time>2016-03-30T13:25:55Z</time>
      </trkpt>
      <trkpt lat="43.43907" lon="6.11145">
        <ele>258.60000610352</ele>
        <time>2016-03-30T13:25:57Z</time>
      </trkpt>
      <trkpt lat="43.43904" lon="6.1115">
        <ele>258.60000610352</ele>
        <time>2016-03-30T13:26:00Z</time>
      </trkpt>
      <trkpt lat="43.43898" lon="6.11164">
        <ele>259</ele>
        <time>2016-03-30T13:26:07Z</time>
      </trkpt>
      <trkpt lat="43.43895" lon="6.11178">
        <ele>259.60000610352</ele>
        <time>2016-03-30T13:26:14Z</time>
      </trkpt>
      <trkpt lat="43.43894" lon="6.11182">
        <ele>259.79998779297</ele>
        <time>2016-03-30T13:26:16Z</time>
      </trkpt>
      <trkpt lat="43.43893" lon="6.11188">
        <ele>260</ele>
        <time>2016-03-30T13:26:19Z</time>
      </trkpt>
      <trkpt lat="43.43892" lon="6.11195">
        <ele>260.39999389648</ele>
        <time>2016-03-30T13:26:22Z</time>
      </trkpt>
      <trkpt lat="43.43889" lon="6.11212">
        <ele>260.79998779297</ele>
        <time>2016-03-30T13:26:28Z</time>
      </trkpt>
      <trkpt lat="43.43888" lon="6.11216">
        <ele>260.79998779297</ele>
        <time>2016-03-30T13:26:29Z</time>
      </trkpt>
      <trkpt lat="43.43882" lon="6.11233">
        <ele>259.60000610352</ele>
        <time>2016-03-30T13:26:33Z</time>
      </trkpt>
      <trkpt lat="43.4388" lon="6.11243">
        <ele>259.20001220703</ele>
        <time>2016-03-30T13:26:35Z</time>
      </trkpt>
      <trkpt lat="43.4388" lon="6.11246">
        <ele>258.60000610352</ele>
        <time>2016-03-30T13:26:36Z</time>
      </trkpt>
      <trkpt lat="43.43878" lon="6.11253">
        <ele>257</ele>
        <time>2016-03-30T13:26:38Z</time>
      </trkpt>
      <trkpt lat="43.43876" lon="6.11256">
        <ele>256.79998779297</ele>
        <time>2016-03-30T13:26:39Z</time>
      </trkpt>
      <trkpt lat="43.43871" lon="6.11269">
        <ele>256.60000610352</ele>
        <time>2016-03-30T13:26:43Z</time>
      </trkpt>
      <trkpt lat="43.43867" lon="6.11279">
        <ele>256.20001220703</ele>
        <time>2016-03-30T13:26:45Z</time>
      </trkpt>
      <trkpt lat="43.43866" lon="6.11284">
        <ele>255.80000305176</ele>
        <time>2016-03-30T13:26:46Z</time>
      </trkpt>
      <trkpt lat="43.43863" lon="6.11299">
        <ele>254.39999389648</ele>
        <time>2016-03-30T13:26:49Z</time>
      </trkpt>
      <trkpt lat="43.43861" lon="6.11301">
        <ele>254.19999694824</ele>
        <time>2016-03-30T13:26:50Z</time>
      </trkpt>
      <trkpt lat="43.43856" lon="6.11304">
        <ele>253.80000305176</ele>
        <time>2016-03-30T13:26:52Z</time>
      </trkpt>
      <trkpt lat="43.43853" lon="6.11304">
        <ele>253.19999694824</ele>
        <time>2016-03-30T13:26:53Z</time>
      </trkpt>
      <trkpt lat="43.4385" lon="6.11303">
        <ele>253</ele>
        <time>2016-03-30T13:26:54Z</time>
      </trkpt>
      <trkpt lat="43.43837" lon="6.11305">
        <ele>252.80000305176</ele>
        <time>2016-03-30T13:26:58Z</time>
      </trkpt>
      <trkpt lat="43.43832" lon="6.11306">
        <ele>252.19999694824</ele>
        <time>2016-03-30T13:26:59Z</time>
      </trkpt>
      <trkpt lat="43.43819" lon="6.11312">
        <ele>251</ele>
        <time>2016-03-30T13:27:02Z</time>
      </trkpt>
      <trkpt lat="43.43808" lon="6.11321">
        <ele>250.60000610352</ele>
        <time>2016-03-30T13:27:05Z</time>
      </trkpt>
      <trkpt lat="43.43801" lon="6.11328">
        <ele>251</ele>
        <time>2016-03-30T13:27:09Z</time>
      </trkpt>
      <trkpt lat="43.43796" lon="6.11332">
        <ele>251.39999389648</ele>
        <time>2016-03-30T13:27:12Z</time>
      </trkpt>
      <trkpt lat="43.43792" lon="6.11337">
        <ele>252</ele>
        <time>2016-03-30T13:27:15Z</time>
      </trkpt>
      <trkpt lat="43.4379" lon="6.11338">
        <ele>252</ele>
        <time>2016-03-30T13:27:16Z</time>
      </trkpt>
      <trkpt lat="43.43786" lon="6.11342">
        <ele>253</ele>
        <time>2016-03-30T13:27:19Z</time>
      </trkpt>
      <trkpt lat="43.43784" lon="6.11345">
        <ele>253.39999389648</ele>
        <time>2016-03-30T13:27:21Z</time>
      </trkpt>
      <trkpt lat="43.43783" lon="6.11348">
        <ele>253.39999389648</ele>
        <time>2016-03-30T13:27:23Z</time>
      </trkpt>
      <trkpt lat="43.43784" lon="6.11349">
        <ele>253.39999389648</ele>
        <time>2016-03-30T13:27:26Z</time>
      </trkpt>
      <trkpt lat="43.43784" lon="6.1135">
        <ele>253.19999694824</ele>
        <time>2016-03-30T13:27:37Z</time>
      </trkpt>
      <trkpt lat="43.43784" lon="6.1135">
        <ele>253</ele>
        <time>2016-03-30T13:27:50Z</time>
      </trkpt>
      <trkpt lat="43.43784" lon="6.1135">
        <ele>253</ele>
        <time>2016-03-30T13:27:53Z</time>
      </trkpt>
      <trkpt lat="43.43784" lon="6.1135">
        <ele>253.19999694824</ele>
        <time>2016-03-30T13:28:00Z</time>
      </trkpt>
      <trkpt lat="43.43784" lon="6.1135">
        <ele>253.39999389648</ele>
        <time>2016-03-30T13:28:20Z</time>
      </trkpt>
      <trkpt lat="43.43784" lon="6.1135">
        <ele>253.39999389648</ele>
        <time>2016-03-30T13:28:25Z</time>
      </trkpt>
      <trkpt lat="43.43784" lon="6.1135">
        <ele>253.60000610352</ele>
        <time>2016-03-30T13:28:35Z</time>
      </trkpt>
      <trkpt lat="43.43784" lon="6.1135">
        <ele>253.39999389648</ele>
        <time>2016-03-30T13:28:49Z</time>
      </trkpt>
      <trkpt lat="43.43784" lon="6.1135">
        <ele>252.80000305176</ele>
        <time>2016-03-30T13:29:06Z</time>
      </trkpt>
      <trkpt lat="43.43784" lon="6.1135">
        <ele>253.19999694824</ele>
        <time>2016-03-30T13:29:12Z</time>
      </trkpt>
      <trkpt lat="43.43784" lon="6.1135">
        <ele>253.80000305176</ele>
        <time>2016-03-30T13:29:28Z</time>
      </trkpt>
      <trkpt lat="43.43785" lon="6.1135">
        <ele>253.39999389648</ele>
        <time>2016-03-30T13:29:31Z</time>
      </trkpt>
      <trkpt lat="43.43789" lon="6.1135">
        <ele>253.60000610352</ele>
        <time>2016-03-30T13:29:33Z</time>
      </trkpt>
      <trkpt lat="43.43792" lon="6.11347">
        <ele>254</ele>
        <time>2016-03-30T13:29:35Z</time>
      </trkpt>
      <trkpt lat="43.43795" lon="6.11346">
        <ele>253.60000610352</ele>
        <time>2016-03-30T13:29:36Z</time>
      </trkpt>
      <trkpt lat="43.43801" lon="6.11342">
        <ele>254.39999389648</ele>
        <time>2016-03-30T13:29:39Z</time>
      </trkpt>
      <trkpt lat="43.43803" lon="6.11341">
        <ele>254.60000610352</ele>
        <time>2016-03-30T13:29:40Z</time>
      </trkpt>
      <trkpt lat="43.4381" lon="6.11339">
        <ele>254.80000305176</ele>
        <time>2016-03-30T13:29:43Z</time>
      </trkpt>
      <trkpt lat="43.4382" lon="6.11342">
        <ele>254.60000610352</ele>
        <time>2016-03-30T13:29:48Z</time>
      </trkpt>
      <trkpt lat="43.43825" lon="6.11345">
        <ele>255.19999694824</ele>
        <time>2016-03-30T13:29:51Z</time>
      </trkpt>
      <trkpt lat="43.43832" lon="6.11351">
        <ele>256</ele>
        <time>2016-03-30T13:29:55Z</time>
      </trkpt>
      <trkpt lat="43.43842" lon="6.11362">
        <ele>256</ele>
        <time>2016-03-30T13:30:01Z</time>
      </trkpt>
      <trkpt lat="43.43845" lon="6.11366">
        <ele>256</ele>
        <time>2016-03-30T13:30:03Z</time>
      </trkpt>
      <trkpt lat="43.43848" lon="6.11378">
        <ele>255.80000305176</ele>
        <time>2016-03-30T13:30:08Z</time>
      </trkpt>
      <trkpt lat="43.43846" lon="6.11385">
        <ele>256.39999389648</ele>
        <time>2016-03-30T13:30:11Z</time>
      </trkpt>
      <trkpt lat="43.43845" lon="6.11393">
        <ele>257.20001220703</ele>
        <time>2016-03-30T13:30:15Z</time>
      </trkpt>
      <trkpt lat="43.43843" lon="6.11396">
        <ele>257.60000610352</ele>
        <time>2016-03-30T13:30:17Z</time>
      </trkpt>
      <trkpt lat="43.43842" lon="6.11405">
        <ele>258.39999389648</ele>
        <time>2016-03-30T13:30:22Z</time>
      </trkpt>
      <trkpt lat="43.43841" lon="6.11408">
        <ele>258.60000610352</ele>
        <time>2016-03-30T13:30:24Z</time>
      </trkpt>
      <trkpt lat="43.43836" lon="6.11413">
        <ele>259.60000610352</ele>
        <time>2016-03-30T13:30:29Z</time>
      </trkpt>
      <trkpt lat="43.43835" lon="6.11414">
        <ele>259.79998779297</ele>
        <time>2016-03-30T13:30:30Z</time>
      </trkpt>
      <trkpt lat="43.43832" lon="6.11414">
        <ele>260.39999389648</ele>
        <time>2016-03-30T13:30:32Z</time>
      </trkpt>
      <trkpt lat="43.43828" lon="6.11412">
        <ele>260.39999389648</ele>
        <time>2016-03-30T13:30:35Z</time>
      </trkpt>
      <trkpt lat="43.43826" lon="6.11413">
        <ele>261</ele>
        <time>2016-03-30T13:30:37Z</time>
      </trkpt>
      <trkpt lat="43.43823" lon="6.11415">
        <ele>261.79998779297</ele>
        <time>2016-03-30T13:30:39Z</time>
      </trkpt>
      <trkpt lat="43.43821" lon="6.11417">
        <ele>262</ele>
        <time>2016-03-30T13:30:41Z</time>
      </trkpt>
      <trkpt lat="43.43819" lon="6.11419">
        <ele>263.20001220703</ele>
        <time>2016-03-30T13:30:45Z</time>
      </trkpt>
      <trkpt lat="43.43819" lon="6.11419">
        <ele>263.20001220703</ele>
        <time>2016-03-30T13:30:47Z</time>
      </trkpt>
      <trkpt lat="43.4382" lon="6.1142">
        <ele>263</ele>
        <time>2016-03-30T13:30:53Z</time>
      </trkpt>
      <trkpt lat="43.4382" lon="6.11422">
        <ele>263.20001220703</ele>
        <time>2016-03-30T13:30:55Z</time>
      </trkpt>
      <trkpt lat="43.4382" lon="6.11422">
        <ele>263.20001220703</ele>
        <time>2016-03-30T13:30:59Z</time>
      </trkpt>
      <trkpt lat="43.4382" lon="6.11424">
        <ele>263.39999389648</ele>
        <time>2016-03-30T13:31:01Z</time>
      </trkpt>
      <trkpt lat="43.43819" lon="6.11425">
        <ele>264</ele>
        <time>2016-03-30T13:31:08Z</time>
      </trkpt>
      <trkpt lat="43.43818" lon="6.11425">
        <ele>263.79998779297</ele>
        <time>2016-03-30T13:31:14Z</time>
      </trkpt>
      <trkpt lat="43.43816" lon="6.11428">
        <ele>264.20001220703</ele>
        <time>2016-03-30T13:31:21Z</time>
      </trkpt>
      <trkpt lat="43.43815" lon="6.11429">
        <ele>264.60000610352</ele>
        <time>2016-03-30T13:31:22Z</time>
      </trkpt>
      <trkpt lat="43.4381" lon="6.11435">
        <ele>265.60000610352</ele>
        <time>2016-03-30T13:31:27Z</time>
      </trkpt>
      <trkpt lat="43.43808" lon="6.11437">
        <ele>266.20001220703</ele>
        <time>2016-03-30T13:31:29Z</time>
      </trkpt>
      <trkpt lat="43.43801" lon="6.1144">
        <ele>267</ele>
        <time>2016-03-30T13:31:34Z</time>
      </trkpt>
      <trkpt lat="43.43798" lon="6.11443">
        <ele>267.39999389648</ele>
        <time>2016-03-30T13:31:37Z</time>
      </trkpt>
      <trkpt lat="43.43796" lon="6.11447">
        <ele>267.60000610352</ele>
        <time>2016-03-30T13:31:41Z</time>
      </trkpt>
      <trkpt lat="43.43795" lon="6.11452">
        <ele>267.60000610352</ele>
        <time>2016-03-30T13:31:44Z</time>
      </trkpt>
      <trkpt lat="43.43795" lon="6.1146">
        <ele>268</ele>
        <time>2016-03-30T13:31:48Z</time>
      </trkpt>
      <trkpt lat="43.43795" lon="6.11466">
        <ele>268.79998779297</ele>
        <time>2016-03-30T13:31:51Z</time>
      </trkpt>
      <trkpt lat="43.43795" lon="6.11468">
        <ele>269.20001220703</ele>
        <time>2016-03-30T13:31:52Z</time>
      </trkpt>
      <trkpt lat="43.43795" lon="6.11473">
        <ele>270.20001220703</ele>
        <time>2016-03-30T13:31:55Z</time>
      </trkpt>
      <trkpt lat="43.43795" lon="6.11474">
        <ele>270.60000610352</ele>
        <time>2016-03-30T13:31:56Z</time>
      </trkpt>
      <trkpt lat="43.43795" lon="6.11478">
        <ele>271.20001220703</ele>
        <time>2016-03-30T13:31:58Z</time>
      </trkpt>
      <trkpt lat="43.43796" lon="6.11484">
        <ele>271.79998779297</ele>
        <time>2016-03-30T13:32:01Z</time>
      </trkpt>
      <trkpt lat="43.43796" lon="6.11485">
        <ele>272</ele>
        <time>2016-03-30T13:32:02Z</time>
      </trkpt>
      <trkpt lat="43.43796" lon="6.11489">
        <ele>272.39999389648</ele>
        <time>2016-03-30T13:32:04Z</time>
      </trkpt>
      <trkpt lat="43.43797" lon="6.11492">
        <ele>273</ele>
        <time>2016-03-30T13:32:06Z</time>
      </trkpt>
      <trkpt lat="43.43796" lon="6.11495">
        <ele>273.20001220703</ele>
        <time>2016-03-30T13:32:08Z</time>
      </trkpt>
      <trkpt lat="43.43796" lon="6.11496">
        <ele>273.39999389648</ele>
        <time>2016-03-30T13:32:09Z</time>
      </trkpt>
      <trkpt lat="43.43797" lon="6.11497">
        <ele>273.79998779297</ele>
        <time>2016-03-30T13:32:10Z</time>
      </trkpt>
      <trkpt lat="43.43797" lon="6.11502">
        <ele>274.60000610352</ele>
        <time>2016-03-30T13:32:13Z</time>
      </trkpt>
      <trkpt lat="43.43801" lon="6.11509">
        <ele>275.79998779297</ele>
        <time>2016-03-30T13:32:18Z</time>
      </trkpt>
      <trkpt lat="43.43803" lon="6.1151">
        <ele>276</ele>
        <time>2016-03-30T13:32:20Z</time>
      </trkpt>
      <trkpt lat="43.43808" lon="6.11512">
        <ele>276.79998779297</ele>
        <time>2016-03-30T13:32:25Z</time>
      </trkpt>
      <trkpt lat="43.4381" lon="6.11512">
        <ele>277.20001220703</ele>
        <time>2016-03-30T13:32:27Z</time>
      </trkpt>
      <trkpt lat="43.43814" lon="6.11511">
        <ele>278</ele>
        <time>2016-03-30T13:32:30Z</time>
      </trkpt>
      <trkpt lat="43.43816" lon="6.11511">
        <ele>278.20001220703</ele>
        <time>2016-03-30T13:32:32Z</time>
      </trkpt>
      <trkpt lat="43.43816" lon="6.11512">
        <ele>278.39999389648</ele>
        <time>2016-03-30T13:32:33Z</time>
      </trkpt>
      <trkpt lat="43.43819" lon="6.11515">
        <ele>279</ele>
        <time>2016-03-30T13:32:37Z</time>
      </trkpt>
      <trkpt lat="43.4382" lon="6.11516">
        <ele>279</ele>
        <time>2016-03-30T13:32:38Z</time>
      </trkpt>
      <trkpt lat="43.43821" lon="6.11519">
        <ele>279.20001220703</ele>
        <time>2016-03-30T13:32:40Z</time>
      </trkpt>
      <trkpt lat="43.43821" lon="6.11526">
        <ele>280</ele>
        <time>2016-03-30T13:32:45Z</time>
      </trkpt>
      <trkpt lat="43.43821" lon="6.11529">
        <ele>280.20001220703</ele>
        <time>2016-03-30T13:32:47Z</time>
      </trkpt>
      <trkpt lat="43.43819" lon="6.11538">
        <ele>281.20001220703</ele>
        <time>2016-03-30T13:32:54Z</time>
      </trkpt>
      <trkpt lat="43.43819" lon="6.11539">
        <ele>281.39999389648</ele>
        <time>2016-03-30T13:32:55Z</time>
      </trkpt>
      <trkpt lat="43.43818" lon="6.11547">
        <ele>282</ele>
        <time>2016-03-30T13:33:01Z</time>
      </trkpt>
      <trkpt lat="43.43817" lon="6.11552">
        <ele>282</ele>
        <time>2016-03-30T13:33:05Z</time>
      </trkpt>
      <trkpt lat="43.43816" lon="6.11555">
        <ele>282</ele>
        <time>2016-03-30T13:33:07Z</time>
      </trkpt>
      <trkpt lat="43.43816" lon="6.11558">
        <ele>282.39999389648</ele>
        <time>2016-03-30T13:33:10Z</time>
      </trkpt>
      <trkpt lat="43.43815" lon="6.11562">
        <ele>282.60000610352</ele>
        <time>2016-03-30T13:33:14Z</time>
      </trkpt>
      <trkpt lat="43.43815" lon="6.11562">
        <ele>282.20001220703</ele>
        <time>2016-03-30T13:33:19Z</time>
      </trkpt>
      <trkpt lat="43.43815" lon="6.11562">
        <ele>282.39999389648</ele>
        <time>2016-03-30T13:33:21Z</time>
      </trkpt>
      <trkpt lat="43.43815" lon="6.11562">
        <ele>283.39999389648</ele>
        <time>2016-03-30T13:33:25Z</time>
      </trkpt>
      <trkpt lat="43.43815" lon="6.11562">
        <ele>283.60000610352</ele>
        <time>2016-03-30T13:33:26Z</time>
      </trkpt>
      <trkpt lat="43.43815" lon="6.11562">
        <ele>282.60000610352</ele>
        <time>2016-03-30T13:33:29Z</time>
      </trkpt>
      <trkpt lat="43.43815" lon="6.11562">
        <ele>282.79998779297</ele>
        <time>2016-03-30T13:33:33Z</time>
      </trkpt>
      <trkpt lat="43.43815" lon="6.11562">
        <ele>282.79998779297</ele>
        <time>2016-03-30T13:33:36Z</time>
      </trkpt>
      <trkpt lat="43.43815" lon="6.11562">
        <ele>282.39999389648</ele>
        <time>2016-03-30T13:33:40Z</time>
      </trkpt>
      <trkpt lat="43.43815" lon="6.11562">
        <ele>282.39999389648</ele>
        <time>2016-03-30T13:33:47Z</time>
      </trkpt>
      <trkpt lat="43.43815" lon="6.11562">
        <ele>282.60000610352</ele>
        <time>2016-03-30T13:33:49Z</time>
      </trkpt>
      <trkpt lat="43.43815" lon="6.11562">
        <ele>282.79998779297</ele>
        <time>2016-03-30T13:33:51Z</time>
      </trkpt>
      <trkpt lat="43.43815" lon="6.11562">
        <ele>282.79998779297</ele>
        <time>2016-03-30T13:33:54Z</time>
      </trkpt>
      <trkpt lat="43.43815" lon="6.11562">
        <ele>283</ele>
        <time>2016-03-30T13:34:12Z</time>
      </trkpt>
      <trkpt lat="43.43815" lon="6.11562">
        <ele>282.60000610352</ele>
        <time>2016-03-30T13:34:17Z</time>
      </trkpt>
      <trkpt lat="43.43815" lon="6.11562">
        <ele>282.79998779297</ele>
        <time>2016-03-30T13:34:26Z</time>
      </trkpt>
      <trkpt lat="43.43815" lon="6.11562">
        <ele>282.79998779297</ele>
        <time>2016-03-30T13:34:34Z</time>
      </trkpt>
      <trkpt lat="43.43815" lon="6.11562">
        <ele>282.60000610352</ele>
        <time>2016-03-30T13:34:45Z</time>
      </trkpt>
      <trkpt lat="43.43815" lon="6.11562">
        <ele>282.79998779297</ele>
        <time>2016-03-30T13:34:54Z</time>
      </trkpt>
      <trkpt lat="43.43815" lon="6.11562">
        <ele>282.79998779297</ele>
        <time>2016-03-30T13:35:05Z</time>
      </trkpt>
      <trkpt lat="43.43815" lon="6.11562">
        <ele>283</ele>
        <time>2016-03-30T13:35:23Z</time>
      </trkpt>
      <trkpt lat="43.43815" lon="6.11562">
        <ele>282.79998779297</ele>
        <time>2016-03-30T13:35:34Z</time>
      </trkpt>
      <trkpt lat="43.43815" lon="6.11562">
        <ele>282.79998779297</ele>
        <time>2016-03-30T13:35:41Z</time>
      </trkpt>
      <trkpt lat="43.43815" lon="6.11562">
        <ele>282.39999389648</ele>
        <time>2016-03-30T13:35:44Z</time>
      </trkpt>
      <trkpt lat="43.43816" lon="6.11563">
        <ele>282.60000610352</ele>
        <time>2016-03-30T13:35:48Z</time>
      </trkpt>
      <trkpt lat="43.43816" lon="6.11567">
        <ele>282.79998779297</ele>
        <time>2016-03-30T13:36:01Z</time>
      </trkpt>
      <trkpt lat="43.43823" lon="6.1158">
        <ele>282.39999389648</ele>
        <time>2016-03-30T13:36:06Z</time>
      </trkpt>
      <trkpt lat="43.43838" lon="6.11599">
        <ele>281.39999389648</ele>
        <time>2016-03-30T13:36:12Z</time>
      </trkpt>
      <trkpt lat="43.4384" lon="6.11601">
        <ele>281.20001220703</ele>
        <time>2016-03-30T13:36:13Z</time>
      </trkpt>
      <trkpt lat="43.43843" lon="6.11607">
        <ele>282.39999389648</ele>
        <time>2016-03-30T13:36:16Z</time>
      </trkpt>
      <trkpt lat="43.43845" lon="6.11611">
        <ele>283.39999389648</ele>
        <time>2016-03-30T13:36:18Z</time>
      </trkpt>
      <trkpt lat="43.43845" lon="6.11614">
        <ele>283.39999389648</ele>
        <time>2016-03-30T13:36:19Z</time>
      </trkpt>
      <trkpt lat="43.43844" lon="6.11621">
        <ele>283.79998779297</ele>
        <time>2016-03-30T13:36:22Z</time>
      </trkpt>
      <trkpt lat="43.43845" lon="6.11628">
        <ele>284</ele>
        <time>2016-03-30T13:36:25Z</time>
      </trkpt>
      <trkpt lat="43.43844" lon="6.11631">
        <ele>284.60000610352</ele>
        <time>2016-03-30T13:36:26Z</time>
      </trkpt>
      <trkpt lat="43.43845" lon="6.1164">
        <ele>284.79998779297</ele>
        <time>2016-03-30T13:36:30Z</time>
      </trkpt>
      <trkpt lat="43.43847" lon="6.11649">
        <ele>285.20001220703</ele>
        <time>2016-03-30T13:36:34Z</time>
      </trkpt>
      <trkpt lat="43.43847" lon="6.11654">
        <ele>285.60000610352</ele>
        <time>2016-03-30T13:36:36Z</time>
      </trkpt>
      <trkpt lat="43.4385" lon="6.11663">
        <ele>286.20001220703</ele>
        <time>2016-03-30T13:36:41Z</time>
      </trkpt>
      <trkpt lat="43.43851" lon="6.11667">
        <ele>286.20001220703</ele>
        <time>2016-03-30T13:36:43Z</time>
      </trkpt>
      <trkpt lat="43.43852" lon="6.11673">
        <ele>286.79998779297</ele>
        <time>2016-03-30T13:36:46Z</time>
      </trkpt>
      <trkpt lat="43.43856" lon="6.11676">
        <ele>287.39999389648</ele>
        <time>2016-03-30T13:36:49Z</time>
      </trkpt>
      <trkpt lat="43.43857" lon="6.11676">
        <ele>287.60000610352</ele>
        <time>2016-03-30T13:36:50Z</time>
      </trkpt>
      <trkpt lat="43.43859" lon="6.11676">
        <ele>287.79998779297</ele>
        <time>2016-03-30T13:36:51Z</time>
      </trkpt>
      <trkpt lat="43.43863" lon="6.11675">
        <ele>288.60000610352</ele>
        <time>2016-03-30T13:36:54Z</time>
      </trkpt>
      <trkpt lat="43.43864" lon="6.11674">
        <ele>289</ele>
        <time>2016-03-30T13:36:55Z</time>
      </trkpt>
      <trkpt lat="43.43868" lon="6.11669">
        <ele>289.79998779297</ele>
        <time>2016-03-30T13:36:59Z</time>
      </trkpt>
      <trkpt lat="43.43869" lon="6.11668">
        <ele>290.20001220703</ele>
        <time>2016-03-30T13:37:00Z</time>
      </trkpt>
      <trkpt lat="43.4387" lon="6.11666">
        <ele>290.60000610352</ele>
        <time>2016-03-30T13:37:01Z</time>
      </trkpt>
      <trkpt lat="43.43871" lon="6.11664">
        <ele>291</ele>
        <time>2016-03-30T13:37:03Z</time>
      </trkpt>
      <trkpt lat="43.43871" lon="6.11664">
        <ele>291.20001220703</ele>
        <time>2016-03-30T13:37:07Z</time>
      </trkpt>
      <trkpt lat="43.43871" lon="6.11665">
        <ele>291.20001220703</ele>
        <time>2016-03-30T13:37:11Z</time>
      </trkpt>
      <trkpt lat="43.43871" lon="6.11665">
        <ele>291.39999389648</ele>
        <time>2016-03-30T13:37:15Z</time>
      </trkpt>
      <trkpt lat="43.43871" lon="6.11665">
        <ele>291.39999389648</ele>
        <time>2016-03-30T13:37:18Z</time>
      </trkpt>
      <trkpt lat="43.43871" lon="6.11664">
        <ele>291.39999389648</ele>
        <time>2016-03-30T13:37:27Z</time>
      </trkpt>
      <trkpt lat="43.43871" lon="6.11664">
        <ele>291.39999389648</ele>
        <time>2016-03-30T13:37:33Z</time>
      </trkpt>
      <trkpt lat="43.43871" lon="6.11664">
        <ele>291.39999389648</ele>
        <time>2016-03-30T13:37:42Z</time>
      </trkpt>
      <trkpt lat="43.43871" lon="6.11664">
        <ele>291.60000610352</ele>
        <time>2016-03-30T13:37:45Z</time>
      </trkpt>
      <trkpt lat="43.43871" lon="6.11664">
        <ele>291.39999389648</ele>
        <time>2016-03-30T13:37:48Z</time>
      </trkpt>
      <trkpt lat="43.43871" lon="6.11664">
        <ele>291.60000610352</ele>
        <time>2016-03-30T13:37:50Z</time>
      </trkpt>
      <trkpt lat="43.4387" lon="6.11663">
        <ele>291.60000610352</ele>
        <time>2016-03-30T13:37:56Z</time>
      </trkpt>
      <trkpt lat="43.4387" lon="6.11663">
        <ele>291.60000610352</ele>
        <time>2016-03-30T13:38:02Z</time>
      </trkpt>
      <trkpt lat="43.4387" lon="6.11663">
        <ele>291.79998779297</ele>
        <time>2016-03-30T13:38:05Z</time>
      </trkpt>
      <trkpt lat="43.4387" lon="6.11663">
        <ele>291.39999389648</ele>
        <time>2016-03-30T13:38:07Z</time>
      </trkpt>
      <trkpt lat="43.4387" lon="6.11663">
        <ele>291.60000610352</ele>
        <time>2016-03-30T13:38:10Z</time>
      </trkpt>
      <trkpt lat="43.4387" lon="6.11663">
        <ele>291.60000610352</ele>
        <time>2016-03-30T13:38:12Z</time>
      </trkpt>
      <trkpt lat="43.4387" lon="6.11663">
        <ele>291.60000610352</ele>
        <time>2016-03-30T13:38:15Z</time>
      </trkpt>
      <trkpt lat="43.4387" lon="6.11663">
        <ele>291.39999389648</ele>
        <time>2016-03-30T13:38:21Z</time>
      </trkpt>
      <trkpt lat="43.4387" lon="6.11663">
        <ele>291.60000610352</ele>
        <time>2016-03-30T13:38:27Z</time>
      </trkpt>
      <trkpt lat="43.4387" lon="6.11663">
        <ele>291.39999389648</ele>
        <time>2016-03-30T13:38:33Z</time>
      </trkpt>
      <trkpt lat="43.4387" lon="6.11663">
        <ele>291.39999389648</ele>
        <time>2016-03-30T13:38:39Z</time>
      </trkpt>
      <trkpt lat="43.4387" lon="6.11663">
        <ele>291.39999389648</ele>
        <time>2016-03-30T13:38:42Z</time>
      </trkpt>
      <trkpt lat="43.4387" lon="6.11662">
        <ele>291.60000610352</ele>
        <time>2016-03-30T13:38:59Z</time>
      </trkpt>
      <trkpt lat="43.4387" lon="6.11662">
        <ele>291.60000610352</ele>
        <time>2016-03-30T13:39:00Z</time>
      </trkpt>
      <trkpt lat="43.43871" lon="6.11662">
        <ele>292</ele>
        <time>2016-03-30T13:39:07Z</time>
      </trkpt>
      <trkpt lat="43.43872" lon="6.11661">
        <ele>292.39999389648</ele>
        <time>2016-03-30T13:39:11Z</time>
      </trkpt>
      <trkpt lat="43.43873" lon="6.1166">
        <ele>292.60000610352</ele>
        <time>2016-03-30T13:39:12Z</time>
      </trkpt>
      <trkpt lat="43.43873" lon="6.11658">
        <ele>292.79998779297</ele>
        <time>2016-03-30T13:39:13Z</time>
      </trkpt>
      <trkpt lat="43.43874" lon="6.11657">
        <ele>293.20001220703</ele>
        <time>2016-03-30T13:39:14Z</time>
      </trkpt>
      <trkpt lat="43.43875" lon="6.11656">
        <ele>293.39999389648</ele>
        <time>2016-03-30T13:39:15Z</time>
      </trkpt>
      <trkpt lat="43.43876" lon="6.11652">
        <ele>294</ele>
        <time>2016-03-30T13:39:17Z</time>
      </trkpt>
      <trkpt lat="43.43878" lon="6.1165">
        <ele>294.20001220703</ele>
        <time>2016-03-30T13:39:19Z</time>
      </trkpt>
      <trkpt lat="43.4388" lon="6.11646">
        <ele>295</ele>
        <time>2016-03-30T13:39:21Z</time>
      </trkpt>
      <trkpt lat="43.43882" lon="6.11643">
        <ele>295.79998779297</ele>
        <time>2016-03-30T13:39:23Z</time>
      </trkpt>
      <trkpt lat="43.43884" lon="6.11641">
        <ele>296.20001220703</ele>
        <time>2016-03-30T13:39:24Z</time>
      </trkpt>
      <trkpt lat="43.43884" lon="6.1164">
        <ele>296.39999389648</ele>
        <time>2016-03-30T13:39:25Z</time>
      </trkpt>
      <trkpt lat="43.43885" lon="6.11637">
        <ele>296.79998779297</ele>
        <time>2016-03-30T13:39:27Z</time>
      </trkpt>
      <trkpt lat="43.43888" lon="6.11634">
        <ele>297.20001220703</ele>
        <time>2016-03-30T13:39:30Z</time>
      </trkpt>
      <trkpt lat="43.43888" lon="6.11633">
        <ele>297.39999389648</ele>
        <time>2016-03-30T13:39:31Z</time>
      </trkpt>
      <trkpt lat="43.4389" lon="6.1163">
        <ele>297.60000610352</ele>
        <time>2016-03-30T13:39:33Z</time>
      </trkpt>
      <trkpt lat="43.43895" lon="6.11626">
        <ele>298.39999389648</ele>
        <time>2016-03-30T13:39:38Z</time>
      </trkpt>
      <trkpt lat="43.43896" lon="6.11624">
        <ele>298.79998779297</ele>
        <time>2016-03-30T13:39:40Z</time>
      </trkpt>
      <trkpt lat="43.43901" lon="6.11619">
        <ele>299.79998779297</ele>
        <time>2016-03-30T13:39:44Z</time>
      </trkpt>
      <trkpt lat="43.43906" lon="6.11615">
        <ele>301</ele>
        <time>2016-03-30T13:39:49Z</time>
      </trkpt>
      <trkpt lat="43.43909" lon="6.11614">
        <ele>302</ele>
        <time>2016-03-30T13:39:52Z</time>
      </trkpt>
      <trkpt lat="43.43913" lon="6.11615">
        <ele>302.60000610352</ele>
        <time>2016-03-30T13:39:56Z</time>
      </trkpt>
      <trkpt lat="43.43921" lon="6.11616">
        <ele>303.20001220703</ele>
        <time>2016-03-30T13:40:03Z</time>
      </trkpt>
      <trkpt lat="43.43927" lon="6.11615">
        <ele>304.39999389648</ele>
        <time>2016-03-30T13:40:09Z</time>
      </trkpt>
      <trkpt lat="43.43928" lon="6.11615">
        <ele>304.60000610352</ele>
        <time>2016-03-30T13:40:11Z</time>
      </trkpt>
      <trkpt lat="43.43935" lon="6.11611">
        <ele>304.60000610352</ele>
        <time>2016-03-30T13:40:19Z</time>
      </trkpt>
      <trkpt lat="43.43937" lon="6.11609">
        <ele>304.79998779297</ele>
        <time>2016-03-30T13:40:24Z</time>
      </trkpt>
      <trkpt lat="43.43937" lon="6.11609">
        <ele>305</ele>
        <time>2016-03-30T13:40:29Z</time>
      </trkpt>
      <trkpt lat="43.43937" lon="6.11609">
        <ele>305</ele>
        <time>2016-03-30T13:40:33Z</time>
      </trkpt>
      <trkpt lat="43.43937" lon="6.11609">
        <ele>304.79998779297</ele>
        <time>2016-03-30T13:40:40Z</time>
      </trkpt>
      <trkpt lat="43.43937" lon="6.11609">
        <ele>305</ele>
        <time>2016-03-30T13:40:44Z</time>
      </trkpt>
      <trkpt lat="43.43937" lon="6.11609">
        <ele>304.79998779297</ele>
        <time>2016-03-30T13:40:48Z</time>
      </trkpt>
      <trkpt lat="43.43937" lon="6.11609">
        <ele>304.79998779297</ele>
        <time>2016-03-30T13:40:50Z</time>
      </trkpt>
      <trkpt lat="43.43937" lon="6.11609">
        <ele>304.79998779297</ele>
        <time>2016-03-30T13:40:54Z</time>
      </trkpt>
      <trkpt lat="43.43937" lon="6.11609">
        <ele>305</ele>
        <time>2016-03-30T13:40:57Z</time>
      </trkpt>
      <trkpt lat="43.43937" lon="6.11609">
        <ele>305</ele>
        <time>2016-03-30T13:40:59Z</time>
      </trkpt>
      <trkpt lat="43.43937" lon="6.11609">
        <ele>304.79998779297</ele>
        <time>2016-03-30T13:41:03Z</time>
      </trkpt>
      <trkpt lat="43.43937" lon="6.11609">
        <ele>305</ele>
        <time>2016-03-30T13:41:06Z</time>
      </trkpt>
      <trkpt lat="43.43937" lon="6.11609">
        <ele>305</ele>
        <time>2016-03-30T13:41:09Z</time>
      </trkpt>
      <trkpt lat="43.43937" lon="6.11609">
        <ele>305</ele>
        <time>2016-03-30T13:41:15Z</time>
      </trkpt>
      <trkpt lat="43.43937" lon="6.11609">
        <ele>305</ele>
        <time>2016-03-30T13:41:27Z</time>
      </trkpt>
      <trkpt lat="43.43937" lon="6.11609">
        <ele>305</ele>
        <time>2016-03-30T13:41:31Z</time>
      </trkpt>
      <trkpt lat="43.43937" lon="6.11609">
        <ele>305</ele>
        <time>2016-03-30T13:41:43Z</time>
      </trkpt>
      <trkpt lat="43.43937" lon="6.11609">
        <ele>304.79998779297</ele>
        <time>2016-03-30T13:41:48Z</time>
      </trkpt>
      <trkpt lat="43.43938" lon="6.11608">
        <ele>305</ele>
        <time>2016-03-30T13:41:50Z</time>
      </trkpt>
      <trkpt lat="43.43939" lon="6.11606">
        <ele>305.20001220703</ele>
        <time>2016-03-30T13:41:52Z</time>
      </trkpt>
      <trkpt lat="43.43941" lon="6.11601">
        <ele>305.20001220703</ele>
        <time>2016-03-30T13:41:55Z</time>
      </trkpt>
      <trkpt lat="43.43942" lon="6.11598">
        <ele>305.20001220703</ele>
        <time>2016-03-30T13:41:56Z</time>
      </trkpt>
      <trkpt lat="43.43948" lon="6.11586">
        <ele>304</ele>
        <time>2016-03-30T13:42:00Z</time>
      </trkpt>
      <trkpt lat="43.43954" lon="6.11574">
        <ele>303.20001220703</ele>
        <time>2016-03-30T13:42:03Z</time>
      </trkpt>
      <trkpt lat="43.43957" lon="6.11564">
        <ele>303.60000610352</ele>
        <time>2016-03-30T13:42:05Z</time>
      </trkpt>
      <trkpt lat="43.43959" lon="6.11558">
        <ele>303.60000610352</ele>
        <time>2016-03-30T13:42:06Z</time>
      </trkpt>
      <trkpt lat="43.43961" lon="6.11552">
        <ele>304</ele>
        <time>2016-03-30T13:42:07Z</time>
      </trkpt>
      <trkpt lat="43.43971" lon="6.11539">
        <ele>302.60000610352</ele>
        <time>2016-03-30T13:42:10Z</time>
      </trkpt>
      <trkpt lat="43.43984" lon="6.11532">
        <ele>301</ele>
        <time>2016-03-30T13:42:13Z</time>
      </trkpt>
      <trkpt lat="43.43988" lon="6.1153">
        <ele>300.79998779297</ele>
        <time>2016-03-30T13:42:14Z</time>
      </trkpt>
      <trkpt lat="43.43992" lon="6.11528">
        <ele>301.60000610352</ele>
        <time>2016-03-30T13:42:15Z</time>
      </trkpt>
      <trkpt lat="43.44009" lon="6.11521">
        <ele>300.20001220703</ele>
        <time>2016-03-30T13:42:20Z</time>
      </trkpt>
      <trkpt lat="43.44012" lon="6.11519">
        <ele>299.60000610352</ele>
        <time>2016-03-30T13:42:21Z</time>
      </trkpt>
      <trkpt lat="43.44028" lon="6.11516">
        <ele>299.20001220703</ele>
        <time>2016-03-30T13:42:27Z</time>
      </trkpt>
      <trkpt lat="43.44045" lon="6.11518">
        <ele>299</ele>
        <time>2016-03-30T13:42:34Z</time>
      </trkpt>
      <trkpt lat="43.44048" lon="6.11523">
        <ele>298.39999389648</ele>
        <time>2016-03-30T13:42:36Z</time>
      </trkpt>
      <trkpt lat="43.4405" lon="6.11531">
        <ele>298.20001220703</ele>
        <time>2016-03-30T13:42:38Z</time>
      </trkpt>
      <trkpt lat="43.44049" lon="6.11543">
        <ele>297.39999389648</ele>
        <time>2016-03-30T13:42:41Z</time>
      </trkpt>
      <trkpt lat="43.44048" lon="6.11549">
        <ele>296.60000610352</ele>
        <time>2016-03-30T13:42:43Z</time>
      </trkpt>
      <trkpt lat="43.44047" lon="6.11551">
        <ele>296.20001220703</ele>
        <time>2016-03-30T13:42:44Z</time>
      </trkpt>
      <trkpt lat="43.44046" lon="6.11554">
        <ele>296.20001220703</ele>
        <time>2016-03-30T13:42:45Z</time>
      </trkpt>
      <trkpt lat="43.44043" lon="6.11565">
        <ele>295.79998779297</ele>
        <time>2016-03-30T13:42:48Z</time>
      </trkpt>
      <trkpt lat="43.44043" lon="6.1157">
        <ele>294.20001220703</ele>
        <time>2016-03-30T13:42:49Z</time>
      </trkpt>
      <trkpt lat="43.44042" lon="6.11576">
        <ele>293.39999389648</ele>
        <time>2016-03-30T13:42:50Z</time>
      </trkpt>
      <trkpt lat="43.44042" lon="6.11585">
        <ele>293.20001220703</ele>
        <time>2016-03-30T13:42:52Z</time>
      </trkpt>
      <trkpt lat="43.44043" lon="6.1159">
        <ele>293</ele>
        <time>2016-03-30T13:42:53Z</time>
      </trkpt>
      <trkpt lat="43.44049" lon="6.11595">
        <ele>292</ele>
        <time>2016-03-30T13:42:55Z</time>
      </trkpt>
      <trkpt lat="43.44061" lon="6.11598">
        <ele>291.20001220703</ele>
        <time>2016-03-30T13:42:58Z</time>
      </trkpt>
      <trkpt lat="43.44064" lon="6.11601">
        <ele>290.39999389648</ele>
        <time>2016-03-30T13:42:59Z</time>
      </trkpt>
      <trkpt lat="43.44064" lon="6.11611">
        <ele>289.79998779297</ele>
        <time>2016-03-30T13:43:01Z</time>
      </trkpt>
      <trkpt lat="43.44063" lon="6.11616">
        <ele>288.39999389648</ele>
        <time>2016-03-30T13:43:02Z</time>
      </trkpt>
      <trkpt lat="43.44061" lon="6.1162">
        <ele>287.60000610352</ele>
        <time>2016-03-30T13:43:03Z</time>
      </trkpt>
      <trkpt lat="43.44056" lon="6.11628">
        <ele>289</ele>
        <time>2016-03-30T13:43:05Z</time>
      </trkpt>
      <trkpt lat="43.44053" lon="6.11632">
        <ele>289.20001220703</ele>
        <time>2016-03-30T13:43:06Z</time>
      </trkpt>
      <trkpt lat="43.44049" lon="6.11637">
        <ele>288.39999389648</ele>
        <time>2016-03-30T13:43:07Z</time>
      </trkpt>
      <trkpt lat="43.44046" lon="6.11643">
        <ele>287.39999389648</ele>
        <time>2016-03-30T13:43:08Z</time>
      </trkpt>
      <trkpt lat="43.4404" lon="6.11661">
        <ele>286.20001220703</ele>
        <time>2016-03-30T13:43:11Z</time>
      </trkpt>
      <trkpt lat="43.44038" lon="6.11667">
        <ele>286</ele>
        <time>2016-03-30T13:43:12Z</time>
      </trkpt>
      <trkpt lat="43.44036" lon="6.11674">
        <ele>287.20001220703</ele>
        <time>2016-03-30T13:43:13Z</time>
      </trkpt>
      <trkpt lat="43.44033" lon="6.11695">
        <ele>285.39999389648</ele>
        <time>2016-03-30T13:43:16Z</time>
      </trkpt>
      <trkpt lat="43.44032" lon="6.11702">
        <ele>284.79998779297</ele>
        <time>2016-03-30T13:43:17Z</time>
      </trkpt>
      <trkpt lat="43.44029" lon="6.11723">
        <ele>284.79998779297</ele>
        <time>2016-03-30T13:43:20Z</time>
      </trkpt>
      <trkpt lat="43.44025" lon="6.11743">
        <ele>285.39999389648</ele>
        <time>2016-03-30T13:43:23Z</time>
      </trkpt>
      <trkpt lat="43.44023" lon="6.11757">
        <ele>284.20001220703</ele>
        <time>2016-03-30T13:43:25Z</time>
      </trkpt>
      <trkpt lat="43.44021" lon="6.11763">
        <ele>283.79998779297</ele>
        <time>2016-03-30T13:43:26Z</time>
      </trkpt>
      <trkpt lat="43.44016" lon="6.11784">
        <ele>283.20001220703</ele>
        <time>2016-03-30T13:43:29Z</time>
      </trkpt>
      <trkpt lat="43.44014" lon="6.11791">
        <ele>283</ele>
        <time>2016-03-30T13:43:30Z</time>
      </trkpt>
      <trkpt lat="43.4401" lon="6.11803">
        <ele>282.39999389648</ele>
        <time>2016-03-30T13:43:32Z</time>
      </trkpt>
      <trkpt lat="43.44009" lon="6.11809">
        <ele>281.60000610352</ele>
        <time>2016-03-30T13:43:33Z</time>
      </trkpt>
      <trkpt lat="43.44005" lon="6.11821">
        <ele>281.39999389648</ele>
        <time>2016-03-30T13:43:35Z</time>
      </trkpt>
      <trkpt lat="43.43989" lon="6.11869">
        <ele>280.20001220703</ele>
        <time>2016-03-30T13:43:43Z</time>
      </trkpt>
      <trkpt lat="43.43987" lon="6.11875">
        <ele>280.20001220703</ele>
        <time>2016-03-30T13:43:44Z</time>
      </trkpt>
      <trkpt lat="43.4398" lon="6.11893">
        <ele>280.79998779297</ele>
        <time>2016-03-30T13:43:47Z</time>
      </trkpt>
      <trkpt lat="43.43974" lon="6.1191">
        <ele>279.79998779297</ele>
        <time>2016-03-30T13:43:50Z</time>
      </trkpt>
      <trkpt lat="43.43972" lon="6.11915">
        <ele>279.20001220703</ele>
        <time>2016-03-30T13:43:51Z</time>
      </trkpt>
      <trkpt lat="43.43964" lon="6.11931">
        <ele>276.60000610352</ele>
        <time>2016-03-30T13:43:55Z</time>
      </trkpt>
      <trkpt lat="43.43961" lon="6.11935">
        <ele>275.39999389648</ele>
        <time>2016-03-30T13:43:56Z</time>
      </trkpt>
      <trkpt lat="43.43957" lon="6.11943">
        <ele>275.39999389648</ele>
        <time>2016-03-30T13:43:58Z</time>
      </trkpt>
      <trkpt lat="43.43952" lon="6.11952">
        <ele>274.39999389648</ele>
        <time>2016-03-30T13:44:00Z</time>
      </trkpt>
      <trkpt lat="43.43952" lon="6.11954">
        <ele>273.60000610352</ele>
        <time>2016-03-30T13:44:03Z</time>
      </trkpt>
      <trkpt lat="43.43952" lon="6.11954">
        <ele>273.39999389648</ele>
        <time>2016-03-30T13:44:19Z</time>
      </trkpt>
      <trkpt lat="43.43952" lon="6.11954">
        <ele>273.39999389648</ele>
        <time>2016-03-30T13:44:27Z</time>
      </trkpt>
      <trkpt lat="43.43952" lon="6.11954">
        <ele>273.60000610352</ele>
        <time>2016-03-30T13:44:35Z</time>
      </trkpt>
      <trkpt lat="43.43952" lon="6.11954">
        <ele>273.79998779297</ele>
        <time>2016-03-30T13:44:49Z</time>
      </trkpt>
      <trkpt lat="43.43952" lon="6.11954">
        <ele>274</ele>
        <time>2016-03-30T13:45:10Z</time>
      </trkpt>
      <trkpt lat="43.43952" lon="6.11954">
        <ele>274</ele>
        <time>2016-03-30T13:45:15Z</time>
      </trkpt>
      <trkpt lat="43.43952" lon="6.11954">
        <ele>273.79998779297</ele>
        <time>2016-03-30T13:45:24Z</time>
      </trkpt>
      <trkpt lat="43.43952" lon="6.11954">
        <ele>273.79998779297</ele>
        <time>2016-03-30T13:45:29Z</time>
      </trkpt>
      <trkpt lat="43.43951" lon="6.11957">
        <ele>273.79998779297</ele>
        <time>2016-03-30T13:45:31Z</time>
      </trkpt>
      <trkpt lat="43.43951" lon="6.11961">
        <ele>274</ele>
        <time>2016-03-30T13:45:33Z</time>
      </trkpt>
      <trkpt lat="43.43953" lon="6.11969">
        <ele>274.20001220703</ele>
        <time>2016-03-30T13:45:36Z</time>
      </trkpt>
      <trkpt lat="43.43954" lon="6.11975">
        <ele>274.60000610352</ele>
        <time>2016-03-30T13:45:38Z</time>
      </trkpt>
      <trkpt lat="43.43956" lon="6.1198">
        <ele>275.20001220703</ele>
        <time>2016-03-30T13:45:40Z</time>
      </trkpt>
      <trkpt lat="43.43959" lon="6.11987">
        <ele>276</ele>
        <time>2016-03-30T13:45:43Z</time>
      </trkpt>
      <trkpt lat="43.43961" lon="6.11992">
        <ele>276.20001220703</ele>
        <time>2016-03-30T13:45:45Z</time>
      </trkpt>
      <trkpt lat="43.43962" lon="6.11995">
        <ele>276.60000610352</ele>
        <time>2016-03-30T13:45:46Z</time>
      </trkpt>
      <trkpt lat="43.43962" lon="6.12">
        <ele>276.60000610352</ele>
        <time>2016-03-30T13:45:48Z</time>
      </trkpt>
      <trkpt lat="43.43963" lon="6.12005">
        <ele>277.20001220703</ele>
        <time>2016-03-30T13:45:50Z</time>
      </trkpt>
      <trkpt lat="43.43965" lon="6.12011">
        <ele>277.79998779297</ele>
        <time>2016-03-30T13:45:52Z</time>
      </trkpt>
      <trkpt lat="43.43968" lon="6.12019">
        <ele>278.39999389648</ele>
        <time>2016-03-30T13:45:55Z</time>
      </trkpt>
      <trkpt lat="43.43972" lon="6.1203">
        <ele>278</ele>
        <time>2016-03-30T13:45:59Z</time>
      </trkpt>
      <trkpt lat="43.43978" lon="6.12051">
        <ele>279.39999389648</ele>
        <time>2016-03-30T13:46:06Z</time>
      </trkpt>
      <trkpt lat="43.43979" lon="6.12054">
        <ele>279.79998779297</ele>
        <time>2016-03-30T13:46:07Z</time>
      </trkpt>
      <trkpt lat="43.43983" lon="6.12078">
        <ele>280.20001220703</ele>
        <time>2016-03-30T13:46:15Z</time>
      </trkpt>
      <trkpt lat="43.43983" lon="6.12096">
        <ele>281</ele>
        <time>2016-03-30T13:46:23Z</time>
      </trkpt>
      <trkpt lat="43.43982" lon="6.12105">
        <ele>281.20001220703</ele>
        <time>2016-03-30T13:46:27Z</time>
      </trkpt>
      <trkpt lat="43.4398" lon="6.12113">
        <ele>281.60000610352</ele>
        <time>2016-03-30T13:46:31Z</time>
      </trkpt>
      <trkpt lat="43.43979" lon="6.12129">
        <ele>282.20001220703</ele>
        <time>2016-03-30T13:46:38Z</time>
      </trkpt>
      <trkpt lat="43.43978" lon="6.12131">
        <ele>282.39999389648</ele>
        <time>2016-03-30T13:46:39Z</time>
      </trkpt>
      <trkpt lat="43.43978" lon="6.12133">
        <ele>282.39999389648</ele>
        <time>2016-03-30T13:46:40Z</time>
      </trkpt>
      <trkpt lat="43.43977" lon="6.12156">
        <ele>282.60000610352</ele>
        <time>2016-03-30T13:46:49Z</time>
      </trkpt>
      <trkpt lat="43.43975" lon="6.12177">
        <ele>283</ele>
        <time>2016-03-30T13:46:57Z</time>
      </trkpt>
      <trkpt lat="43.43975" lon="6.12196">
        <ele>283.60000610352</ele>
        <time>2016-03-30T13:47:04Z</time>
      </trkpt>
      <trkpt lat="43.43975" lon="6.12199">
        <ele>283.79998779297</ele>
        <time>2016-03-30T13:47:05Z</time>
      </trkpt>
      <trkpt lat="43.43975" lon="6.12222">
        <ele>284</ele>
        <time>2016-03-30T13:47:13Z</time>
      </trkpt>
      <trkpt lat="43.43972" lon="6.12246">
        <ele>284.60000610352</ele>
        <time>2016-03-30T13:47:21Z</time>
      </trkpt>
      <trkpt lat="43.4397" lon="6.12259">
        <ele>285</ele>
        <time>2016-03-30T13:47:26Z</time>
      </trkpt>
      <trkpt lat="43.43967" lon="6.12265">
        <ele>285.60000610352</ele>
        <time>2016-03-30T13:47:30Z</time>
      </trkpt>
      <trkpt lat="43.43967" lon="6.12266">
        <ele>285.39999389648</ele>
        <time>2016-03-30T13:47:38Z</time>
      </trkpt>
      <trkpt lat="43.43967" lon="6.12267">
        <ele>285.39999389648</ele>
        <time>2016-03-30T13:47:44Z</time>
      </trkpt>
      <trkpt lat="43.43967" lon="6.12269">
        <ele>285.39999389648</ele>
        <time>2016-03-30T13:47:46Z</time>
      </trkpt>
      <trkpt lat="43.43966" lon="6.12274">
        <ele>285.79998779297</ele>
        <time>2016-03-30T13:47:48Z</time>
      </trkpt>
      <trkpt lat="43.43963" lon="6.12282">
        <ele>286.20001220703</ele>
        <time>2016-03-30T13:47:52Z</time>
      </trkpt>
      <trkpt lat="43.43963" lon="6.12287">
        <ele>286.20001220703</ele>
        <time>2016-03-30T13:47:54Z</time>
      </trkpt>
      <trkpt lat="43.43964" lon="6.12306">
        <ele>286.20001220703</ele>
        <time>2016-03-30T13:48:02Z</time>
      </trkpt>
      <trkpt lat="43.43964" lon="6.12318">
        <ele>286.39999389648</ele>
        <time>2016-03-30T13:48:08Z</time>
      </trkpt>
      <trkpt lat="43.43964" lon="6.12323">
        <ele>286.39999389648</ele>
        <time>2016-03-30T13:48:11Z</time>
      </trkpt>
      <trkpt lat="43.43964" lon="6.12326">
        <ele>286.20001220703</ele>
        <time>2016-03-30T13:48:14Z</time>
      </trkpt>
      <trkpt lat="43.43964" lon="6.1233">
        <ele>286.39999389648</ele>
        <time>2016-03-30T13:48:22Z</time>
      </trkpt>
      <trkpt lat="43.43965" lon="6.12337">
        <ele>286.39999389648</ele>
        <time>2016-03-30T13:48:30Z</time>
      </trkpt>
      <trkpt lat="43.43965" lon="6.12339">
        <ele>286.60000610352</ele>
        <time>2016-03-30T13:48:31Z</time>
      </trkpt>
      <trkpt lat="43.43966" lon="6.12349">
        <ele>286.39999389648</ele>
        <time>2016-03-30T13:48:36Z</time>
      </trkpt>
      <trkpt lat="43.43972" lon="6.12362">
        <ele>287.20001220703</ele>
        <time>2016-03-30T13:48:43Z</time>
      </trkpt>
      <trkpt lat="43.43973" lon="6.12364">
        <ele>287.20001220703</ele>
        <time>2016-03-30T13:48:44Z</time>
      </trkpt>
      <trkpt lat="43.43977" lon="6.12371">
        <ele>287.60000610352</ele>
        <time>2016-03-30T13:48:48Z</time>
      </trkpt>
      <trkpt lat="43.4398" lon="6.12377">
        <ele>288.20001220703</ele>
        <time>2016-03-30T13:48:51Z</time>
      </trkpt>
      <trkpt lat="43.43983" lon="6.12383">
        <ele>289</ele>
        <time>2016-03-30T13:48:54Z</time>
      </trkpt>
      <trkpt lat="43.43985" lon="6.12389">
        <ele>289</ele>
        <time>2016-03-30T13:48:57Z</time>
      </trkpt>
      <trkpt lat="43.43992" lon="6.12403">
        <ele>289.60000610352</ele>
        <time>2016-03-30T13:49:03Z</time>
      </trkpt>
      <trkpt lat="43.43993" lon="6.12405">
        <ele>290.20001220703</ele>
        <time>2016-03-30T13:49:04Z</time>
      </trkpt>
      <trkpt lat="43.43998" lon="6.12415">
        <ele>290</ele>
        <time>2016-03-30T13:49:09Z</time>
      </trkpt>
      <trkpt lat="43.44005" lon="6.12429">
        <ele>290.79998779297</ele>
        <time>2016-03-30T13:49:17Z</time>
      </trkpt>
      <trkpt lat="43.44005" lon="6.1243">
        <ele>290.79998779297</ele>
        <time>2016-03-30T13:49:29Z</time>
      </trkpt>
      <trkpt lat="43.44006" lon="6.12435">
        <ele>290.79998779297</ele>
        <time>2016-03-30T13:49:46Z</time>
      </trkpt>
      <trkpt lat="43.44009" lon="6.12446">
        <ele>291.20001220703</ele>
        <time>2016-03-30T13:49:51Z</time>
      </trkpt>
      <trkpt lat="43.44009" lon="6.12453">
        <ele>291.60000610352</ele>
        <time>2016-03-30T13:49:54Z</time>
      </trkpt>
      <trkpt lat="43.44011" lon="6.12465">
        <ele>292.20001220703</ele>
        <time>2016-03-30T13:49:59Z</time>
      </trkpt>
      <trkpt lat="43.44014" lon="6.12474">
        <ele>292.79998779297</ele>
        <time>2016-03-30T13:50:03Z</time>
      </trkpt>
      <trkpt lat="43.44015" lon="6.12484">
        <ele>293</ele>
        <time>2016-03-30T13:50:07Z</time>
      </trkpt>
      <trkpt lat="43.44014" lon="6.12499">
        <ele>293.79998779297</ele>
        <time>2016-03-30T13:50:13Z</time>
      </trkpt>
      <trkpt lat="43.44013" lon="6.12501">
        <ele>294</ele>
        <time>2016-03-30T13:50:14Z</time>
      </trkpt>
      <trkpt lat="43.44011" lon="6.12515">
        <ele>295</ele>
        <time>2016-03-30T13:50:20Z</time>
      </trkpt>
      <trkpt lat="43.4401" lon="6.1252">
        <ele>295</ele>
        <time>2016-03-30T13:50:22Z</time>
      </trkpt>
      <trkpt lat="43.44009" lon="6.12529">
        <ele>295.39999389648</ele>
        <time>2016-03-30T13:50:26Z</time>
      </trkpt>
      <trkpt lat="43.44006" lon="6.1254">
        <ele>296.60000610352</ele>
        <time>2016-03-30T13:50:31Z</time>
      </trkpt>
      <trkpt lat="43.44006" lon="6.12542">
        <ele>296.79998779297</ele>
        <time>2016-03-30T13:50:32Z</time>
      </trkpt>
      <trkpt lat="43.44006" lon="6.12548">
        <ele>297</ele>
        <time>2016-03-30T13:50:34Z</time>
      </trkpt>
      <trkpt lat="43.44004" lon="6.1256">
        <ele>297.20001220703</ele>
        <time>2016-03-30T13:50:39Z</time>
      </trkpt>
      <trkpt lat="43.44003" lon="6.12568">
        <ele>298</ele>
        <time>2016-03-30T13:50:42Z</time>
      </trkpt>
      <trkpt lat="43.44002" lon="6.12578">
        <ele>299</ele>
        <time>2016-03-30T13:50:47Z</time>
      </trkpt>
      <trkpt lat="43.44002" lon="6.1258">
        <ele>299.20001220703</ele>
        <time>2016-03-30T13:50:48Z</time>
      </trkpt>
      <trkpt lat="43.44" lon="6.1259">
        <ele>300.60000610352</ele>
        <time>2016-03-30T13:50:54Z</time>
      </trkpt>
      <trkpt lat="43.43998" lon="6.126">
        <ele>301.60000610352</ele>
        <time>2016-03-30T13:51:00Z</time>
      </trkpt>
      <trkpt lat="43.43996" lon="6.12603">
        <ele>302.39999389648</ele>
        <time>2016-03-30T13:51:03Z</time>
      </trkpt>
      <trkpt lat="43.43994" lon="6.12616">
        <ele>302.60000610352</ele>
        <time>2016-03-30T13:51:10Z</time>
      </trkpt>
      <trkpt lat="43.43994" lon="6.12618">
        <ele>303.20001220703</ele>
        <time>2016-03-30T13:51:11Z</time>
      </trkpt>
      <trkpt lat="43.43991" lon="6.12632">
        <ele>304.39999389648</ele>
        <time>2016-03-30T13:51:20Z</time>
      </trkpt>
      <trkpt lat="43.4399" lon="6.12635">
        <ele>304.60000610352</ele>
        <time>2016-03-30T13:51:22Z</time>
      </trkpt>
      <trkpt lat="43.43989" lon="6.12647">
        <ele>305.39999389648</ele>
        <time>2016-03-30T13:51:29Z</time>
      </trkpt>
      <trkpt lat="43.43986" lon="6.12658">
        <ele>305.60000610352</ele>
        <time>2016-03-30T13:51:36Z</time>
      </trkpt>
      <trkpt lat="43.43985" lon="6.1266">
        <ele>306.20001220703</ele>
        <time>2016-03-30T13:51:38Z</time>
      </trkpt>
      <trkpt lat="43.43982" lon="6.12665">
        <ele>306.39999389648</ele>
        <time>2016-03-30T13:51:43Z</time>
      </trkpt>
      <trkpt lat="43.43983" lon="6.12667">
        <ele>306.39999389648</ele>
        <time>2016-03-30T13:51:46Z</time>
      </trkpt>
      <trkpt lat="43.43983" lon="6.12667">
        <ele>306.60000610352</ele>
        <time>2016-03-30T13:51:48Z</time>
      </trkpt>
      <trkpt lat="43.43983" lon="6.12668">
        <ele>306.39999389648</ele>
        <time>2016-03-30T13:52:04Z</time>
      </trkpt>
      <trkpt lat="43.43983" lon="6.12668">
        <ele>306.39999389648</ele>
        <time>2016-03-30T13:52:07Z</time>
      </trkpt>
      <trkpt lat="43.43983" lon="6.12668">
        <ele>306.39999389648</ele>
        <time>2016-03-30T13:52:12Z</time>
      </trkpt>
      <trkpt lat="43.43983" lon="6.12668">
        <ele>306.39999389648</ele>
        <time>2016-03-30T13:52:15Z</time>
      </trkpt>
      <trkpt lat="43.43983" lon="6.12668">
        <ele>306.60000610352</ele>
        <time>2016-03-30T13:52:20Z</time>
      </trkpt>
      <trkpt lat="43.43983" lon="6.12668">
        <ele>306.79998779297</ele>
        <time>2016-03-30T13:52:24Z</time>
      </trkpt>
      <trkpt lat="43.43983" lon="6.12668">
        <ele>306.60000610352</ele>
        <time>2016-03-30T13:52:28Z</time>
      </trkpt>
      <trkpt lat="43.43983" lon="6.12668">
        <ele>306.39999389648</ele>
        <time>2016-03-30T13:52:36Z</time>
      </trkpt>
      <trkpt lat="43.43983" lon="6.12668">
        <ele>306.20001220703</ele>
        <time>2016-03-30T13:52:53Z</time>
      </trkpt>
      <trkpt lat="43.43983" lon="6.12668">
        <ele>306.60000610352</ele>
        <time>2016-03-30T13:53:23Z</time>
      </trkpt>
      <trkpt lat="43.43983" lon="6.12668">
        <ele>306.39999389648</ele>
        <time>2016-03-30T13:53:27Z</time>
      </trkpt>
      <trkpt lat="43.43983" lon="6.12668">
        <ele>306.39999389648</ele>
        <time>2016-03-30T13:53:38Z</time>
      </trkpt>
      <trkpt lat="43.43983" lon="6.12668">
        <ele>306.20001220703</ele>
        <time>2016-03-30T13:53:53Z</time>
      </trkpt>
      <trkpt lat="43.43983" lon="6.12668">
        <ele>306.20001220703</ele>
        <time>2016-03-30T13:53:57Z</time>
      </trkpt>
      <trkpt lat="43.43983" lon="6.12668">
        <ele>306.20001220703</ele>
        <time>2016-03-30T13:54:04Z</time>
      </trkpt>
      <trkpt lat="43.43983" lon="6.12668">
        <ele>306.20001220703</ele>
        <time>2016-03-30T13:54:06Z</time>
      </trkpt>
      <trkpt lat="43.43983" lon="6.12667">
        <ele>306.20001220703</ele>
        <time>2016-03-30T13:54:29Z</time>
      </trkpt>
      <trkpt lat="43.43983" lon="6.12667">
        <ele>306.20001220703</ele>
        <time>2016-03-30T13:54:37Z</time>
      </trkpt>
      <trkpt lat="43.43983" lon="6.12667">
        <ele>306.39999389648</ele>
        <time>2016-03-30T13:54:39Z</time>
      </trkpt>
      <trkpt lat="43.43983" lon="6.12667">
        <ele>306.20001220703</ele>
        <time>2016-03-30T13:54:45Z</time>
      </trkpt>
      <trkpt lat="43.43983" lon="6.12667">
        <ele>306.20001220703</ele>
        <time>2016-03-30T13:54:51Z</time>
      </trkpt>
      <trkpt lat="43.43983" lon="6.12667">
        <ele>306.20001220703</ele>
        <time>2016-03-30T13:54:59Z</time>
      </trkpt>
      <trkpt lat="43.43983" lon="6.12667">
        <ele>306.20001220703</ele>
        <time>2016-03-30T13:55:00Z</time>
      </trkpt>
      <trkpt lat="43.43983" lon="6.12667">
        <ele>306.39999389648</ele>
        <time>2016-03-30T13:55:08Z</time>
      </trkpt>
      <trkpt lat="43.43983" lon="6.12667">
        <ele>306</ele>
        <time>2016-03-30T13:55:14Z</time>
      </trkpt>
      <trkpt lat="43.43983" lon="6.12667">
        <ele>306.39999389648</ele>
        <time>2016-03-30T13:55:26Z</time>
      </trkpt>
      <trkpt lat="43.43982" lon="6.12668">
        <ele>306.39999389648</ele>
        <time>2016-03-30T13:55:32Z</time>
      </trkpt>
      <trkpt lat="43.43981" lon="6.1267">
        <ele>306.39999389648</ele>
        <time>2016-03-30T13:55:33Z</time>
      </trkpt>
      <trkpt lat="43.43971" lon="6.12681">
        <ele>307</ele>
        <time>2016-03-30T13:55:40Z</time>
      </trkpt>
      <trkpt lat="43.43959" lon="6.12688">
        <ele>306.20001220703</ele>
        <time>2016-03-30T13:55:45Z</time>
      </trkpt>
      <trkpt lat="43.43956" lon="6.1269">
        <ele>305.79998779297</ele>
        <time>2016-03-30T13:55:46Z</time>
      </trkpt>
      <trkpt lat="43.43948" lon="6.12693">
        <ele>304.79998779297</ele>
        <time>2016-03-30T13:55:48Z</time>
      </trkpt>
      <trkpt lat="43.43943" lon="6.12696">
        <ele>304.79998779297</ele>
        <time>2016-03-30T13:55:49Z</time>
      </trkpt>
      <trkpt lat="43.43938" lon="6.127">
        <ele>304.20001220703</ele>
        <time>2016-03-30T13:55:51Z</time>
      </trkpt>
      <trkpt lat="43.43935" lon="6.12699">
        <ele>304.39999389648</ele>
        <time>2016-03-30T13:55:53Z</time>
      </trkpt>
      <trkpt lat="43.43932" lon="6.12703">
        <ele>304.60000610352</ele>
        <time>2016-03-30T13:55:55Z</time>
      </trkpt>
      <trkpt lat="43.4393" lon="6.12709">
        <ele>304.60000610352</ele>
        <time>2016-03-30T13:55:57Z</time>
      </trkpt>
      <trkpt lat="43.43927" lon="6.1272">
        <ele>304.60000610352</ele>
        <time>2016-03-30T13:56:00Z</time>
      </trkpt>
      <trkpt lat="43.43926" lon="6.12723">
        <ele>304.20001220703</ele>
        <time>2016-03-30T13:56:01Z</time>
      </trkpt>
      <trkpt lat="43.43921" lon="6.12733">
        <ele>303</ele>
        <time>2016-03-30T13:56:03Z</time>
      </trkpt>
      <trkpt lat="43.43917" lon="6.12737">
        <ele>302.39999389648</ele>
        <time>2016-03-30T13:56:04Z</time>
      </trkpt>
      <trkpt lat="43.43904" lon="6.12749">
        <ele>301.60000610352</ele>
        <time>2016-03-30T13:56:07Z</time>
      </trkpt>
      <trkpt lat="43.439" lon="6.12754">
        <ele>300.39999389648</ele>
        <time>2016-03-30T13:56:08Z</time>
      </trkpt>
      <trkpt lat="43.43896" lon="6.12758">
        <ele>299.60000610352</ele>
        <time>2016-03-30T13:56:09Z</time>
      </trkpt>
      <trkpt lat="43.43892" lon="6.12762">
        <ele>299.39999389648</ele>
        <time>2016-03-30T13:56:10Z</time>
      </trkpt>
      <trkpt lat="43.43887" lon="6.12768">
        <ele>298.20001220703</ele>
        <time>2016-03-30T13:56:11Z</time>
      </trkpt>
      <trkpt lat="43.43883" lon="6.12775">
        <ele>297</ele>
        <time>2016-03-30T13:56:12Z</time>
      </trkpt>
      <trkpt lat="43.43878" lon="6.12781">
        <ele>296</ele>
        <time>2016-03-30T13:56:13Z</time>
      </trkpt>
      <trkpt lat="43.43874" lon="6.12788">
        <ele>295.60000610352</ele>
        <time>2016-03-30T13:56:14Z</time>
      </trkpt>
      <trkpt lat="43.4387" lon="6.12796">
        <ele>294.60000610352</ele>
        <time>2016-03-30T13:56:15Z</time>
      </trkpt>
      <trkpt lat="43.43868" lon="6.12803">
        <ele>294</ele>
        <time>2016-03-30T13:56:16Z</time>
      </trkpt>
      <trkpt lat="43.43865" lon="6.12812">
        <ele>293</ele>
        <time>2016-03-30T13:56:17Z</time>
      </trkpt>
      <trkpt lat="43.43862" lon="6.12827">
        <ele>291.79998779297</ele>
        <time>2016-03-30T13:56:19Z</time>
      </trkpt>
      <trkpt lat="43.43861" lon="6.12843">
        <ele>290.79998779297</ele>
        <time>2016-03-30T13:56:21Z</time>
      </trkpt>
      <trkpt lat="43.43861" lon="6.1285">
        <ele>291.20001220703</ele>
        <time>2016-03-30T13:56:22Z</time>
      </trkpt>
      <trkpt lat="43.43859" lon="6.12858">
        <ele>291.79998779297</ele>
        <time>2016-03-30T13:56:23Z</time>
      </trkpt>
      <trkpt lat="43.43858" lon="6.12879">
        <ele>290.79998779297</ele>
        <time>2016-03-30T13:56:26Z</time>
      </trkpt>
      <trkpt lat="43.43856" lon="6.12892">
        <ele>289.60000610352</ele>
        <time>2016-03-30T13:56:28Z</time>
      </trkpt>
      <trkpt lat="43.43855" lon="6.12908">
        <ele>289</ele>
        <time>2016-03-30T13:56:31Z</time>
      </trkpt>
      <trkpt lat="43.43854" lon="6.12913">
        <ele>288</ele>
        <time>2016-03-30T13:56:32Z</time>
      </trkpt>
      <trkpt lat="43.43851" lon="6.12918">
        <ele>286.60000610352</ele>
        <time>2016-03-30T13:56:33Z</time>
      </trkpt>
      <trkpt lat="43.4385" lon="6.12923">
        <ele>286.79998779297</ele>
        <time>2016-03-30T13:56:34Z</time>
      </trkpt>
      <trkpt lat="43.43849" lon="6.1293">
        <ele>287.60000610352</ele>
        <time>2016-03-30T13:56:35Z</time>
      </trkpt>
      <trkpt lat="43.43847" lon="6.12938">
        <ele>287</ele>
        <time>2016-03-30T13:56:36Z</time>
      </trkpt>
      <trkpt lat="43.43847" lon="6.12946">
        <ele>285.60000610352</ele>
        <time>2016-03-30T13:56:37Z</time>
      </trkpt>
      <trkpt lat="43.43848" lon="6.12954">
        <ele>284.60000610352</ele>
        <time>2016-03-30T13:56:38Z</time>
      </trkpt>
      <trkpt lat="43.43848" lon="6.12967">
        <ele>283.79998779297</ele>
        <time>2016-03-30T13:56:40Z</time>
      </trkpt>
      <trkpt lat="43.4385" lon="6.12983">
        <ele>282.39999389648</ele>
        <time>2016-03-30T13:56:43Z</time>
      </trkpt>
      <trkpt lat="43.43851" lon="6.1299">
        <ele>281.39999389648</ele>
        <time>2016-03-30T13:56:44Z</time>
      </trkpt>
      <trkpt lat="43.43852" lon="6.12998">
        <ele>281</ele>
        <time>2016-03-30T13:56:45Z</time>
      </trkpt>
      <trkpt lat="43.43854" lon="6.13022">
        <ele>279</ele>
        <time>2016-03-30T13:56:48Z</time>
      </trkpt>
      <trkpt lat="43.43854" lon="6.13031">
        <ele>277.79998779297</ele>
        <time>2016-03-30T13:56:49Z</time>
      </trkpt>
      <trkpt lat="43.43854" lon="6.13048">
        <ele>276</ele>
        <time>2016-03-30T13:56:51Z</time>
      </trkpt>
      <trkpt lat="43.43852" lon="6.13067">
        <ele>274.60000610352</ele>
        <time>2016-03-30T13:56:53Z</time>
      </trkpt>
      <trkpt lat="43.43851" lon="6.13075">
        <ele>273.39999389648</ele>
        <time>2016-03-30T13:56:54Z</time>
      </trkpt>
      <trkpt lat="43.43852" lon="6.13112">
        <ele>271.79998779297</ele>
        <time>2016-03-30T13:56:58Z</time>
      </trkpt>
      <trkpt lat="43.43852" lon="6.1312">
        <ele>270.79998779297</ele>
        <time>2016-03-30T13:56:59Z</time>
      </trkpt>
      <trkpt lat="43.43853" lon="6.13129">
        <ele>269.39999389648</ele>
        <time>2016-03-30T13:57:00Z</time>
      </trkpt>
      <trkpt lat="43.43854" lon="6.1314">
        <ele>268.20001220703</ele>
        <time>2016-03-30T13:57:01Z</time>
      </trkpt>
      <trkpt lat="43.43857" lon="6.13158">
        <ele>267.20001220703</ele>
        <time>2016-03-30T13:57:03Z</time>
      </trkpt>
      <trkpt lat="43.43858" lon="6.13169">
        <ele>267</ele>
        <time>2016-03-30T13:57:04Z</time>
      </trkpt>
      <trkpt lat="43.43859" lon="6.1318">
        <ele>266.20001220703</ele>
        <time>2016-03-30T13:57:05Z</time>
      </trkpt>
      <trkpt lat="43.4386" lon="6.13189">
        <ele>265.39999389648</ele>
        <time>2016-03-30T13:57:06Z</time>
      </trkpt>
      <trkpt lat="43.4386" lon="6.13201">
        <ele>264.39999389648</ele>
        <time>2016-03-30T13:57:07Z</time>
      </trkpt>
      <trkpt lat="43.4386" lon="6.13211">
        <ele>263.79998779297</ele>
        <time>2016-03-30T13:57:08Z</time>
      </trkpt>
      <trkpt lat="43.43859" lon="6.13229">
        <ele>263.20001220703</ele>
        <time>2016-03-30T13:57:10Z</time>
      </trkpt>
      <trkpt lat="43.43859" lon="6.13239">
        <ele>262.20001220703</ele>
        <time>2016-03-30T13:57:11Z</time>
      </trkpt>
      <trkpt lat="43.43858" lon="6.13248">
        <ele>262</ele>
        <time>2016-03-30T13:57:12Z</time>
      </trkpt>
      <trkpt lat="43.43855" lon="6.13269">
        <ele>260.79998779297</ele>
        <time>2016-03-30T13:57:14Z</time>
      </trkpt>
      <trkpt lat="43.43855" lon="6.1328">
        <ele>259.60000610352</ele>
        <time>2016-03-30T13:57:15Z</time>
      </trkpt>
      <trkpt lat="43.43855" lon="6.1329">
        <ele>259.20001220703</ele>
        <time>2016-03-30T13:57:16Z</time>
      </trkpt>
      <trkpt lat="43.43856" lon="6.13312">
        <ele>259</ele>
        <time>2016-03-30T13:57:18Z</time>
      </trkpt>
      <trkpt lat="43.43857" lon="6.13324">
        <ele>258.60000610352</ele>
        <time>2016-03-30T13:57:19Z</time>
      </trkpt>
      <trkpt lat="43.43856" lon="6.13335">
        <ele>258.39999389648</ele>
        <time>2016-03-30T13:57:20Z</time>
      </trkpt>
      <trkpt lat="43.43855" lon="6.13346">
        <ele>258</ele>
        <time>2016-03-30T13:57:21Z</time>
      </trkpt>
      <trkpt lat="43.43853" lon="6.13357">
        <ele>257.39999389648</ele>
        <time>2016-03-30T13:57:22Z</time>
      </trkpt>
      <trkpt lat="43.43845" lon="6.13388">
        <ele>256.60000610352</ele>
        <time>2016-03-30T13:57:25Z</time>
      </trkpt>
      <trkpt lat="43.43842" lon="6.13398">
        <ele>256</ele>
        <time>2016-03-30T13:57:26Z</time>
      </trkpt>
      <trkpt lat="43.43836" lon="6.13418">
        <ele>254.60000610352</ele>
        <time>2016-03-30T13:57:28Z</time>
      </trkpt>
      <trkpt lat="43.43833" lon="6.1344">
        <ele>254.39999389648</ele>
        <time>2016-03-30T13:57:30Z</time>
      </trkpt>
      <trkpt lat="43.43833" lon="6.13451">
        <ele>254.19999694824</ele>
        <time>2016-03-30T13:57:31Z</time>
      </trkpt>
      <trkpt lat="43.43832" lon="6.13471">
        <ele>253.60000610352</ele>
        <time>2016-03-30T13:57:33Z</time>
      </trkpt>
      <trkpt lat="43.43832" lon="6.13481">
        <ele>252.60000610352</ele>
        <time>2016-03-30T13:57:34Z</time>
      </trkpt>
      <trkpt lat="43.4383" lon="6.13492">
        <ele>251.60000610352</ele>
        <time>2016-03-30T13:57:35Z</time>
      </trkpt>
      <trkpt lat="43.43827" lon="6.13514">
        <ele>250.39999389648</ele>
        <time>2016-03-30T13:57:37Z</time>
      </trkpt>
      <trkpt lat="43.43822" lon="6.13536">
        <ele>248.80000305176</ele>
        <time>2016-03-30T13:57:39Z</time>
      </trkpt>
      <trkpt lat="43.43813" lon="6.13565">
        <ele>248.19999694824</ele>
        <time>2016-03-30T13:57:42Z</time>
      </trkpt>
      <trkpt lat="43.43807" lon="6.13573">
        <ele>247.19999694824</ele>
        <time>2016-03-30T13:57:43Z</time>
      </trkpt>
      <trkpt lat="43.43797" lon="6.13586">
        <ele>246.39999389648</ele>
        <time>2016-03-30T13:57:45Z</time>
      </trkpt>
      <trkpt lat="43.43793" lon="6.13594">
        <ele>246.19999694824</ele>
        <time>2016-03-30T13:57:46Z</time>
      </trkpt>
      <trkpt lat="43.4379" lon="6.13603">
        <ele>246</ele>
        <time>2016-03-30T13:57:47Z</time>
      </trkpt>
      <trkpt lat="43.43788" lon="6.13611">
        <ele>246</ele>
        <time>2016-03-30T13:57:48Z</time>
      </trkpt>
      <trkpt lat="43.43781" lon="6.13645">
        <ele>245</ele>
        <time>2016-03-30T13:57:52Z</time>
      </trkpt>
      <trkpt lat="43.43779" lon="6.13654">
        <ele>244.80000305176</ele>
        <time>2016-03-30T13:57:53Z</time>
      </trkpt>
      <trkpt lat="43.43777" lon="6.13662">
        <ele>244.80000305176</ele>
        <time>2016-03-30T13:57:54Z</time>
      </trkpt>
      <trkpt lat="43.43773" lon="6.13679">
        <ele>244</ele>
        <time>2016-03-30T13:57:56Z</time>
      </trkpt>
      <trkpt lat="43.43769" lon="6.13695">
        <ele>242.80000305176</ele>
        <time>2016-03-30T13:57:58Z</time>
      </trkpt>
      <trkpt lat="43.43766" lon="6.13703">
        <ele>242</ele>
        <time>2016-03-30T13:57:59Z</time>
      </trkpt>
      <trkpt lat="43.43763" lon="6.13709">
        <ele>241.60000610352</ele>
        <time>2016-03-30T13:58:00Z</time>
      </trkpt>
      <trkpt lat="43.43749" lon="6.13741">
        <ele>241.19999694824</ele>
        <time>2016-03-30T13:58:04Z</time>
      </trkpt>
      <trkpt lat="43.43744" lon="6.13749">
        <ele>240.80000305176</ele>
        <time>2016-03-30T13:58:05Z</time>
      </trkpt>
      <trkpt lat="43.43739" lon="6.13755">
        <ele>240.19999694824</ele>
        <time>2016-03-30T13:58:06Z</time>
      </trkpt>
      <trkpt lat="43.43734" lon="6.13762">
        <ele>239.80000305176</ele>
        <time>2016-03-30T13:58:07Z</time>
      </trkpt>
      <trkpt lat="43.4373" lon="6.13768">
        <ele>240</ele>
        <time>2016-03-30T13:58:08Z</time>
      </trkpt>
      <trkpt lat="43.4372" lon="6.13788">
        <ele>240.80000305176</ele>
        <time>2016-03-30T13:58:11Z</time>
      </trkpt>
      <trkpt lat="43.43709" lon="6.13811">
        <ele>240.80000305176</ele>
        <time>2016-03-30T13:58:16Z</time>
      </trkpt>
      <trkpt lat="43.43694" lon="6.13833">
        <ele>241</ele>
        <time>2016-03-30T13:58:23Z</time>
      </trkpt>
      <trkpt lat="43.43683" lon="6.13849">
        <ele>241.19999694824</ele>
        <time>2016-03-30T13:58:29Z</time>
      </trkpt>
      <trkpt lat="43.43681" lon="6.13852">
        <ele>241.19999694824</ele>
        <time>2016-03-30T13:58:30Z</time>
      </trkpt>
      <trkpt lat="43.43666" lon="6.13878">
        <ele>240.39999389648</ele>
        <time>2016-03-30T13:58:38Z</time>
      </trkpt>
      <trkpt lat="43.43663" lon="6.13882">
        <ele>240</ele>
        <time>2016-03-30T13:58:39Z</time>
      </trkpt>
      <trkpt lat="43.43651" lon="6.13897">
        <ele>240.19999694824</ele>
        <time>2016-03-30T13:58:43Z</time>
      </trkpt>
      <trkpt lat="43.43636" lon="6.1392">
        <ele>237.80000305176</ele>
        <time>2016-03-30T13:58:47Z</time>
      </trkpt>
      <trkpt lat="43.43632" lon="6.13927">
        <ele>237</ele>
        <time>2016-03-30T13:58:48Z</time>
      </trkpt>
      <trkpt lat="43.43618" lon="6.1395">
        <ele>235.39999389648</ele>
        <time>2016-03-30T13:58:51Z</time>
      </trkpt>
      <trkpt lat="43.43613" lon="6.13958">
        <ele>234.39999389648</ele>
        <time>2016-03-30T13:58:52Z</time>
      </trkpt>
      <trkpt lat="43.43604" lon="6.13976">
        <ele>234.19999694824</ele>
        <time>2016-03-30T13:58:54Z</time>
      </trkpt>
      <trkpt lat="43.436" lon="6.13984">
        <ele>233</ele>
        <time>2016-03-30T13:58:55Z</time>
      </trkpt>
      <trkpt lat="43.43595" lon="6.13996">
        <ele>231.80000305176</ele>
        <time>2016-03-30T13:58:57Z</time>
      </trkpt>
      <trkpt lat="43.43592" lon="6.14001">
        <ele>231.80000305176</ele>
        <time>2016-03-30T13:58:58Z</time>
      </trkpt>
      <trkpt lat="43.43579" lon="6.14026">
        <ele>230.60000610352</ele>
        <time>2016-03-30T13:59:03Z</time>
      </trkpt>
      <trkpt lat="43.43577" lon="6.14031">
        <ele>229.80000305176</ele>
        <time>2016-03-30T13:59:04Z</time>
      </trkpt>
      <trkpt lat="43.43575" lon="6.14037">
        <ele>229.19999694824</ele>
        <time>2016-03-30T13:59:05Z</time>
      </trkpt>
      <trkpt lat="43.43569" lon="6.14048">
        <ele>229.19999694824</ele>
        <time>2016-03-30T13:59:07Z</time>
      </trkpt>
      <trkpt lat="43.43561" lon="6.14057">
        <ele>229</ele>
        <time>2016-03-30T13:59:09Z</time>
      </trkpt>
      <trkpt lat="43.43554" lon="6.14066">
        <ele>228.80000305176</ele>
        <time>2016-03-30T13:59:11Z</time>
      </trkpt>
      <trkpt lat="43.43546" lon="6.14076">
        <ele>228.80000305176</ele>
        <time>2016-03-30T13:59:14Z</time>
      </trkpt>
      <trkpt lat="43.43536" lon="6.1409">
        <ele>229.39999389648</ele>
        <time>2016-03-30T13:59:18Z</time>
      </trkpt>
      <trkpt lat="43.43527" lon="6.14107">
        <ele>229.39999389648</ele>
        <time>2016-03-30T13:59:22Z</time>
      </trkpt>
      <trkpt lat="43.43518" lon="6.14123">
        <ele>228.39999389648</ele>
        <time>2016-03-30T13:59:25Z</time>
      </trkpt>
      <trkpt lat="43.4351" lon="6.14133">
        <ele>227.60000610352</ele>
        <time>2016-03-30T13:59:27Z</time>
      </trkpt>
      <trkpt lat="43.43507" lon="6.14137">
        <ele>227.39999389648</ele>
        <time>2016-03-30T13:59:28Z</time>
      </trkpt>
      <trkpt lat="43.43501" lon="6.14142">
        <ele>226.60000610352</ele>
        <time>2016-03-30T13:59:29Z</time>
      </trkpt>
      <trkpt lat="43.43491" lon="6.1415">
        <ele>225</ele>
        <time>2016-03-30T13:59:31Z</time>
      </trkpt>
      <trkpt lat="43.43486" lon="6.14153">
        <ele>224</ele>
        <time>2016-03-30T13:59:32Z</time>
      </trkpt>
      <trkpt lat="43.43481" lon="6.14154">
        <ele>222.80000305176</ele>
        <time>2016-03-30T13:59:33Z</time>
      </trkpt>
      <trkpt lat="43.43478" lon="6.14163">
        <ele>220.80000305176</ele>
        <time>2016-03-30T13:59:35Z</time>
      </trkpt>
      <trkpt lat="43.4348" lon="6.14181">
        <ele>219.60000610352</ele>
        <time>2016-03-30T13:59:38Z</time>
      </trkpt>
      <trkpt lat="43.43479" lon="6.14186">
        <ele>219.39999389648</ele>
        <time>2016-03-30T13:59:39Z</time>
      </trkpt>
      <trkpt lat="43.43479" lon="6.14194">
        <ele>218.39999389648</ele>
        <time>2016-03-30T13:59:41Z</time>
      </trkpt>
      <trkpt lat="43.43478" lon="6.14195">
        <ele>218.19999694824</ele>
        <time>2016-03-30T13:59:43Z</time>
      </trkpt>
      <trkpt lat="43.43478" lon="6.14194">
        <ele>218</ele>
        <time>2016-03-30T13:59:51Z</time>
      </trkpt>
      <trkpt lat="43.43477" lon="6.14195">
        <ele>217.80000305176</ele>
        <time>2016-03-30T13:59:58Z</time>
      </trkpt>
      <trkpt lat="43.43477" lon="6.14195">
        <ele>217.60000610352</ele>
        <time>2016-03-30T14:00:09Z</time>
      </trkpt>
      <trkpt lat="43.43477" lon="6.14195">
        <ele>218</ele>
        <time>2016-03-30T14:00:18Z</time>
      </trkpt>
      <trkpt lat="43.43477" lon="6.14195">
        <ele>217.39999389648</ele>
        <time>2016-03-30T14:00:38Z</time>
      </trkpt>
      <trkpt lat="43.43477" lon="6.14195">
        <ele>217.19999694824</ele>
        <time>2016-03-30T14:00:52Z</time>
      </trkpt>
      <trkpt lat="43.43477" lon="6.14195">
        <ele>217.80000305176</ele>
        <time>2016-03-30T14:01:26Z</time>
      </trkpt>
      <trkpt lat="43.43477" lon="6.14196">
        <ele>217.60000610352</ele>
        <time>2016-03-30T14:01:31Z</time>
      </trkpt>
      <trkpt lat="43.43476" lon="6.14202">
        <ele>217.39999389648</ele>
        <time>2016-03-30T14:01:37Z</time>
      </trkpt>
      <trkpt lat="43.43473" lon="6.14204">
        <ele>216.80000305176</ele>
        <time>2016-03-30T14:01:41Z</time>
      </trkpt>
      <trkpt lat="43.4347" lon="6.14204">
        <ele>216.39999389648</ele>
        <time>2016-03-30T14:01:43Z</time>
      </trkpt>
      <trkpt lat="43.43467" lon="6.14204">
        <ele>216</ele>
        <time>2016-03-30T14:01:45Z</time>
      </trkpt>
      <trkpt lat="43.43466" lon="6.14205">
        <ele>216</ele>
        <time>2016-03-30T14:01:49Z</time>
      </trkpt>
      <trkpt lat="43.43466" lon="6.14205">
        <ele>216</ele>
        <time>2016-03-30T14:01:58Z</time>
      </trkpt>
      <trkpt lat="43.43466" lon="6.14206">
        <ele>216.19999694824</ele>
        <time>2016-03-30T14:02:10Z</time>
      </trkpt>
      <trkpt lat="43.43463" lon="6.14206">
        <ele>216</ele>
        <time>2016-03-30T14:02:14Z</time>
      </trkpt>
      <trkpt lat="43.43458" lon="6.14206">
        <ele>215.80000305176</ele>
        <time>2016-03-30T14:02:16Z</time>
      </trkpt>
      <trkpt lat="43.43441" lon="6.14205">
        <ele>215</ele>
        <time>2016-03-30T14:02:20Z</time>
      </trkpt>
      <trkpt lat="43.43432" lon="6.14204">
        <ele>214.60000610352</ele>
        <time>2016-03-30T14:02:22Z</time>
      </trkpt>
      <trkpt lat="43.43413" lon="6.14204">
        <ele>213.80000305176</ele>
        <time>2016-03-30T14:02:27Z</time>
      </trkpt>
      <trkpt lat="43.43412" lon="6.14205">
        <ele>213.80000305176</ele>
        <time>2016-03-30T14:02:28Z</time>
      </trkpt>
      <trkpt lat="43.4341" lon="6.14212">
        <ele>213.60000610352</ele>
        <time>2016-03-30T14:02:31Z</time>
      </trkpt>
      <trkpt lat="43.43411" lon="6.14223">
        <ele>213.60000610352</ele>
        <time>2016-03-30T14:02:35Z</time>
      </trkpt>
      <trkpt lat="43.4341" lon="6.14229">
        <ele>213.39999389648</ele>
        <time>2016-03-30T14:02:39Z</time>
      </trkpt>
      <trkpt lat="43.4341" lon="6.14231">
        <ele>213.39999389648</ele>
        <time>2016-03-30T14:02:40Z</time>
      </trkpt>
      <trkpt lat="43.43408" lon="6.14247">
        <ele>213.19999694824</ele>
        <time>2016-03-30T14:02:45Z</time>
      </trkpt>
      <trkpt lat="43.43399" lon="6.14248">
        <ele>213.19999694824</ele>
        <time>2016-03-30T14:02:48Z</time>
      </trkpt>
      <trkpt lat="43.43381" lon="6.14249">
        <ele>212.19999694824</ele>
        <time>2016-03-30T14:02:54Z</time>
      </trkpt>
      <trkpt lat="43.43379" lon="6.1425">
        <ele>212</ele>
        <time>2016-03-30T14:02:55Z</time>
      </trkpt>
      <trkpt lat="43.43375" lon="6.14251">
        <ele>211.39999389648</ele>
        <time>2016-03-30T14:02:59Z</time>
      </trkpt>
      <trkpt lat="43.43375" lon="6.14252">
        <ele>211.39999389648</ele>
        <time>2016-03-30T14:03:00Z</time>
      </trkpt>
      <trkpt lat="43.43378" lon="6.14251">
        <ele>211.80000305176</ele>
        <time>2016-03-30T14:03:04Z</time>
      </trkpt>
      <trkpt lat="43.43378" lon="6.14252">
        <ele>212</ele>
        <time>2016-03-30T14:03:09Z</time>
      </trkpt>
      <trkpt lat="43.43381" lon="6.14251">
        <ele>211.80000305176</ele>
        <time>2016-03-30T14:03:24Z</time>
      </trkpt>
      <trkpt lat="43.43382" lon="6.14251">
        <ele>212</ele>
        <time>2016-03-30T14:03:25Z</time>
      </trkpt>
      <trkpt lat="43.43388" lon="6.14252">
        <ele>212.19999694824</ele>
        <time>2016-03-30T14:03:29Z</time>
      </trkpt>
      <trkpt lat="43.43404" lon="6.1425">
        <ele>212.60000610352</ele>
        <time>2016-03-30T14:03:35Z</time>
      </trkpt>
      <trkpt lat="43.43409" lon="6.14246">
        <ele>212.80000305176</ele>
        <time>2016-03-30T14:03:38Z</time>
      </trkpt>
      <trkpt lat="43.43409" lon="6.14242">
        <ele>213</ele>
        <time>2016-03-30T14:03:39Z</time>
      </trkpt>
      <trkpt lat="43.43409" lon="6.14214">
        <ele>213.39999389648</ele>
        <time>2016-03-30T14:03:46Z</time>
      </trkpt>
      <trkpt lat="43.4341" lon="6.14203">
        <ele>213.60000610352</ele>
        <time>2016-03-30T14:03:49Z</time>
      </trkpt>
      <trkpt lat="43.4341" lon="6.14199">
        <ele>214</ele>
        <time>2016-03-30T14:03:50Z</time>
      </trkpt>
      <trkpt lat="43.43409" lon="6.14177">
        <ele>214.60000610352</ele>
        <time>2016-03-30T14:03:56Z</time>
      </trkpt>
      <trkpt lat="43.43408" lon="6.14174">
        <ele>214.60000610352</ele>
        <time>2016-03-30T14:03:57Z</time>
      </trkpt>
      <trkpt lat="43.43407" lon="6.14173">
        <ele>214.80000305176</ele>
        <time>2016-03-30T14:03:58Z</time>
      </trkpt>
      <trkpt lat="43.43402" lon="6.14167">
        <ele>214.80000305176</ele>
        <time>2016-03-30T14:04:01Z</time>
      </trkpt>
      <trkpt lat="43.43393" lon="6.14157">
        <ele>214.60000610352</ele>
        <time>2016-03-30T14:04:05Z</time>
      </trkpt>
      <trkpt lat="43.4339" lon="6.14152">
        <ele>214.80000305176</ele>
        <time>2016-03-30T14:04:07Z</time>
      </trkpt>
      <trkpt lat="43.4338" lon="6.14138">
        <ele>215</ele>
        <time>2016-03-30T14:04:13Z</time>
      </trkpt>
      <trkpt lat="43.43371" lon="6.14117">
        <ele>215</ele>
        <time>2016-03-30T14:04:19Z</time>
      </trkpt>
      <trkpt lat="43.43364" lon="6.14098">
        <ele>215.39999389648</ele>
        <time>2016-03-30T14:04:25Z</time>
      </trkpt>
      <trkpt lat="43.43363" lon="6.14094">
        <ele>215.60000610352</ele>
        <time>2016-03-30T14:04:26Z</time>
      </trkpt>
      <trkpt lat="43.43362" lon="6.14091">
        <ele>215.80000305176</ele>
        <time>2016-03-30T14:04:27Z</time>
      </trkpt>
      <trkpt lat="43.43361" lon="6.14088">
        <ele>215.80000305176</ele>
        <time>2016-03-30T14:04:28Z</time>
      </trkpt>
      <trkpt lat="43.43359" lon="6.1408">
        <ele>216</ele>
        <time>2016-03-30T14:04:30Z</time>
      </trkpt>
      <trkpt lat="43.43358" lon="6.14072">
        <ele>216.19999694824</ele>
        <time>2016-03-30T14:04:32Z</time>
      </trkpt>
      <trkpt lat="43.43357" lon="6.1405">
        <ele>216.60000610352</ele>
        <time>2016-03-30T14:04:37Z</time>
      </trkpt>
      <trkpt lat="43.43356" lon="6.14046">
        <ele>216.60000610352</ele>
        <time>2016-03-30T14:04:38Z</time>
      </trkpt>
      <trkpt lat="43.43356" lon="6.14041">
        <ele>216.80000305176</ele>
        <time>2016-03-30T14:04:39Z</time>
      </trkpt>
      <trkpt lat="43.43356" lon="6.14032">
        <ele>216.60000610352</ele>
        <time>2016-03-30T14:04:41Z</time>
      </trkpt>
      <trkpt lat="43.43356" lon="6.14021">
        <ele>216.39999389648</ele>
        <time>2016-03-30T14:04:43Z</time>
      </trkpt>
      <trkpt lat="43.43358" lon="6.14002">
        <ele>215.60000610352</ele>
        <time>2016-03-30T14:04:46Z</time>
      </trkpt>
      <trkpt lat="43.43357" lon="6.13988">
        <ele>215.39999389648</ele>
        <time>2016-03-30T14:04:48Z</time>
      </trkpt>
      <trkpt lat="43.43357" lon="6.1398">
        <ele>215</ele>
        <time>2016-03-30T14:04:49Z</time>
      </trkpt>
      <trkpt lat="43.43357" lon="6.13972">
        <ele>214.39999389648</ele>
        <time>2016-03-30T14:04:50Z</time>
      </trkpt>
      <trkpt lat="43.43357" lon="6.13948">
        <ele>213.19999694824</ele>
        <time>2016-03-30T14:04:53Z</time>
      </trkpt>
      <trkpt lat="43.43357" lon="6.13928">
        <ele>212.39999389648</ele>
        <time>2016-03-30T14:04:56Z</time>
      </trkpt>
      <trkpt lat="43.43356" lon="6.13921">
        <ele>212</ele>
        <time>2016-03-30T14:04:57Z</time>
      </trkpt>
      <trkpt lat="43.43351" lon="6.13893">
        <ele>211.19999694824</ele>
        <time>2016-03-30T14:05:01Z</time>
      </trkpt>
      <trkpt lat="43.43349" lon="6.13886">
        <ele>210.80000305176</ele>
        <time>2016-03-30T14:05:02Z</time>
      </trkpt>
      <trkpt lat="43.43347" lon="6.13879">
        <ele>210.60000610352</ele>
        <time>2016-03-30T14:05:03Z</time>
      </trkpt>
      <trkpt lat="43.43345" lon="6.13873">
        <ele>210.39999389648</ele>
        <time>2016-03-30T14:05:04Z</time>
      </trkpt>
      <trkpt lat="43.43335" lon="6.13856">
        <ele>210</ele>
        <time>2016-03-30T14:05:07Z</time>
      </trkpt>
      <trkpt lat="43.43332" lon="6.13853">
        <ele>209.80000305176</ele>
        <time>2016-03-30T14:05:08Z</time>
      </trkpt>
      <trkpt lat="43.43316" lon="6.13829">
        <ele>209</ele>
        <time>2016-03-30T14:05:13Z</time>
      </trkpt>
      <trkpt lat="43.43313" lon="6.13824">
        <ele>208.60000610352</ele>
        <time>2016-03-30T14:05:14Z</time>
      </trkpt>
      <trkpt lat="43.43302" lon="6.13808">
        <ele>208</ele>
        <time>2016-03-30T14:05:17Z</time>
      </trkpt>
      <trkpt lat="43.43299" lon="6.13803">
        <ele>207.80000305176</ele>
        <time>2016-03-30T14:05:18Z</time>
      </trkpt>
      <trkpt lat="43.43292" lon="6.13792">
        <ele>207.39999389648</ele>
        <time>2016-03-30T14:05:20Z</time>
      </trkpt>
      <trkpt lat="43.43274" lon="6.13763">
        <ele>206.19999694824</ele>
        <time>2016-03-30T14:05:25Z</time>
      </trkpt>
      <trkpt lat="43.43262" lon="6.13745">
        <ele>205.19999694824</ele>
        <time>2016-03-30T14:05:28Z</time>
      </trkpt>
      <trkpt lat="43.43257" lon="6.13738">
        <ele>205.19999694824</ele>
        <time>2016-03-30T14:05:29Z</time>
      </trkpt>
      <trkpt lat="43.43236" lon="6.13704">
        <ele>204.39999389648</ele>
        <time>2016-03-30T14:05:34Z</time>
      </trkpt>
      <trkpt lat="43.43231" lon="6.13697">
        <ele>204.19999694824</ele>
        <time>2016-03-30T14:05:35Z</time>
      </trkpt>
      <trkpt lat="43.43208" lon="6.13661">
        <ele>203.39999389648</ele>
        <time>2016-03-30T14:05:40Z</time>
      </trkpt>
      <trkpt lat="43.43202" lon="6.13653">
        <ele>203.19999694824</ele>
        <time>2016-03-30T14:05:41Z</time>
      </trkpt>
      <trkpt lat="43.43165" lon="6.13596">
        <ele>202</ele>
        <time>2016-03-30T14:05:49Z</time>
      </trkpt>
      <trkpt lat="43.4316" lon="6.13589">
        <ele>201.80000305176</ele>
        <time>2016-03-30T14:05:50Z</time>
      </trkpt>
      <trkpt lat="43.43126" lon="6.13534">
        <ele>200.60000610352</ele>
        <time>2016-03-30T14:05:58Z</time>
      </trkpt>
      <trkpt lat="43.43123" lon="6.13525">
        <ele>200.39999389648</ele>
        <time>2016-03-30T14:05:59Z</time>
      </trkpt>
      <trkpt lat="43.43118" lon="6.13498">
        <ele>199.80000305176</ele>
        <time>2016-03-30T14:06:02Z</time>
      </trkpt>
      <trkpt lat="43.43118" lon="6.13479">
        <ele>199.39999389648</ele>
        <time>2016-03-30T14:06:04Z</time>
      </trkpt>
      <trkpt lat="43.43118" lon="6.13468">
        <ele>199.19999694824</ele>
        <time>2016-03-30T14:06:05Z</time>
      </trkpt>
      <trkpt lat="43.43119" lon="6.13459">
        <ele>199</ele>
        <time>2016-03-30T14:06:06Z</time>
      </trkpt>
      <trkpt lat="43.43124" lon="6.13408">
        <ele>198</ele>
        <time>2016-03-30T14:06:11Z</time>
      </trkpt>
      <trkpt lat="43.43127" lon="6.13378">
        <ele>197.39999389648</ele>
        <time>2016-03-30T14:06:14Z</time>
      </trkpt>
      <trkpt lat="43.4313" lon="6.13359">
        <ele>196.80000305176</ele>
        <time>2016-03-30T14:06:16Z</time>
      </trkpt>
      <trkpt lat="43.43134" lon="6.13302">
        <ele>195.80000305176</ele>
        <time>2016-03-30T14:06:22Z</time>
      </trkpt>
      <trkpt lat="43.43131" lon="6.13272">
        <ele>195.19999694824</ele>
        <time>2016-03-30T14:06:26Z</time>
      </trkpt>
      <trkpt lat="43.43128" lon="6.13264">
        <ele>195.19999694824</ele>
        <time>2016-03-30T14:06:29Z</time>
      </trkpt>
      <trkpt lat="43.43128" lon="6.13264">
        <ele>195.39999389648</ele>
        <time>2016-03-30T14:06:33Z</time>
      </trkpt>
      <trkpt lat="43.43128" lon="6.13265">
        <ele>195.19999694824</ele>
        <time>2016-03-30T14:06:51Z</time>
      </trkpt>
      <trkpt lat="43.43128" lon="6.13265">
        <ele>195</ele>
        <time>2016-03-30T14:07:02Z</time>
      </trkpt>
      <trkpt lat="43.43128" lon="6.13265">
        <ele>195.19999694824</ele>
        <time>2016-03-30T14:07:14Z</time>
      </trkpt>
      <trkpt lat="43.43128" lon="6.13264">
        <ele>195.19999694824</ele>
        <time>2016-03-30T14:07:26Z</time>
      </trkpt>
      <trkpt lat="43.43127" lon="6.13258">
        <ele>195</ele>
        <time>2016-03-30T14:07:31Z</time>
      </trkpt>
      <trkpt lat="43.43127" lon="6.13256">
        <ele>195</ele>
        <time>2016-03-30T14:07:32Z</time>
      </trkpt>
      <trkpt lat="43.43124" lon="6.1324">
        <ele>195</ele>
        <time>2016-03-30T14:07:37Z</time>
      </trkpt>
      <trkpt lat="43.43119" lon="6.13212">
        <ele>195</ele>
        <time>2016-03-30T14:07:42Z</time>
      </trkpt>
      <trkpt lat="43.4311" lon="6.13172">
        <ele>195</ele>
        <time>2016-03-30T14:07:48Z</time>
      </trkpt>
      <trkpt lat="43.43096" lon="6.13116">
        <ele>195.39999389648</ele>
        <time>2016-03-30T14:07:56Z</time>
      </trkpt>
      <trkpt lat="43.43092" lon="6.13101">
        <ele>195.39999389648</ele>
        <time>2016-03-30T14:07:58Z</time>
      </trkpt>
      <trkpt lat="43.43086" lon="6.13077">
        <ele>195.39999389648</ele>
        <time>2016-03-30T14:08:01Z</time>
      </trkpt>
      <trkpt lat="43.43081" lon="6.13054">
        <ele>195.80000305176</ele>
        <time>2016-03-30T14:08:04Z</time>
      </trkpt>
      <trkpt lat="43.43074" lon="6.13029">
        <ele>195.60000610352</ele>
        <time>2016-03-30T14:08:07Z</time>
      </trkpt>
      <trkpt lat="43.43068" lon="6.13006">
        <ele>195.39999389648</ele>
        <time>2016-03-30T14:08:10Z</time>
      </trkpt>
      <trkpt lat="43.43061" lon="6.12981">
        <ele>195.60000610352</ele>
        <time>2016-03-30T14:08:13Z</time>
      </trkpt>
      <trkpt lat="43.43048" lon="6.12933">
        <ele>196</ele>
        <time>2016-03-30T14:08:19Z</time>
      </trkpt>
      <trkpt lat="43.43044" lon="6.12918">
        <ele>196</ele>
        <time>2016-03-30T14:08:21Z</time>
      </trkpt>
      <trkpt lat="43.43029" lon="6.12858">
        <ele>195.80000305176</ele>
        <time>2016-03-30T14:08:29Z</time>
      </trkpt>
      <trkpt lat="43.43019" lon="6.12802">
        <ele>195.60000610352</ele>
        <time>2016-03-30T14:08:36Z</time>
      </trkpt>
      <trkpt lat="43.43019" lon="6.12759">
        <ele>195.60000610352</ele>
        <time>2016-03-30T14:08:41Z</time>
      </trkpt>
      <trkpt lat="43.4302" lon="6.12695">
        <ele>196</ele>
        <time>2016-03-30T14:08:49Z</time>
      </trkpt>
      <trkpt lat="43.43022" lon="6.12658">
        <ele>196</ele>
        <time>2016-03-30T14:08:54Z</time>
      </trkpt>
      <trkpt lat="43.43022" lon="6.12652">
        <ele>196</ele>
        <time>2016-03-30T14:08:55Z</time>
      </trkpt>
      <trkpt lat="43.43022" lon="6.1264">
        <ele>196</ele>
        <time>2016-03-30T14:08:58Z</time>
      </trkpt>
      <trkpt lat="43.43022" lon="6.12633">
        <ele>196</ele>
        <time>2016-03-30T14:09:00Z</time>
      </trkpt>
      <trkpt lat="43.43023" lon="6.12607">
        <ele>196.39999389648</ele>
        <time>2016-03-30T14:09:06Z</time>
      </trkpt>
      <trkpt lat="43.43023" lon="6.12591">
        <ele>196.60000610352</ele>
        <time>2016-03-30T14:09:10Z</time>
      </trkpt>
      <trkpt lat="43.43023" lon="6.12582">
        <ele>196.39999389648</ele>
        <time>2016-03-30T14:09:13Z</time>
      </trkpt>
      <trkpt lat="43.43021" lon="6.1257">
        <ele>196.60000610352</ele>
        <time>2016-03-30T14:09:19Z</time>
      </trkpt>
      <trkpt lat="43.43021" lon="6.12569">
        <ele>196.60000610352</ele>
        <time>2016-03-30T14:09:20Z</time>
      </trkpt>
      <trkpt lat="43.43021" lon="6.12569">
        <ele>196.60000610352</ele>
        <time>2016-03-30T14:09:26Z</time>
      </trkpt>
      <trkpt lat="43.43021" lon="6.12569">
        <ele>196.60000610352</ele>
        <time>2016-03-30T14:09:28Z</time>
      </trkpt>
      <trkpt lat="43.43021" lon="6.12569">
        <ele>196.80000305176</ele>
        <time>2016-03-30T14:09:38Z</time>
      </trkpt>
      <trkpt lat="43.43021" lon="6.12569">
        <ele>196.80000305176</ele>
        <time>2016-03-30T14:09:47Z</time>
      </trkpt>
      <trkpt lat="43.43021" lon="6.12569">
        <ele>196.80000305176</ele>
        <time>2016-03-30T14:09:53Z</time>
      </trkpt>
      <trkpt lat="43.43021" lon="6.12569">
        <ele>197</ele>
        <time>2016-03-30T14:09:59Z</time>
      </trkpt>
      <trkpt lat="43.43021" lon="6.12569">
        <ele>196.80000305176</ele>
        <time>2016-03-30T14:10:15Z</time>
      </trkpt>
      <trkpt lat="43.43021" lon="6.12569">
        <ele>197</ele>
        <time>2016-03-30T14:10:27Z</time>
      </trkpt>
      <trkpt lat="43.43021" lon="6.12569">
        <ele>197</ele>
        <time>2016-03-30T14:10:33Z</time>
      </trkpt>
      <trkpt lat="43.43021" lon="6.12568">
        <ele>197</ele>
        <time>2016-03-30T14:10:39Z</time>
      </trkpt>
      <trkpt lat="43.43021" lon="6.12567">
        <ele>197.60000610352</ele>
        <time>2016-03-30T14:10:44Z</time>
      </trkpt>
      <trkpt lat="43.43019" lon="6.1256">
        <ele>197</ele>
        <time>2016-03-30T14:10:51Z</time>
      </trkpt>
      <trkpt lat="43.43015" lon="6.12537">
        <ele>197</ele>
        <time>2016-03-30T14:10:57Z</time>
      </trkpt>
      <trkpt lat="43.4301" lon="6.12507">
        <ele>197.19999694824</ele>
        <time>2016-03-30T14:11:03Z</time>
      </trkpt>
      <trkpt lat="43.43004" lon="6.12471">
        <ele>198.60000610352</ele>
        <time>2016-03-30T14:11:10Z</time>
      </trkpt>
      <trkpt lat="43.43003" lon="6.12465">
        <ele>198.80000305176</ele>
        <time>2016-03-30T14:11:11Z</time>
      </trkpt>
      <trkpt lat="43.42999" lon="6.12449">
        <ele>199</ele>
        <time>2016-03-30T14:11:14Z</time>
      </trkpt>
      <trkpt lat="43.42995" lon="6.12434">
        <ele>199.60000610352</ele>
        <time>2016-03-30T14:11:17Z</time>
      </trkpt>
      <trkpt lat="43.42993" lon="6.12429">
        <ele>199.80000305176</ele>
        <time>2016-03-30T14:11:18Z</time>
      </trkpt>
      <trkpt lat="43.42992" lon="6.12424">
        <ele>200</ele>
        <time>2016-03-30T14:11:19Z</time>
      </trkpt>
      <trkpt lat="43.42986" lon="6.12404">
        <ele>200.60000610352</ele>
        <time>2016-03-30T14:11:23Z</time>
      </trkpt>
      <trkpt lat="43.42984" lon="6.12399">
        <ele>200.80000305176</ele>
        <time>2016-03-30T14:11:24Z</time>
      </trkpt>
      <trkpt lat="43.42978" lon="6.12362">
        <ele>201.60000610352</ele>
        <time>2016-03-30T14:11:31Z</time>
      </trkpt>
      <trkpt lat="43.42973" lon="6.1234">
        <ele>201.60000610352</ele>
        <time>2016-03-30T14:11:35Z</time>
      </trkpt>
      <trkpt lat="43.42968" lon="6.12329">
        <ele>201.60000610352</ele>
        <time>2016-03-30T14:11:37Z</time>
      </trkpt>
      <trkpt lat="43.42953" lon="6.12319">
        <ele>201.19999694824</ele>
        <time>2016-03-30T14:11:41Z</time>
      </trkpt>
      <trkpt lat="43.42949" lon="6.12318">
        <ele>201.39999389648</ele>
        <time>2016-03-30T14:11:42Z</time>
      </trkpt>
      <trkpt lat="43.42931" lon="6.1232">
        <ele>201</ele>
        <time>2016-03-30T14:11:46Z</time>
      </trkpt>
      <trkpt lat="43.42897" lon="6.12328">
        <ele>200.60000610352</ele>
        <time>2016-03-30T14:11:53Z</time>
      </trkpt>
      <trkpt lat="43.42872" lon="6.12346">
        <ele>200.80000305176</ele>
        <time>2016-03-30T14:12:00Z</time>
      </trkpt>
      <trkpt lat="43.42868" lon="6.1235">
        <ele>200.60000610352</ele>
        <time>2016-03-30T14:12:01Z</time>
      </trkpt>
      <trkpt lat="43.42859" lon="6.12363">
        <ele>200.19999694824</ele>
        <time>2016-03-30T14:12:04Z</time>
      </trkpt>
      <trkpt lat="43.42856" lon="6.12368">
        <ele>200.19999694824</ele>
        <time>2016-03-30T14:12:05Z</time>
      </trkpt>
      <trkpt lat="43.42846" lon="6.12382">
        <ele>200.19999694824</ele>
        <time>2016-03-30T14:12:08Z</time>
      </trkpt>
      <trkpt lat="43.42836" lon="6.12397">
        <ele>199.80000305176</ele>
        <time>2016-03-30T14:12:11Z</time>
      </trkpt>
      <trkpt lat="43.42815" lon="6.12428">
        <ele>199.80000305176</ele>
        <time>2016-03-30T14:12:17Z</time>
      </trkpt>
      <trkpt lat="43.42808" lon="6.12437">
        <ele>199.80000305176</ele>
        <time>2016-03-30T14:12:19Z</time>
      </trkpt>
      <trkpt lat="43.42804" lon="6.12441">
        <ele>199.60000610352</ele>
        <time>2016-03-30T14:12:20Z</time>
      </trkpt>
      <trkpt lat="43.42783" lon="6.1246">
        <ele>199.19999694824</ele>
        <time>2016-03-30T14:12:25Z</time>
      </trkpt>
      <trkpt lat="43.42757" lon="6.12472">
        <ele>199.19999694824</ele>
        <time>2016-03-30T14:12:31Z</time>
      </trkpt>
      <trkpt lat="43.42724" lon="6.12474">
        <ele>199.60000610352</ele>
        <time>2016-03-30T14:12:39Z</time>
      </trkpt>
      <trkpt lat="43.42693" lon="6.12474">
        <ele>200</ele>
        <time>2016-03-30T14:12:47Z</time>
      </trkpt>
      <trkpt lat="43.42678" lon="6.12475">
        <ele>200.39999389648</ele>
        <time>2016-03-30T14:12:51Z</time>
      </trkpt>
      <trkpt lat="43.42659" lon="6.12471">
        <ele>200.19999694824</ele>
        <time>2016-03-30T14:12:56Z</time>
      </trkpt>
      <trkpt lat="43.42648" lon="6.12465">
        <ele>200.60000610352</ele>
        <time>2016-03-30T14:12:59Z</time>
      </trkpt>
      <trkpt lat="43.42639" lon="6.12457">
        <ele>201</ele>
        <time>2016-03-30T14:13:02Z</time>
      </trkpt>
      <trkpt lat="43.42627" lon="6.12444">
        <ele>201.39999389648</ele>
        <time>2016-03-30T14:13:06Z</time>
      </trkpt>
      <trkpt lat="43.42618" lon="6.12432">
        <ele>201.39999389648</ele>
        <time>2016-03-30T14:13:09Z</time>
      </trkpt>
      <trkpt lat="43.42603" lon="6.1241">
        <ele>201.19999694824</ele>
        <time>2016-03-30T14:13:14Z</time>
      </trkpt>
      <trkpt lat="43.426" lon="6.12405">
        <ele>201.19999694824</ele>
        <time>2016-03-30T14:13:15Z</time>
      </trkpt>
      <trkpt lat="43.42575" lon="6.12368">
        <ele>200.60000610352</ele>
        <time>2016-03-30T14:13:23Z</time>
      </trkpt>
      <trkpt lat="43.42557" lon="6.12331">
        <ele>200.80000305176</ele>
        <time>2016-03-30T14:13:30Z</time>
      </trkpt>
      <trkpt lat="43.42554" lon="6.12325">
        <ele>200.39999389648</ele>
        <time>2016-03-30T14:13:31Z</time>
      </trkpt>
      <trkpt lat="43.4254" lon="6.12296">
        <ele>200</ele>
        <time>2016-03-30T14:13:36Z</time>
      </trkpt>
      <trkpt lat="43.42531" lon="6.12279">
        <ele>199.80000305176</ele>
        <time>2016-03-30T14:13:39Z</time>
      </trkpt>
      <trkpt lat="43.42517" lon="6.12246">
        <ele>200</ele>
        <time>2016-03-30T14:13:45Z</time>
      </trkpt>
      <trkpt lat="43.42499" lon="6.12204">
        <ele>200.19999694824</ele>
        <time>2016-03-30T14:13:53Z</time>
      </trkpt>
      <trkpt lat="43.42477" lon="6.12158">
        <ele>200.19999694824</ele>
        <time>2016-03-30T14:14:02Z</time>
      </trkpt>
      <trkpt lat="43.42472" lon="6.1215">
        <ele>200.19999694824</ele>
        <time>2016-03-30T14:14:04Z</time>
      </trkpt>
      <trkpt lat="43.42453" lon="6.12125">
        <ele>200</ele>
        <time>2016-03-30T14:14:10Z</time>
      </trkpt>
      <trkpt lat="43.42425" lon="6.12089">
        <ele>200.60000610352</ele>
        <time>2016-03-30T14:14:19Z</time>
      </trkpt>
      <trkpt lat="43.42405" lon="6.12051">
        <ele>200.60000610352</ele>
        <time>2016-03-30T14:14:27Z</time>
      </trkpt>
      <trkpt lat="43.4239" lon="6.12009">
        <ele>201</ele>
        <time>2016-03-30T14:14:35Z</time>
      </trkpt>
      <trkpt lat="43.42376" lon="6.11954">
        <ele>201.80000305176</ele>
        <time>2016-03-30T14:14:45Z</time>
      </trkpt>
      <trkpt lat="43.42368" lon="6.1192">
        <ele>202.19999694824</ele>
        <time>2016-03-30T14:14:51Z</time>
      </trkpt>
      <trkpt lat="43.4236" lon="6.11887">
        <ele>203</ele>
        <time>2016-03-30T14:14:57Z</time>
      </trkpt>
      <trkpt lat="43.42359" lon="6.11882">
        <ele>203.19999694824</ele>
        <time>2016-03-30T14:14:58Z</time>
      </trkpt>
      <trkpt lat="43.4235" lon="6.11847">
        <ele>204</ele>
        <time>2016-03-30T14:15:05Z</time>
      </trkpt>
      <trkpt lat="43.42348" lon="6.11842">
        <ele>204</ele>
        <time>2016-03-30T14:15:06Z</time>
      </trkpt>
      <trkpt lat="43.42335" lon="6.11807">
        <ele>204.80000305176</ele>
        <time>2016-03-30T14:15:13Z</time>
      </trkpt>
      <trkpt lat="43.42314" lon="6.11773">
        <ele>204.19999694824</ele>
        <time>2016-03-30T14:15:20Z</time>
      </trkpt>
      <trkpt lat="43.42304" lon="6.1176">
        <ele>204.19999694824</ele>
        <time>2016-03-30T14:15:23Z</time>
      </trkpt>
      <trkpt lat="43.4229" lon="6.11744">
        <ele>203.60000610352</ele>
        <time>2016-03-30T14:15:27Z</time>
      </trkpt>
      <trkpt lat="43.42263" lon="6.11712">
        <ele>203.19999694824</ele>
        <time>2016-03-30T14:15:36Z</time>
      </trkpt>
      <trkpt lat="43.42236" lon="6.11674">
        <ele>203.39999389648</ele>
        <time>2016-03-30T14:15:45Z</time>
      </trkpt>
      <trkpt lat="43.42216" lon="6.11642">
        <ele>203</ele>
        <time>2016-03-30T14:15:52Z</time>
      </trkpt>
      <trkpt lat="43.42194" lon="6.11605">
        <ele>203.19999694824</ele>
        <time>2016-03-30T14:16:00Z</time>
      </trkpt>
      <trkpt lat="43.42169" lon="6.11562">
        <ele>203.80000305176</ele>
        <time>2016-03-30T14:16:09Z</time>
      </trkpt>
      <trkpt lat="43.42136" lon="6.11505">
        <ele>204.19999694824</ele>
        <time>2016-03-30T14:16:21Z</time>
      </trkpt>
      <trkpt lat="43.42115" lon="6.1147">
        <ele>203.80000305176</ele>
        <time>2016-03-30T14:16:28Z</time>
      </trkpt>
      <trkpt lat="43.42096" lon="6.11437">
        <ele>203.19999694824</ele>
        <time>2016-03-30T14:16:34Z</time>
      </trkpt>
      <trkpt lat="43.42087" lon="6.11421">
        <ele>203</ele>
        <time>2016-03-30T14:16:37Z</time>
      </trkpt>
      <trkpt lat="43.42068" lon="6.11386">
        <ele>203.19999694824</ele>
        <time>2016-03-30T14:16:44Z</time>
      </trkpt>
      <trkpt lat="43.42065" lon="6.11381">
        <ele>203.39999389648</ele>
        <time>2016-03-30T14:16:45Z</time>
      </trkpt>
      <trkpt lat="43.42036" lon="6.11328">
        <ele>202.60000610352</ele>
        <time>2016-03-30T14:16:55Z</time>
      </trkpt>
      <trkpt lat="43.42008" lon="6.11281">
        <ele>202.19999694824</ele>
        <time>2016-03-30T14:17:04Z</time>
      </trkpt>
      <trkpt lat="43.42004" lon="6.11277">
        <ele>202.19999694824</ele>
        <time>2016-03-30T14:17:05Z</time>
      </trkpt>
      <trkpt lat="43.41975" lon="6.11238">
        <ele>202.39999389648</ele>
        <time>2016-03-30T14:17:14Z</time>
      </trkpt>
      <trkpt lat="43.41953" lon="6.11205">
        <ele>202.60000610352</ele>
        <time>2016-03-30T14:17:21Z</time>
      </trkpt>
      <trkpt lat="43.41948" lon="6.11196">
        <ele>202.60000610352</ele>
        <time>2016-03-30T14:17:23Z</time>
      </trkpt>
      <trkpt lat="43.41945" lon="6.11191">
        <ele>202.39999389648</ele>
        <time>2016-03-30T14:17:24Z</time>
      </trkpt>
      <trkpt lat="43.41928" lon="6.11152">
        <ele>202.60000610352</ele>
        <time>2016-03-30T14:17:32Z</time>
      </trkpt>
      <trkpt lat="43.41919" lon="6.11115">
        <ele>203</ele>
        <time>2016-03-30T14:17:39Z</time>
      </trkpt>
      <trkpt lat="43.41919" lon="6.11099">
        <ele>203.19999694824</ele>
        <time>2016-03-30T14:17:42Z</time>
      </trkpt>
      <trkpt lat="43.4192" lon="6.11077">
        <ele>203.60000610352</ele>
        <time>2016-03-30T14:17:46Z</time>
      </trkpt>
      <trkpt lat="43.41925" lon="6.11027">
        <ele>204</ele>
        <time>2016-03-30T14:17:55Z</time>
      </trkpt>
      <trkpt lat="43.41927" lon="6.11005">
        <ele>204.60000610352</ele>
        <time>2016-03-30T14:17:59Z</time>
      </trkpt>
      <trkpt lat="43.41926" lon="6.1099">
        <ele>205</ele>
        <time>2016-03-30T14:18:02Z</time>
      </trkpt>
      <trkpt lat="43.41925" lon="6.1098">
        <ele>205.39999389648</ele>
        <time>2016-03-30T14:18:04Z</time>
      </trkpt>
      <trkpt lat="43.41924" lon="6.10975">
        <ele>205.60000610352</ele>
        <time>2016-03-30T14:18:05Z</time>
      </trkpt>
      <trkpt lat="43.41923" lon="6.1097">
        <ele>205.80000305176</ele>
        <time>2016-03-30T14:18:06Z</time>
      </trkpt>
      <trkpt lat="43.41922" lon="6.10964">
        <ele>206</ele>
        <time>2016-03-30T14:18:07Z</time>
      </trkpt>
      <trkpt lat="43.4192" lon="6.10959">
        <ele>205.80000305176</ele>
        <time>2016-03-30T14:18:08Z</time>
      </trkpt>
      <trkpt lat="43.41919" lon="6.10954">
        <ele>205.80000305176</ele>
        <time>2016-03-30T14:18:09Z</time>
      </trkpt>
      <trkpt lat="43.41915" lon="6.10937">
        <ele>205.60000610352</ele>
        <time>2016-03-30T14:18:12Z</time>
      </trkpt>
      <trkpt lat="43.4191" lon="6.10915">
        <ele>205.60000610352</ele>
        <time>2016-03-30T14:18:16Z</time>
      </trkpt>
      <trkpt lat="43.41906" lon="6.10897">
        <ele>205.39999389648</ele>
        <time>2016-03-30T14:18:19Z</time>
      </trkpt>
      <trkpt lat="43.41905" lon="6.10886">
        <ele>205.39999389648</ele>
        <time>2016-03-30T14:18:21Z</time>
      </trkpt>
      <trkpt lat="43.41904" lon="6.1088">
        <ele>205.19999694824</ele>
        <time>2016-03-30T14:18:22Z</time>
      </trkpt>
      <trkpt lat="43.41904" lon="6.10874">
        <ele>205.19999694824</ele>
        <time>2016-03-30T14:18:23Z</time>
      </trkpt>
      <trkpt lat="43.41904" lon="6.10862">
        <ele>205</ele>
        <time>2016-03-30T14:18:25Z</time>
      </trkpt>
      <trkpt lat="43.41905" lon="6.1085">
        <ele>205</ele>
        <time>2016-03-30T14:18:27Z</time>
      </trkpt>
      <trkpt lat="43.41906" lon="6.10839">
        <ele>205</ele>
        <time>2016-03-30T14:18:29Z</time>
      </trkpt>
      <trkpt lat="43.41908" lon="6.10823">
        <ele>205.19999694824</ele>
        <time>2016-03-30T14:18:32Z</time>
      </trkpt>
      <trkpt lat="43.4191" lon="6.10801">
        <ele>205.19999694824</ele>
        <time>2016-03-30T14:18:36Z</time>
      </trkpt>
      <trkpt lat="43.41914" lon="6.10771">
        <ele>205</ele>
        <time>2016-03-30T14:18:41Z</time>
      </trkpt>
      <trkpt lat="43.41916" lon="6.1076">
        <ele>204.60000610352</ele>
        <time>2016-03-30T14:18:43Z</time>
      </trkpt>
      <trkpt lat="43.41925" lon="6.10725">
        <ele>205.39999389648</ele>
        <time>2016-03-30T14:18:50Z</time>
      </trkpt>
      <trkpt lat="43.41937" lon="6.10697">
        <ele>205.19999694824</ele>
        <time>2016-03-30T14:18:56Z</time>
      </trkpt>
      <trkpt lat="43.41954" lon="6.1065">
        <ele>205.39999389648</ele>
        <time>2016-03-30T14:19:05Z</time>
      </trkpt>
      <trkpt lat="43.4197" lon="6.10595">
        <ele>205.80000305176</ele>
        <time>2016-03-30T14:19:15Z</time>
      </trkpt>
      <trkpt lat="43.41983" lon="6.10553">
        <ele>205.80000305176</ele>
        <time>2016-03-30T14:19:23Z</time>
      </trkpt>
      <trkpt lat="43.41988" lon="6.10531">
        <ele>206.19999694824</ele>
        <time>2016-03-30T14:19:27Z</time>
      </trkpt>
      <trkpt lat="43.4199" lon="6.10514">
        <ele>206.60000610352</ele>
        <time>2016-03-30T14:19:30Z</time>
      </trkpt>
      <trkpt lat="43.4199" lon="6.10508">
        <ele>206.80000305176</ele>
        <time>2016-03-30T14:19:31Z</time>
      </trkpt>
      <trkpt lat="43.4199" lon="6.10502">
        <ele>206.80000305176</ele>
        <time>2016-03-30T14:19:32Z</time>
      </trkpt>
      <trkpt lat="43.4199" lon="6.10495">
        <ele>206.80000305176</ele>
        <time>2016-03-30T14:19:33Z</time>
      </trkpt>
      <trkpt lat="43.41991" lon="6.1049">
        <ele>206.80000305176</ele>
        <time>2016-03-30T14:19:34Z</time>
      </trkpt>
      <trkpt lat="43.41991" lon="6.10484">
        <ele>207</ele>
        <time>2016-03-30T14:19:35Z</time>
      </trkpt>
      <trkpt lat="43.41991" lon="6.10465">
        <ele>207</ele>
        <time>2016-03-30T14:19:38Z</time>
      </trkpt>
      <trkpt lat="43.41992" lon="6.10441">
        <ele>207</ele>
        <time>2016-03-30T14:19:42Z</time>
      </trkpt>
      <trkpt lat="43.41993" lon="6.10429">
        <ele>207</ele>
        <time>2016-03-30T14:19:44Z</time>
      </trkpt>
      <trkpt lat="43.41994" lon="6.10417">
        <ele>207</ele>
        <time>2016-03-30T14:19:46Z</time>
      </trkpt>
      <trkpt lat="43.41995" lon="6.10411">
        <ele>207</ele>
        <time>2016-03-30T14:19:47Z</time>
      </trkpt>
      <trkpt lat="43.41996" lon="6.10406">
        <ele>207.19999694824</ele>
        <time>2016-03-30T14:19:48Z</time>
      </trkpt>
      <trkpt lat="43.41998" lon="6.10394">
        <ele>207</ele>
        <time>2016-03-30T14:19:50Z</time>
      </trkpt>
      <trkpt lat="43.41999" lon="6.10382">
        <ele>207.19999694824</ele>
        <time>2016-03-30T14:19:52Z</time>
      </trkpt>
      <trkpt lat="43.42" lon="6.10376">
        <ele>207.39999389648</ele>
        <time>2016-03-30T14:19:53Z</time>
      </trkpt>
      <trkpt lat="43.42004" lon="6.10352">
        <ele>207</ele>
        <time>2016-03-30T14:19:57Z</time>
      </trkpt>
      <trkpt lat="43.42006" lon="6.10341">
        <ele>207.19999694824</ele>
        <time>2016-03-30T14:19:59Z</time>
      </trkpt>
      <trkpt lat="43.42007" lon="6.10329">
        <ele>207</ele>
        <time>2016-03-30T14:20:01Z</time>
      </trkpt>
      <trkpt lat="43.4201" lon="6.10312">
        <ele>207.19999694824</ele>
        <time>2016-03-30T14:20:04Z</time>
      </trkpt>
      <trkpt lat="43.42012" lon="6.10294">
        <ele>207.80000305176</ele>
        <time>2016-03-30T14:20:07Z</time>
      </trkpt>
      <trkpt lat="43.42013" lon="6.10289">
        <ele>207.80000305176</ele>
        <time>2016-03-30T14:20:08Z</time>
      </trkpt>
      <trkpt lat="43.42013" lon="6.10283">
        <ele>208</ele>
        <time>2016-03-30T14:20:09Z</time>
      </trkpt>
      <trkpt lat="43.42015" lon="6.10267">
        <ele>207.80000305176</ele>
        <time>2016-03-30T14:20:12Z</time>
      </trkpt>
      <trkpt lat="43.42016" lon="6.10262">
        <ele>207.80000305176</ele>
        <time>2016-03-30T14:20:13Z</time>
      </trkpt>
      <trkpt lat="43.42018" lon="6.10251">
        <ele>208</ele>
        <time>2016-03-30T14:20:15Z</time>
      </trkpt>
      <trkpt lat="43.4202" lon="6.1024">
        <ele>208.19999694824</ele>
        <time>2016-03-30T14:20:17Z</time>
      </trkpt>
      <trkpt lat="43.42021" lon="6.10229">
        <ele>208.19999694824</ele>
        <time>2016-03-30T14:20:19Z</time>
      </trkpt>
      <trkpt lat="43.42022" lon="6.10224">
        <ele>208.39999389648</ele>
        <time>2016-03-30T14:20:20Z</time>
      </trkpt>
      <trkpt lat="43.42024" lon="6.10204">
        <ele>208.80000305176</ele>
        <time>2016-03-30T14:20:24Z</time>
      </trkpt>
      <trkpt lat="43.42025" lon="6.10194">
        <ele>209.19999694824</ele>
        <time>2016-03-30T14:20:26Z</time>
      </trkpt>
      <trkpt lat="43.42026" lon="6.10185">
        <ele>209.19999694824</ele>
        <time>2016-03-30T14:20:28Z</time>
      </trkpt>
      <trkpt lat="43.42026" lon="6.1018">
        <ele>209.39999389648</ele>
        <time>2016-03-30T14:20:29Z</time>
      </trkpt>
      <trkpt lat="43.42027" lon="6.10175">
        <ele>209.39999389648</ele>
        <time>2016-03-30T14:20:30Z</time>
      </trkpt>
      <trkpt lat="43.42028" lon="6.10165">
        <ele>209.39999389648</ele>
        <time>2016-03-30T14:20:32Z</time>
      </trkpt>
      <trkpt lat="43.42029" lon="6.1016">
        <ele>209.39999389648</ele>
        <time>2016-03-30T14:20:33Z</time>
      </trkpt>
      <trkpt lat="43.4203" lon="6.10154">
        <ele>209.39999389648</ele>
        <time>2016-03-30T14:20:34Z</time>
      </trkpt>
      <trkpt lat="43.4203" lon="6.10144">
        <ele>209.39999389648</ele>
        <time>2016-03-30T14:20:36Z</time>
      </trkpt>
      <trkpt lat="43.42032" lon="6.10133">
        <ele>209.60000610352</ele>
        <time>2016-03-30T14:20:38Z</time>
      </trkpt>
      <trkpt lat="43.42034" lon="6.10117">
        <ele>210</ele>
        <time>2016-03-30T14:20:41Z</time>
      </trkpt>
      <trkpt lat="43.42035" lon="6.10112">
        <ele>209.60000610352</ele>
        <time>2016-03-30T14:20:42Z</time>
      </trkpt>
      <trkpt lat="43.42037" lon="6.10096">
        <ele>210</ele>
        <time>2016-03-30T14:20:45Z</time>
      </trkpt>
      <trkpt lat="43.4204" lon="6.1007">
        <ele>210</ele>
        <time>2016-03-30T14:20:50Z</time>
      </trkpt>
      <trkpt lat="43.42043" lon="6.10051">
        <ele>210.19999694824</ele>
        <time>2016-03-30T14:20:54Z</time>
      </trkpt>
      <trkpt lat="43.42045" lon="6.10046">
        <ele>210.39999389648</ele>
        <time>2016-03-30T14:20:55Z</time>
      </trkpt>
      <trkpt lat="43.42046" lon="6.10041">
        <ele>210.39999389648</ele>
        <time>2016-03-30T14:20:56Z</time>
      </trkpt>
      <trkpt lat="43.42048" lon="6.10031">
        <ele>210.39999389648</ele>
        <time>2016-03-30T14:20:58Z</time>
      </trkpt>
      <trkpt lat="43.4205" lon="6.10022">
        <ele>210.60000610352</ele>
        <time>2016-03-30T14:21:00Z</time>
      </trkpt>
      <trkpt lat="43.42053" lon="6.10006">
        <ele>210.60000610352</ele>
        <time>2016-03-30T14:21:03Z</time>
      </trkpt>
      <trkpt lat="43.42062" lon="6.09965">
        <ele>211</ele>
        <time>2016-03-30T14:21:11Z</time>
      </trkpt>
      <trkpt lat="43.42075" lon="6.0992">
        <ele>210.80000305176</ele>
        <time>2016-03-30T14:21:19Z</time>
      </trkpt>
      <trkpt lat="43.42091" lon="6.09877">
        <ele>210.80000305176</ele>
        <time>2016-03-30T14:21:27Z</time>
      </trkpt>
      <trkpt lat="43.42093" lon="6.09861">
        <ele>210.60000610352</ele>
        <time>2016-03-30T14:21:30Z</time>
      </trkpt>
      <trkpt lat="43.42093" lon="6.0985">
        <ele>210.19999694824</ele>
        <time>2016-03-30T14:21:32Z</time>
      </trkpt>
      <trkpt lat="43.42097" lon="6.09835">
        <ele>209.80000305176</ele>
        <time>2016-03-30T14:21:35Z</time>
      </trkpt>
      <trkpt lat="43.42096" lon="6.0983">
        <ele>209.80000305176</ele>
        <time>2016-03-30T14:21:37Z</time>
      </trkpt>
      <trkpt lat="43.42093" lon="6.09815">
        <ele>210</ele>
        <time>2016-03-30T14:21:42Z</time>
      </trkpt>
      <trkpt lat="43.42093" lon="6.0981">
        <ele>209.80000305176</ele>
        <time>2016-03-30T14:21:43Z</time>
      </trkpt>
      <trkpt lat="43.4209" lon="6.09784">
        <ele>210</ele>
        <time>2016-03-30T14:21:48Z</time>
      </trkpt>
      <trkpt lat="43.42079" lon="6.09739">
        <ele>210</ele>
        <time>2016-03-30T14:21:56Z</time>
      </trkpt>
      <trkpt lat="43.42059" lon="6.09705">
        <ele>210</ele>
        <time>2016-03-30T14:22:03Z</time>
      </trkpt>
      <trkpt lat="43.42033" lon="6.09681">
        <ele>210</ele>
        <time>2016-03-30T14:22:10Z</time>
      </trkpt>
      <trkpt lat="43.4202" lon="6.09673">
        <ele>209.80000305176</ele>
        <time>2016-03-30T14:22:13Z</time>
      </trkpt>
      <trkpt lat="43.42001" lon="6.09666">
        <ele>209.60000610352</ele>
        <time>2016-03-30T14:22:17Z</time>
      </trkpt>
      <trkpt lat="43.41986" lon="6.09663">
        <ele>209.19999694824</ele>
        <time>2016-03-30T14:22:20Z</time>
      </trkpt>
      <trkpt lat="43.41978" lon="6.0966">
        <ele>209</ele>
        <time>2016-03-30T14:22:22Z</time>
      </trkpt>
      <trkpt lat="43.41974" lon="6.09658">
        <ele>208.80000305176</ele>
        <time>2016-03-30T14:22:23Z</time>
      </trkpt>
      <trkpt lat="43.41963" lon="6.09656">
        <ele>208.80000305176</ele>
        <time>2016-03-30T14:22:25Z</time>
      </trkpt>
      <trkpt lat="43.41953" lon="6.09656">
        <ele>208.80000305176</ele>
        <time>2016-03-30T14:22:27Z</time>
      </trkpt>
      <trkpt lat="43.41951" lon="6.09654">
        <ele>208.80000305176</ele>
        <time>2016-03-30T14:22:28Z</time>
      </trkpt>
      <trkpt lat="43.41936" lon="6.09652">
        <ele>208.80000305176</ele>
        <time>2016-03-30T14:22:31Z</time>
      </trkpt>
      <trkpt lat="43.41914" lon="6.09651">
        <ele>209.39999389648</ele>
        <time>2016-03-30T14:22:36Z</time>
      </trkpt>
      <trkpt lat="43.4188" lon="6.09649">
        <ele>209.60000610352</ele>
        <time>2016-03-30T14:22:44Z</time>
      </trkpt>
      <trkpt lat="43.41844" lon="6.09646">
        <ele>210</ele>
        <time>2016-03-30T14:22:52Z</time>
      </trkpt>
      <trkpt lat="43.4183" lon="6.0964">
        <ele>209.80000305176</ele>
        <time>2016-03-30T14:22:55Z</time>
      </trkpt>
      <trkpt lat="43.41822" lon="6.09633">
        <ele>209.19999694824</ele>
        <time>2016-03-30T14:22:57Z</time>
      </trkpt>
      <trkpt lat="43.41809" lon="6.09615">
        <ele>209.19999694824</ele>
        <time>2016-03-30T14:23:01Z</time>
      </trkpt>
      <trkpt lat="43.41806" lon="6.0961">
        <ele>209.19999694824</ele>
        <time>2016-03-30T14:23:02Z</time>
      </trkpt>
      <trkpt lat="43.41788" lon="6.09568">
        <ele>209.19999694824</ele>
        <time>2016-03-30T14:23:10Z</time>
      </trkpt>
      <trkpt lat="43.4177" lon="6.09527">
        <ele>209</ele>
        <time>2016-03-30T14:23:18Z</time>
      </trkpt>
      <trkpt lat="43.41766" lon="6.09516">
        <ele>209</ele>
        <time>2016-03-30T14:23:20Z</time>
      </trkpt>
      <trkpt lat="43.41764" lon="6.0951">
        <ele>209</ele>
        <time>2016-03-30T14:23:21Z</time>
      </trkpt>
      <trkpt lat="43.41763" lon="6.09504">
        <ele>208.80000305176</ele>
        <time>2016-03-30T14:23:22Z</time>
      </trkpt>
      <trkpt lat="43.41761" lon="6.09498">
        <ele>208.60000610352</ele>
        <time>2016-03-30T14:23:23Z</time>
      </trkpt>
      <trkpt lat="43.41759" lon="6.09487">
        <ele>208.60000610352</ele>
        <time>2016-03-30T14:23:25Z</time>
      </trkpt>
      <trkpt lat="43.41758" lon="6.09481">
        <ele>208.80000305176</ele>
        <time>2016-03-30T14:23:26Z</time>
      </trkpt>
      <trkpt lat="43.41755" lon="6.0947">
        <ele>208.80000305176</ele>
        <time>2016-03-30T14:23:28Z</time>
      </trkpt>
      <trkpt lat="43.41753" lon="6.09464">
        <ele>208.80000305176</ele>
        <time>2016-03-30T14:23:29Z</time>
      </trkpt>
      <trkpt lat="43.41751" lon="6.09453">
        <ele>209</ele>
        <time>2016-03-30T14:23:31Z</time>
      </trkpt>
      <trkpt lat="43.4175" lon="6.09447">
        <ele>209</ele>
        <time>2016-03-30T14:23:32Z</time>
      </trkpt>
      <trkpt lat="43.41748" lon="6.09441">
        <ele>209</ele>
        <time>2016-03-30T14:23:33Z</time>
      </trkpt>
      <trkpt lat="43.41745" lon="6.09425">
        <ele>209</ele>
        <time>2016-03-30T14:23:36Z</time>
      </trkpt>
      <trkpt lat="43.41737" lon="6.09391">
        <ele>209</ele>
        <time>2016-03-30T14:23:42Z</time>
      </trkpt>
      <trkpt lat="43.41731" lon="6.09369">
        <ele>209.19999694824</ele>
        <time>2016-03-30T14:23:46Z</time>
      </trkpt>
      <trkpt lat="43.41729" lon="6.09358">
        <ele>209</ele>
        <time>2016-03-30T14:23:48Z</time>
      </trkpt>
      <trkpt lat="43.41727" lon="6.09346">
        <ele>209</ele>
        <time>2016-03-30T14:23:50Z</time>
      </trkpt>
      <trkpt lat="43.41726" lon="6.09334">
        <ele>209</ele>
        <time>2016-03-30T14:23:52Z</time>
      </trkpt>
      <trkpt lat="43.41724" lon="6.09299">
        <ele>209.19999694824</ele>
        <time>2016-03-30T14:23:58Z</time>
      </trkpt>
      <trkpt lat="43.41722" lon="6.09244">
        <ele>209</ele>
        <time>2016-03-30T14:24:07Z</time>
      </trkpt>
      <trkpt lat="43.41721" lon="6.09176">
        <ele>209.19999694824</ele>
        <time>2016-03-30T14:24:18Z</time>
      </trkpt>
      <trkpt lat="43.41721" lon="6.09121">
        <ele>209.39999389648</ele>
        <time>2016-03-30T14:24:27Z</time>
      </trkpt>
      <trkpt lat="43.41721" lon="6.09075">
        <ele>209.60000610352</ele>
        <time>2016-03-30T14:24:35Z</time>
      </trkpt>
      <trkpt lat="43.41721" lon="6.0907">
        <ele>209.60000610352</ele>
        <time>2016-03-30T14:24:36Z</time>
      </trkpt>
      <trkpt lat="43.41721" lon="6.09064">
        <ele>209.60000610352</ele>
        <time>2016-03-30T14:24:37Z</time>
      </trkpt>
      <trkpt lat="43.41723" lon="6.09047">
        <ele>209.39999389648</ele>
        <time>2016-03-30T14:24:40Z</time>
      </trkpt>
      <trkpt lat="43.41731" lon="6.08987">
        <ele>209.39999389648</ele>
        <time>2016-03-30T14:24:50Z</time>
      </trkpt>
      <trkpt lat="43.41734" lon="6.08964">
        <ele>209.19999694824</ele>
        <time>2016-03-30T14:24:54Z</time>
      </trkpt>
      <trkpt lat="43.41736" lon="6.08942">
        <ele>209.60000610352</ele>
        <time>2016-03-30T14:24:58Z</time>
      </trkpt>
      <trkpt lat="43.41736" lon="6.08901">
        <ele>209.80000305176</ele>
        <time>2016-03-30T14:25:05Z</time>
      </trkpt>
      <trkpt lat="43.41735" lon="6.08889">
        <ele>210</ele>
        <time>2016-03-30T14:25:07Z</time>
      </trkpt>
      <trkpt lat="43.41728" lon="6.08868">
        <ele>210</ele>
        <time>2016-03-30T14:25:11Z</time>
      </trkpt>
      <trkpt lat="43.41723" lon="6.08859">
        <ele>209.80000305176</ele>
        <time>2016-03-30T14:25:13Z</time>
      </trkpt>
      <trkpt lat="43.41716" lon="6.08846">
        <ele>209.80000305176</ele>
        <time>2016-03-30T14:25:16Z</time>
      </trkpt>
      <trkpt lat="43.41707" lon="6.08831">
        <ele>209.80000305176</ele>
        <time>2016-03-30T14:25:19Z</time>
      </trkpt>
      <trkpt lat="43.41689" lon="6.08797">
        <ele>209.80000305176</ele>
        <time>2016-03-30T14:25:26Z</time>
      </trkpt>
      <trkpt lat="43.41669" lon="6.08758">
        <ele>210</ele>
        <time>2016-03-30T14:25:34Z</time>
      </trkpt>
      <trkpt lat="43.41645" lon="6.08713">
        <ele>210</ele>
        <time>2016-03-30T14:25:43Z</time>
      </trkpt>
      <trkpt lat="43.4162" lon="6.08663">
        <ele>210.60000610352</ele>
        <time>2016-03-30T14:25:53Z</time>
      </trkpt>
      <trkpt lat="43.41608" lon="6.08625">
        <ele>210.39999389648</ele>
        <time>2016-03-30T14:26:00Z</time>
      </trkpt>
      <trkpt lat="43.41602" lon="6.08587">
        <ele>211</ele>
        <time>2016-03-30T14:26:07Z</time>
      </trkpt>
      <trkpt lat="43.41596" lon="6.0854">
        <ele>211.39999389648</ele>
        <time>2016-03-30T14:26:15Z</time>
      </trkpt>
      <trkpt lat="43.41595" lon="6.08535">
        <ele>211.39999389648</ele>
        <time>2016-03-30T14:26:16Z</time>
      </trkpt>
      <trkpt lat="43.41593" lon="6.08522">
        <ele>211.19999694824</ele>
        <time>2016-03-30T14:26:18Z</time>
      </trkpt>
      <trkpt lat="43.41592" lon="6.08516">
        <ele>211.39999389648</ele>
        <time>2016-03-30T14:26:19Z</time>
      </trkpt>
      <trkpt lat="43.4159" lon="6.08504">
        <ele>211.39999389648</ele>
        <time>2016-03-30T14:26:21Z</time>
      </trkpt>
      <trkpt lat="43.41589" lon="6.08491">
        <ele>211.19999694824</ele>
        <time>2016-03-30T14:26:23Z</time>
      </trkpt>
      <trkpt lat="43.41587" lon="6.08479">
        <ele>211.19999694824</ele>
        <time>2016-03-30T14:26:25Z</time>
      </trkpt>
      <trkpt lat="43.41584" lon="6.08461">
        <ele>211.19999694824</ele>
        <time>2016-03-30T14:26:28Z</time>
      </trkpt>
      <trkpt lat="43.41579" lon="6.08425">
        <ele>211.39999389648</ele>
        <time>2016-03-30T14:26:34Z</time>
      </trkpt>
      <trkpt lat="43.41578" lon="6.08418">
        <ele>211.19999694824</ele>
        <time>2016-03-30T14:26:35Z</time>
      </trkpt>
      <trkpt lat="43.41574" lon="6.08401">
        <ele>211.19999694824</ele>
        <time>2016-03-30T14:26:38Z</time>
      </trkpt>
      <trkpt lat="43.4157" lon="6.08378">
        <ele>211.19999694824</ele>
        <time>2016-03-30T14:26:42Z</time>
      </trkpt>
      <trkpt lat="43.41568" lon="6.08372">
        <ele>211.19999694824</ele>
        <time>2016-03-30T14:26:43Z</time>
      </trkpt>
      <trkpt lat="43.41554" lon="6.08297">
        <ele>210.80000305176</ele>
        <time>2016-03-30T14:26:55Z</time>
      </trkpt>
      <trkpt lat="43.41541" lon="6.08247">
        <ele>211.39999389648</ele>
        <time>2016-03-30T14:27:04Z</time>
      </trkpt>
      <trkpt lat="43.41521" lon="6.08207">
        <ele>211.60000610352</ele>
        <time>2016-03-30T14:27:12Z</time>
      </trkpt>
      <trkpt lat="43.41514" lon="6.08193">
        <ele>211.80000305176</ele>
        <time>2016-03-30T14:27:15Z</time>
      </trkpt>
      <trkpt lat="43.41508" lon="6.08181">
        <ele>212.19999694824</ele>
        <time>2016-03-30T14:27:18Z</time>
      </trkpt>
      <trkpt lat="43.41499" lon="6.08163">
        <ele>212.60000610352</ele>
        <time>2016-03-30T14:27:22Z</time>
      </trkpt>
      <trkpt lat="43.41496" lon="6.08158">
        <ele>212.60000610352</ele>
        <time>2016-03-30T14:27:23Z</time>
      </trkpt>
      <trkpt lat="43.41493" lon="6.08154">
        <ele>212.60000610352</ele>
        <time>2016-03-30T14:27:24Z</time>
      </trkpt>
      <trkpt lat="43.4149" lon="6.08148">
        <ele>212.19999694824</ele>
        <time>2016-03-30T14:27:25Z</time>
      </trkpt>
      <trkpt lat="43.41487" lon="6.08143">
        <ele>212</ele>
        <time>2016-03-30T14:27:26Z</time>
      </trkpt>
      <trkpt lat="43.41484" lon="6.08138">
        <ele>212</ele>
        <time>2016-03-30T14:27:27Z</time>
      </trkpt>
      <trkpt lat="43.41481" lon="6.08134">
        <ele>212</ele>
        <time>2016-03-30T14:27:28Z</time>
      </trkpt>
      <trkpt lat="43.41478" lon="6.08129">
        <ele>212</ele>
        <time>2016-03-30T14:27:29Z</time>
      </trkpt>
      <trkpt lat="43.41475" lon="6.08124">
        <ele>212</ele>
        <time>2016-03-30T14:27:30Z</time>
      </trkpt>
      <trkpt lat="43.41472" lon="6.08119">
        <ele>212</ele>
        <time>2016-03-30T14:27:31Z</time>
      </trkpt>
      <trkpt lat="43.41466" lon="6.08109">
        <ele>212</ele>
        <time>2016-03-30T14:27:33Z</time>
      </trkpt>
      <trkpt lat="43.41463" lon="6.08104">
        <ele>212</ele>
        <time>2016-03-30T14:27:34Z</time>
      </trkpt>
      <trkpt lat="43.41459" lon="6.08099">
        <ele>211.80000305176</ele>
        <time>2016-03-30T14:27:35Z</time>
      </trkpt>
      <trkpt lat="43.41453" lon="6.08088">
        <ele>211.80000305176</ele>
        <time>2016-03-30T14:27:37Z</time>
      </trkpt>
      <trkpt lat="43.4145" lon="6.08083">
        <ele>211.80000305176</ele>
        <time>2016-03-30T14:27:38Z</time>
      </trkpt>
      <trkpt lat="43.41441" lon="6.08068">
        <ele>212</ele>
        <time>2016-03-30T14:27:41Z</time>
      </trkpt>
      <trkpt lat="43.41423" lon="6.08038">
        <ele>212</ele>
        <time>2016-03-30T14:27:47Z</time>
      </trkpt>
      <trkpt lat="43.41421" lon="6.08034">
        <ele>212</ele>
        <time>2016-03-30T14:27:48Z</time>
      </trkpt>
      <trkpt lat="43.41414" lon="6.08024">
        <ele>212</ele>
        <time>2016-03-30T14:27:50Z</time>
      </trkpt>
      <trkpt lat="43.41409" lon="6.08013">
        <ele>212</ele>
        <time>2016-03-30T14:27:52Z</time>
      </trkpt>
      <trkpt lat="43.41399" lon="6.07997">
        <ele>212</ele>
        <time>2016-03-30T14:27:55Z</time>
      </trkpt>
      <trkpt lat="43.4138" lon="6.07966">
        <ele>212</ele>
        <time>2016-03-30T14:28:01Z</time>
      </trkpt>
      <trkpt lat="43.41377" lon="6.07961">
        <ele>212</ele>
        <time>2016-03-30T14:28:02Z</time>
      </trkpt>
      <trkpt lat="43.41364" lon="6.07945">
        <ele>212.19999694824</ele>
        <time>2016-03-30T14:28:06Z</time>
      </trkpt>
      <trkpt lat="43.4136" lon="6.07941">
        <ele>212.39999389648</ele>
        <time>2016-03-30T14:28:07Z</time>
      </trkpt>
      <trkpt lat="43.41354" lon="6.07934">
        <ele>212.39999389648</ele>
        <time>2016-03-30T14:28:09Z</time>
      </trkpt>
      <trkpt lat="43.4135" lon="6.07932">
        <ele>212.60000610352</ele>
        <time>2016-03-30T14:28:10Z</time>
      </trkpt>
      <trkpt lat="43.4134" lon="6.07923">
        <ele>212.60000610352</ele>
        <time>2016-03-30T14:28:13Z</time>
      </trkpt>
      <trkpt lat="43.41335" lon="6.07914">
        <ele>212.60000610352</ele>
        <time>2016-03-30T14:28:15Z</time>
      </trkpt>
      <trkpt lat="43.41334" lon="6.0791">
        <ele>212.80000305176</ele>
        <time>2016-03-30T14:28:16Z</time>
      </trkpt>
      <trkpt lat="43.41332" lon="6.07904">
        <ele>213</ele>
        <time>2016-03-30T14:28:17Z</time>
      </trkpt>
      <trkpt lat="43.41332" lon="6.07898">
        <ele>213.19999694824</ele>
        <time>2016-03-30T14:28:18Z</time>
      </trkpt>
      <trkpt lat="43.41329" lon="6.07886">
        <ele>213</ele>
        <time>2016-03-30T14:28:20Z</time>
      </trkpt>
      <trkpt lat="43.41327" lon="6.0788">
        <ele>213</ele>
        <time>2016-03-30T14:28:21Z</time>
      </trkpt>
      <trkpt lat="43.41322" lon="6.07862">
        <ele>212.60000610352</ele>
        <time>2016-03-30T14:28:24Z</time>
      </trkpt>
      <trkpt lat="43.4132" lon="6.07855">
        <ele>212.60000610352</ele>
        <time>2016-03-30T14:28:25Z</time>
      </trkpt>
      <trkpt lat="43.41318" lon="6.07849">
        <ele>212.60000610352</ele>
        <time>2016-03-30T14:28:26Z</time>
      </trkpt>
      <trkpt lat="43.41316" lon="6.07842">
        <ele>212.39999389648</ele>
        <time>2016-03-30T14:28:27Z</time>
      </trkpt>
      <trkpt lat="43.41314" lon="6.07836">
        <ele>212.39999389648</ele>
        <time>2016-03-30T14:28:28Z</time>
      </trkpt>
      <trkpt lat="43.41312" lon="6.07825">
        <ele>212.19999694824</ele>
        <time>2016-03-30T14:28:30Z</time>
      </trkpt>
      <trkpt lat="43.4131" lon="6.07818">
        <ele>212</ele>
        <time>2016-03-30T14:28:32Z</time>
      </trkpt>
      <trkpt lat="43.4131" lon="6.07815">
        <ele>212</ele>
        <time>2016-03-30T14:28:36Z</time>
      </trkpt>
      <trkpt lat="43.41308" lon="6.07815">
        <ele>212</ele>
        <time>2016-03-30T14:28:42Z</time>
      </trkpt>
      <trkpt lat="43.41308" lon="6.07816">
        <ele>212.19999694824</ele>
        <time>2016-03-30T14:28:43Z</time>
      </trkpt>
      <trkpt lat="43.41309" lon="6.07824">
        <ele>212.19999694824</ele>
        <time>2016-03-30T14:28:47Z</time>
      </trkpt>
      <trkpt lat="43.4131" lon="6.07828">
        <ele>212.19999694824</ele>
        <time>2016-03-30T14:28:48Z</time>
      </trkpt>
      <trkpt lat="43.41311" lon="6.07835">
        <ele>212.19999694824</ele>
        <time>2016-03-30T14:28:50Z</time>
      </trkpt>
      <trkpt lat="43.41314" lon="6.07846">
        <ele>212</ele>
        <time>2016-03-30T14:28:54Z</time>
      </trkpt>
      <trkpt lat="43.41315" lon="6.07851">
        <ele>212.19999694824</ele>
        <time>2016-03-30T14:28:56Z</time>
      </trkpt>
      <trkpt lat="43.41322" lon="6.07866">
        <ele>212.19999694824</ele>
        <time>2016-03-30T14:29:04Z</time>
      </trkpt>
      <trkpt lat="43.41322" lon="6.07858">
        <ele>212.19999694824</ele>
        <time>2016-03-30T14:29:07Z</time>
      </trkpt>
      <trkpt lat="43.41321" lon="6.07854">
        <ele>212.19999694824</ele>
        <time>2016-03-30T14:29:08Z</time>
      </trkpt>
      <trkpt lat="43.41314" lon="6.0783">
        <ele>212</ele>
        <time>2016-03-30T14:29:14Z</time>
      </trkpt>
      <trkpt lat="43.41308" lon="6.07806">
        <ele>211.80000305176</ele>
        <time>2016-03-30T14:29:21Z</time>
      </trkpt>
      <trkpt lat="43.41302" lon="6.07783">
        <ele>212</ele>
        <time>2016-03-30T14:29:26Z</time>
      </trkpt>
      <trkpt lat="43.41299" lon="6.07772">
        <ele>212.19999694824</ele>
        <time>2016-03-30T14:29:28Z</time>
      </trkpt>
      <trkpt lat="43.41293" lon="6.07738">
        <ele>212.39999389648</ele>
        <time>2016-03-30T14:29:34Z</time>
      </trkpt>
      <trkpt lat="43.41292" lon="6.07726">
        <ele>212.80000305176</ele>
        <time>2016-03-30T14:29:36Z</time>
      </trkpt>
      <trkpt lat="43.41296" lon="6.07682">
        <ele>213</ele>
        <time>2016-03-30T14:29:43Z</time>
      </trkpt>
      <trkpt lat="43.41311" lon="6.07632">
        <ele>213.39999389648</ele>
        <time>2016-03-30T14:29:51Z</time>
      </trkpt>
      <trkpt lat="43.41313" lon="6.07626">
        <ele>213.39999389648</ele>
        <time>2016-03-30T14:29:52Z</time>
      </trkpt>
      <trkpt lat="43.41315" lon="6.07619">
        <ele>213.60000610352</ele>
        <time>2016-03-30T14:29:53Z</time>
      </trkpt>
      <trkpt lat="43.41317" lon="6.07612">
        <ele>213.60000610352</ele>
        <time>2016-03-30T14:29:54Z</time>
      </trkpt>
      <trkpt lat="43.41319" lon="6.07605">
        <ele>213.39999389648</ele>
        <time>2016-03-30T14:29:55Z</time>
      </trkpt>
      <trkpt lat="43.41321" lon="6.07598">
        <ele>213.60000610352</ele>
        <time>2016-03-30T14:29:56Z</time>
      </trkpt>
      <trkpt lat="43.41323" lon="6.07591">
        <ele>213.80000305176</ele>
        <time>2016-03-30T14:29:57Z</time>
      </trkpt>
      <trkpt lat="43.41327" lon="6.07577">
        <ele>214</ele>
        <time>2016-03-30T14:29:59Z</time>
      </trkpt>
      <trkpt lat="43.41331" lon="6.07563">
        <ele>214</ele>
        <time>2016-03-30T14:30:01Z</time>
      </trkpt>
      <trkpt lat="43.41332" lon="6.07557">
        <ele>214</ele>
        <time>2016-03-30T14:30:02Z</time>
      </trkpt>
      <trkpt lat="43.41348" lon="6.07486">
        <ele>214.80000305176</ele>
        <time>2016-03-30T14:30:12Z</time>
      </trkpt>
      <trkpt lat="43.4135" lon="6.07478">
        <ele>214.60000610352</ele>
        <time>2016-03-30T14:30:13Z</time>
      </trkpt>
      <trkpt lat="43.41362" lon="6.07413">
        <ele>215.60000610352</ele>
        <time>2016-03-30T14:30:22Z</time>
      </trkpt>
      <trkpt lat="43.41367" lon="6.07392">
        <ele>215.80000305176</ele>
        <time>2016-03-30T14:30:25Z</time>
      </trkpt>
      <trkpt lat="43.41378" lon="6.07339">
        <ele>216.60000610352</ele>
        <time>2016-03-30T14:30:33Z</time>
      </trkpt>
      <trkpt lat="43.41381" lon="6.07326">
        <ele>217</ele>
        <time>2016-03-30T14:30:35Z</time>
      </trkpt>
      <trkpt lat="43.41393" lon="6.07284">
        <ele>217.80000305176</ele>
        <time>2016-03-30T14:30:42Z</time>
      </trkpt>
      <trkpt lat="43.41403" lon="6.07252">
        <ele>218</ele>
        <time>2016-03-30T14:30:47Z</time>
      </trkpt>
      <trkpt lat="43.41425" lon="6.07186">
        <ele>218.60000610352</ele>
        <time>2016-03-30T14:30:58Z</time>
      </trkpt>
      <trkpt lat="43.41438" lon="6.07143">
        <ele>218.80000305176</ele>
        <time>2016-03-30T14:31:05Z</time>
      </trkpt>
      <trkpt lat="43.41447" lon="6.07119">
        <ele>218.80000305176</ele>
        <time>2016-03-30T14:31:09Z</time>
      </trkpt>
      <trkpt lat="43.4146" lon="6.07084">
        <ele>219</ele>
        <time>2016-03-30T14:31:15Z</time>
      </trkpt>
      <trkpt lat="43.41463" lon="6.07081">
        <ele>219.19999694824</ele>
        <time>2016-03-30T14:31:16Z</time>
      </trkpt>
      <trkpt lat="43.41467" lon="6.07079">
        <ele>219.39999389648</ele>
        <time>2016-03-30T14:31:17Z</time>
      </trkpt>
      <trkpt lat="43.41478" lon="6.07078">
        <ele>220</ele>
        <time>2016-03-30T14:31:20Z</time>
      </trkpt>
      <trkpt lat="43.41484" lon="6.0708">
        <ele>220.19999694824</ele>
        <time>2016-03-30T14:31:22Z</time>
      </trkpt>
      <trkpt lat="43.41503" lon="6.07086">
        <ele>220</ele>
        <time>2016-03-30T14:31:27Z</time>
      </trkpt>
      <trkpt lat="43.41526" lon="6.07082">
        <ele>220.19999694824</ele>
        <time>2016-03-30T14:31:33Z</time>
      </trkpt>
      <trkpt lat="43.41529" lon="6.07082">
        <ele>220.39999389648</ele>
        <time>2016-03-30T14:31:34Z</time>
      </trkpt>
      <trkpt lat="43.41541" lon="6.07086">
        <ele>221.19999694824</ele>
        <time>2016-03-30T14:31:38Z</time>
      </trkpt>
      <trkpt lat="43.41542" lon="6.07089">
        <ele>221.39999389648</ele>
        <time>2016-03-30T14:31:39Z</time>
      </trkpt>
      <trkpt lat="43.41544" lon="6.07109">
        <ele>221.60000610352</ele>
        <time>2016-03-30T14:31:44Z</time>
      </trkpt>
      <trkpt lat="43.41548" lon="6.07121">
        <ele>221.60000610352</ele>
        <time>2016-03-30T14:31:47Z</time>
      </trkpt>
      <trkpt lat="43.4155" lon="6.07123">
        <ele>221.39999389648</ele>
        <time>2016-03-30T14:31:48Z</time>
      </trkpt>
      <trkpt lat="43.41561" lon="6.07121">
        <ele>221.60000610352</ele>
        <time>2016-03-30T14:31:51Z</time>
      </trkpt>
      <trkpt lat="43.41564" lon="6.0712">
        <ele>221.60000610352</ele>
        <time>2016-03-30T14:31:52Z</time>
      </trkpt>
      <trkpt lat="43.41583" lon="6.07112">
        <ele>222</ele>
        <time>2016-03-30T14:31:59Z</time>
      </trkpt>
      <trkpt lat="43.41585" lon="6.0711">
        <ele>221.80000305176</ele>
        <time>2016-03-30T14:32:00Z</time>
      </trkpt>
      <trkpt lat="43.41585" lon="6.07103">
        <ele>222</ele>
        <time>2016-03-30T14:32:02Z</time>
      </trkpt>
      <trkpt lat="43.41583" lon="6.07086">
        <ele>222</ele>
        <time>2016-03-30T14:32:07Z</time>
      </trkpt>
      <trkpt lat="43.41583" lon="6.07072">
        <ele>222.19999694824</ele>
        <time>2016-03-30T14:32:11Z</time>
      </trkpt>
      <trkpt lat="43.41581" lon="6.07056">
        <ele>222.39999389648</ele>
        <time>2016-03-30T14:32:16Z</time>
      </trkpt>
      <trkpt lat="43.41579" lon="6.07041">
        <ele>222.19999694824</ele>
        <time>2016-03-30T14:32:24Z</time>
      </trkpt>
    </trkseg>
  </trk>
</gpx>